[[{"header":{"parameterUnit":"m.s-1","parameterCategory":1,"la1":30.6,"la2":28.766,"lo1":-90.7593,"lo2":-88.6598,"dy":0.0162,"dx":0.0183,"nx":116,"ny":114,"refTime":"2023-02-22T18:00:00:Z","depth":0,"parameterNumber":2,"parameterNumberName":"U-component_of_WINDS"},"data":[0.0,0.0,0.0,0.0,0.0,0.0,0.0,0.0,0.0,0.0,0.0,0.0,0.0,0.0,0.0,0.0,0.0,0.0,0.0,0.0,0.0,0.0,0.0,0.0,0.0,0.0,0.0,0.0,0.0,0.0,0.0,0.0,0.0,0.0,0.0,0.0,0.0,0.0,0.0,0.0,0.0,0.0,0.0,0.0,0.0,0.0,0.0,0.0,0.0,0.0,0.0,0.0,0.0,0.0,0.0,0.0,0.0,0.0,0.0,0.0,0.0,0.0,0.0,0.0,0.0,0.0,0.0,0.0,0.0,0.0,0.0,0.0,0.0,0.0,0.0,0.0,0.0,0.0,0.0,0.0,0.0,0.0,0.0,0.0,0.0,0.0,0.0,0.0,0.0,0.0,0.0,0.0,0.0,0.0,0.0,0.0,0.0,0.0,0.0,0.0,0.0,0.0,0.0,0.0,0.0,0.0,0.0,0.0,0.0,0.0,0.0,0.0,0.0,0.0,0.0,0.0,0.0,0.0,0.0,0.0,0.0,0.0,0.0,0.0,0.0,0.0,0.0,0.0,0.0,0.0,0.0,0.0,0.0,0.0,0.0,0.0,0.0,0.0,0.0,0.0,0.0,0.0,0.0,0.0,0.0,0.0,0.0,0.0,0.0,0.0,0.0,0.0,0.0,0.0,0.0,0.0,0.0,0.0,0.0,0.0,0.0,0.0,0.0,0.0,0.0,0.0,0.0,0.0,0.0,0.0,0.0,0.0,0.0,0.0,0.0,0.0,0.0,0.0,0.0,0.0,0.0,0.0,0.0,0.0,0.0,0.0,0.0,0.0,0.0,0.0,0.0,0.0,0.0,0.0,0.0,0.0,0.0,0.0,0.0,0.0,0.0,0.0,0.0,0.0,0.0,0.0,0.0,0.0,0.0,0.0,0.0,0.0,0.0,0.0,0.0,0.0,0.0,0.0,0.0,0.0,0.0,0.0,0.0,0.0,0.0,0.0,0.0,0.0,0.0,0.0,0.0,0.0,0.0,0.0,0.0,0.0,0.0,0.0,0.0,0.0,0.0,0.0,0.0,0.0,0.0,0.0,0.0,0.0,0.0,0.0,0.0,0.0,0.0,0.0,0.0,0.0,0.0,0.0,0.0,0.0,0.0,0.0,0.0,0.0,0.0,0.0,0.0,0.0,0.0,0.0,0.0,0.0,0.0,0.0,0.0,0.0,0.0,0.0,0.0,0.0,0.0,0.0,0.0,0.0,0.0,0.0,0.0,0.0,0.0,0.0,0.0,0.0,0.0,0.0,0.0,0.0,0.0,0.0,0.0,0.0,0.0,0.0,0.0,0.0,0.0,0.0,0.0,0.0,0.0,0.0,0.0,0.0,0.0,0.0,0.0,0.0,0.0,0.0,0.0,0.0,0.0,0.0,0.0,0.0,0.0,0.0,0.0,0.0,0.0,0.0,0.0,0.0,0.0,0.0,0.0,0.0,0.0,0.0,0.0,0.0,0.0,0.0,0.0,0.0,0.0,0.0,0.0,0.0,0.0,0.0,0.0,0.0,0.0,0.0,0.0,0.0,0.0,0.0,0.0,0.0,0.0,0.0,0.0,0.0,0.0,0.0,0.0,0.0,0.0,0.0,0.0,0.0,0.0,0.0,0.0,0.0,0.0,0.0,0.0,0.0,0.0,0.0,0.0,0.0,0.0,0.0,0.0,0.0,0.0,0.0,0.0,0.0,0.0,0.0,0.0,0.0,0.0,0.0,0.0,0.0,0.0,0.0,0.0,0.0,0.0,0.0,0.0,0.0,0.0,0.0,0.0,0.0,0.0,0.0,0.0,0.0,0.0,0.0,0.0,0.0,0.0,0.0,0.0,0.0,0.0,0.0,0.0,0.0,0.0,0.0,0.0,0.0,0.0,0.0,0.0,0.0,0.0,0.0,0.0,0.0,0.0,0.0,0.0,0.0,0.0,0.0,0.0,0.0,0.0,0.0,0.0,0.0,0.0,0.0,0.0,0.0,0.0,0.0,0.0,0.0,0.0,0.0,0.0,0.0,0.0,0.0,0.0,0.0,0.0,0.0,0.0,0.0,0.0,0.0,0.0,0.0,0.0,0.0,0.0,0.0,0.0,0.0,0.0,0.0,0.0,0.0,0.0,0.0,0.0,0.0,0.0,0.0,0.0,0.0,0.0,0.0,0.0,0.0,0.0,0.0,0.0,0.0,0.0,0.0,0.0,0.0,0.0,0.0,0.0,0.0,0.0,0.0,0.0,0.0,0.0,0.0,0.0,0.0,0.0,0.0,0.0,0.0,0.0,0.0,0.0,0.0,0.0,0.0,0.0,0.0,0.0,0.0,0.0,0.0,0.0,0.0,0.0,0.0,0.0,0.0,0.0,0.0,0.0,0.0,0.0,0.0,0.0,0.0,0.0,0.0,0.0,0.0,0.0,0.0,0.0,0.0,0.0,0.0,0.0,0.0,0.0,0.0,0.0,0.0,0.0,0.0,0.0,0.0,0.0,0.0,0.0,0.0,0.0,0.0,0.0,0.0,0.0,0.0,0.0,0.0,0.0,0.0,0.0,0.0,0.0,0.0,0.0,0.0,0.0,0.0,0.0,0.0,0.0,0.0,0.0,0.0,0.0,0.0,0.0,0.0,0.0,0.0,0.0,0.0,0.0,0.0,0.0,0.0,0.0,0.0,0.0,0.0,0.0,0.0,0.0,0.0,0.0,0.0,0.0,0.0,0.0,0.0,0.0,0.0,0.0,0.0,0.0,0.0,0.0,0.0,0.0,0.0,0.0,0.0,0.0,0.0,0.0,0.0,0.0,0.0,0.0,0.0,0.0,0.0,0.0,0.0,0.0,0.0,0.0,0.0,0.0,0.0,0.0,0.0,0.0,0.0,0.0,0.0,0.0,0.0,0.0,0.0,0.0,0.0,0.0,0.0,0.0,0.0,0.0,0.0,0.0,0.0,0.0,0.0,0.0,0.0,0.0,0.0,0.0,0.0,0.0,0.0,0.0,0.0,0.0,0.0,0.0,0.0,0.0,0.0,0.0,0.0,0.0,0.0,0.0,0.0,0.0,0.0,0.0,0.0,0.0,0.0,0.0,0.0,0.0,0.0,0.0,0.0,0.0,0.0,0.0,0.0,0.0,0.0,0.0,0.0,0.0,0.0,0.0,0.0,0.0,0.0,0.0,0.0,0.0,0.0,0.0,0.0,0.0,0.0,0.0,0.0,0.0,0.0,0.0,0.0,0.0,0.0,0.0,0.0,0.0,0.0,0.0,0.0,0.0,0.0,0.0,0.0,0.0,0.0,0.0,0.0,0.0,0.0,0.0,0.0,0.0,0.0,0.0,0.0,0.0,0.0,0.0,0.0,0.0,0.0,0.0,0.0,0.0,0.0,0.0,0.0,0.0,0.0,0.0,0.0,0.0,0.0,0.0,0.0,0.0,0.0,0.0,0.0,0.0,0.0,0.0,0.0,0.0,0.0,0.0,0.0,0.0,0.0,0.0,0.0,0.0,0.0,0.0,0.0,0.0,0.0,0.0,0.0,0.0,0.0,0.0,0.0,0.0,0.0,0.0,0.0,0.0,0.0,0.0,0.0,0.0,0.0,0.0,0.0,0.0,0.0,0.0,0.0,0.0,0.0,0.0,0.0,0.0,0.0,0.0,0.0,0.0,0.0,0.0,0.0,0.0,0.0,0.0,0.0,0.0,0.0,0.0,0.0,0.0,0.0,0.0,0.0,0.0,0.0,0.0,0.0,0.0,0.0,0.0,0.0,0.0,0.0,0.0,0.0,0.0,0.0,0.0,0.0,0.0,0.0,0.0,0.0,0.0,0.0,0.0,0.0,0.0,0.0,0.0,0.0,0.0,0.0,0.0,0.0,0.0,0.0,0.0,0.0,0.0,0.0,0.0,0.0,0.0,0.0,0.0,0.0,0.0,0.0,0.0,0.0,0.0,0.0,0.0,0.0,0.0,0.0,0.0,0.0,0.0,0.0,0.0,0.0,0.0,0.0,0.0,0.0,0.0,0.0,0.0,0.0,0.0,0.0,0.0,0.0,0.0,0.0,0.0,0.0,0.0,0.0,0.0,0.0,0.0,0.0,0.0,0.0,0.0,0.0,0.0,0.0,0.0,0.0,0.0,0.0,0.0,0.0,0.0,0.0,0.0,0.0,0.0,0.0,0.0,0.0,0.0,0.0,0.0,0.0,0.0,0.0,0.0,0.0,0.0,0.0,0.0,0.0,0.0,0.0,0.0,0.0,0.0,0.0,0.0,0.0,0.0,0.0,0.0,0.0,0.0,0.0,0.0,0.0,0.0,0.0,0.0,0.0,0.0,0.0,0.0,0.0,0.0,0.0,0.0,0.0,0.0,0.0,0.0,0.0,0.0,0.0,0.0,0.0,0.0,0.0,0.0,0.0,0.0,0.0,0.0,0.0,0.0,0.0,0.0,0.0,0.0,0.0,0.0,0.0,0.0,0.0,0.0,0.0,0.0,0.0,0.0,0.0,0.0,0.0,0.0,0.0,0.0,0.0,0.0,0.0,0.0,0.0,0.0,0.0,0.0,0.0,0.0,0.0,0.0,0.0,0.0,0.0,0.0,0.0,0.0,0.0,0.0,0.0,0.0,0.0,0.0,0.0,0.0,0.0,0.0,0.0,0.0,0.0,0.0,0.0,0.0,0.0,0.0,0.0,0.0,0.0,0.0,0.0,0.0,0.0,0.0,0.0,0.0,0.0,0.0,0.0,0.0,0.0,0.0,0.0,0.0,0.0,0.0,0.0,0.0,0.0,0.0,0.0,0.0,0.0,0.0,0.0,0.0,0.0,0.0,0.0,0.0,0.0,0.0,0.0,0.0,0.0,0.0,0.0,0.0,0.0,0.0,0.0,0.0,0.0,0.0,0.0,0.0,0.0,0.0,0.0,0.0,0.0,0.0,0.0,0.0,0.0,0.0,0.0,0.0,0.0,0.0,0.0,0.0,0.0,0.0,0.0,0.0,0.0,0.0,0.0,0.0,0.0,0.0,0.0,0.0,0.0,0.0,0.0,0.0,0.0,0.0,0.0,0.0,0.0,0.0,0.0,0.0,0.0,0.0,0.0,0.0,0.0,0.0,0.0,0.0,0.0,0.0,0.0,0.0,0.0,0.0,0.0,0.0,0.0,0.0,0.0,0.0,0.0,0.0,0.0,0.0,0.0,0.0,0.0,0.0,0.0,0.0,0.0,0.0,0.0,0.0,0.0,0.0,0.0,0.0,0.0,0.0,0.0,0.0,0.0,0.0,0.0,0.0,0.0,0.0,0.0,0.0,0.0,0.0,0.0,0.0,0.0,0.0,0.0,0.0,0.0,0.0,0.0,0.0,0.0,0.0,0.0,0.0,0.0,0.0,0.0,0.0,0.0,0.0,0.0,0.0,0.0,0.0,0.0,0.0,0.0,0.0,0.0,0.0,0.0,0.0,0.0,0.0,0.0,0.0,0.0,0.0,0.0,0.0,0.0,0.0,0.0,0.0,0.0,0.0,0.0,0.0,0.0,0.0,0.0,0.0,0.0,0.0,0.0,0.0,0.0,0.0,0.0,0.0,0.0,0.0,0.0,0.0,0.0,0.0,0.0,0.0,0.0,0.0,0.0,0.0,0.0,0.0,0.0,0.0,0.0,0.0,0.0,0.0,0.0,0.0,0.0,0.0,0.0,0.0,0.0,0.0,0.0,0.0,0.0,0.0,0.0,0.0,0.0,0.0,0.0,0.0,0.0,0.0,0.0,0.0,0.0,0.0,0.0,0.0,0.0,0.0,0.0,0.0,0.0,0.0,0.0,0.0,0.0,0.0,0.0,0.0,0.0,0.0,0.0,0.0,0.0,0.0,0.0,0.0,0.0,0.0,0.0,0.0,0.0,0.0,0.0,0.0,0.0,0.0,0.0,0.0,0.0,0.0,0.0,0.0,0.0,0.0,0.0,0.0,0.0,0.0,0.0,0.0,0.0,0.0,0.0,0.0,0.0,0.0,0.0,0.0,0.0,0.0,0.0,0.0,0.0,0.0,0.0,0.0,0.0,0.0,0.0,0.0,0.0,0.0,0.0,0.0,0.0,-1.5663,0.0,0.0,0.0,0.0,0.0,0.0,0.0,0.0,0.0,0.0,0.0,0.0,0.0,0.0,0.0,0.0,0.0,0.0,0.0,0.0,0.0,0.0,0.0,0.0,0.0,0.0,0.0,0.0,0.0,0.0,0.0,0.0,0.0,0.0,0.0,0.0,0.0,0.0,0.0,0.0,0.0,0.0,0.0,0.0,0.0,0.0,0.0,0.0,0.0,0.0,0.0,0.0,0.0,0.0,0.0,0.0,0.0,0.0,0.0,0.0,0.0,0.0,0.0,0.0,0.0,0.0,0.0,0.0,0.0,0.0,0.0,0.0,0.0,0.0,0.0,0.0,0.0,0.0,0.0,0.0,0.0,0.0,0.0,0.0,0.0,0.0,0.0,0.0,0.0,0.0,0.0,0.0,0.0,0.0,0.0,0.0,0.0,0.0,0.0,0.0,0.0,0.0,0.0,0.0,0.0,0.0,0.0,0.0,0.0,0.0,0.0,0.0,0.0,0.0,0.0,0.0,-1.6207,0.0,0.0,0.0,0.0,0.0,0.0,0.0,0.0,0.0,0.0,0.0,0.0,0.0,0.0,0.0,0.0,0.0,0.0,0.0,0.0,0.0,0.0,0.0,0.0,0.0,0.0,0.0,0.0,0.0,0.0,0.0,0.0,0.0,0.0,0.0,0.0,0.0,0.0,0.0,0.0,0.0,0.0,0.0,0.0,0.0,0.0,0.0,0.0,0.0,0.0,0.0,0.0,0.0,0.0,0.0,0.0,0.0,0.0,0.0,0.0,0.0,0.0,0.0,0.0,0.0,0.0,0.0,0.0,0.0,0.0,0.0,0.0,0.0,0.0,0.0,0.0,0.0,0.0,0.0,0.0,0.0,0.0,0.0,0.0,0.0,0.0,0.0,0.0,0.0,0.0,0.0,0.0,0.0,0.0,0.0,0.0,0.0,0.0,0.0,0.0,0.0,0.0,0.0,0.0,0.0,0.0,0.0,0.0,-1.9459,-1.9414,-1.8625,-2.0223,-2.049,-1.9581,-1.8189,-1.7004,-1.6087,-1.6247,0.0,0.0,0.0,0.0,0.0,0.0,0.0,0.0,0.0,0.0,0.0,0.0,0.0,0.0,0.0,0.0,0.0,0.0,0.0,0.0,0.0,0.0,0.0,0.0,0.0,0.0,0.0,0.0,0.0,0.0,0.0,0.0,0.0,0.0,0.0,0.0,0.0,0.0,-1.8572,-1.8412,-1.9008,-2.0157,0.0,0.0,0.0,0.0,0.0,0.0,0.0,0.0,0.0,0.0,0.0,0.0,0.0,0.0,0.0,0.0,0.0,0.0,0.0,0.0,0.0,0.0,0.0,0.0,0.0,0.0,0.0,0.0,0.0,0.0,0.0,0.0,0.0,0.0,0.0,0.0,0.0,0.0,0.0,0.0,0.0,0.0,0.0,0.0,-1.8091,-1.75,0.0,0.0,0.0,0.0,0.0,0.0,0.0,0.0,0.0,0.0,0.0,0.0,0.0,-1.7863,-1.8854,-1.9569,-2.0357,-2.1204,-2.2085,-2.2044,-2.1233,-2.2286,-2.2279,-2.1436,-2.1219,0.0,-1.8841,-1.9607,0.0,0.0,0.0,0.0,0.0,0.0,0.0,0.0,0.0,0.0,0.0,0.0,0.0,0.0,0.0,0.0,0.0,0.0,0.0,0.0,0.0,0.0,0.0,0.0,0.0,0.0,0.0,0.0,0.0,0.0,0.0,0.0,0.0,0.0,0.0,0.0,0.0,-1.8833,-2.0655,-2.0956,-2.1737,-2.2804,-2.0798,-1.956,-1.8946,-1.8677,0.0,0.0,0.0,0.0,0.0,0.0,0.0,0.0,0.0,0.0,0.0,0.0,0.0,0.0,0.0,0.0,0.0,0.0,0.0,0.0,0.0,0.0,0.0,0.0,0.0,0.0,0.0,0.0,0.0,0.0,0.0,0.0,0.0,0.0,0.0,0.0,0.0,0.0,0.0,-1.7348,-1.7808,-1.6975,-1.7651,-1.7502,0.0,0.0,0.0,0.0,0.0,0.0,0.0,0.0,0.0,-1.8409,-1.8461,-1.9165,-2.0582,-2.0959,-2.1573,-2.2447,-2.3312,-2.3268,-2.2472,-2.3867,-2.4036,-2.3229,-2.3724,-2.327,-2.2047,-2.0497,-1.8841,-1.7318,0.0,0.0,0.0,0.0,-1.7966,-1.8691,0.0,0.0,0.0,0.0,0.0,0.0,0.0,0.0,0.0,0.0,0.0,0.0,0.0,0.0,0.0,-1.4783,0.0,0.0,0.0,0.0,0.0,0.0,0.0,0.0,0.0,0.0,0.0,0.0,0.0,0.0,0.0,0.0,0.0,0.0,0.0,-2.2279,-2.0232,-2.0366,0.0,0.0,0.0,0.0,0.0,0.0,0.0,0.0,0.0,0.0,0.0,0.0,0.0,0.0,0.0,0.0,0.0,0.0,0.0,0.0,0.0,0.0,0.0,0.0,0.0,0.0,0.0,0.0,0.0,0.0,0.0,0.0,0.0,0.0,0.0,0.0,0.0,0.0,0.0,-1.7407,-1.782,-1.6734,-1.7394,-1.735,0.0,0.0,0.0,0.0,0.0,0.0,-1.8446,-1.8716,-1.9192,-1.9915,-2.0008,-2.0785,-2.2355,-2.2374,-2.2796,-2.3664,-2.4311,-2.4285,-2.3708,-2.5016,-2.5243,-2.4671,-2.5323,-2.5122,-2.4172,-2.1653,-1.9711,-1.8405,-1.905,-1.9305,-1.9286,-1.9045,-1.938,-2.0024,0.0,0.0,0.0,0.0,0.0,0.0,0.0,0.0,0.0,0.0,0.0,0.0,0.0,0.0,-1.6256,-1.6807,-1.6903,-1.6277,0.0,0.0,0.0,0.0,0.0,0.0,0.0,0.0,0.0,0.0,0.0,0.0,0.0,0.0,0.0,0.0,0.0,0.0,0.0,0.0,0.0,0.0,0.0,0.0,0.0,0.0,0.0,0.0,0.0,0.0,0.0,0.0,0.0,0.0,0.0,0.0,0.0,0.0,0.0,0.0,0.0,0.0,0.0,0.0,0.0,0.0,0.0,0.0,0.0,0.0,0.0,0.0,0.0,0.0,0.0,0.0,0.0,0.0,0.0,0.0,0.0,-1.7638,-1.8276,0.0,0.0,0.0,0.0,-1.8517,-2.0085,-2.1017,-2.1017,-2.18,-2.2332,-2.25,-2.2528,-2.3057,-2.4158,-2.4178,-2.4608,-2.5462,-2.5504,-2.5501,-2.5462,-2.5562,-2.5582,-2.5543,-2.5579,-2.5104,-2.4299,-2.4191,-2.3596,-2.278,-2.2827,-2.2849,-2.2734,-2.1914,-2.1647,-2.1688,0.0,0.0,0.0,0.0,0.0,0.0,0.0,0.0,0.0,0.0,0.0,0.0,0.0,-1.7404,-1.8678,-1.8375,-1.9269,-1.8744,-1.6101,0.0,0.0,0.0,0.0,0.0,0.0,0.0,0.0,0.0,0.0,0.0,0.0,0.0,0.0,0.0,0.0,0.0,0.0,0.0,0.0,0.0,0.0,0.0,0.0,0.0,0.0,0.0,0.0,0.0,0.0,0.0,0.0,0.0,0.0,0.0,0.0,0.0,0.0,0.0,0.0,0.0,0.0,0.0,0.0,0.0,0.0,0.0,0.0,0.0,0.0,0.0,0.0,0.0,0.0,0.0,0.0,0.0,0.0,0.0,0.0,-1.8463,-1.9647,0.0,-1.9323,-1.9664,-2.0054,-2.034,-2.1456,-2.2104,-2.2104,-2.2409,-2.3092,-2.4273,-2.3854,-2.459,-2.6664,-2.564,-2.5568,-2.6432,-2.5865,-2.5593,-2.5593,-2.5604,-2.5601,-2.5601,-2.5609,-2.542,-2.5143,-2.5152,-2.4353,-2.3098,-2.3107,-2.311,-2.3052,-2.2746,-2.2982,-2.347,0.0,0.0,0.0,0.0,0.0,0.0,0.0,0.0,0.0,0.0,0.0,-1.5487,-1.6732,-1.9384,-2.0758,-2.0062,-2.0843,-1.9961,-1.6651,0.0,0.0,0.0,0.0,0.0,0.0,0.0,0.0,0.0,0.0,0.0,0.0,0.0,0.0,0.0,0.0,0.0,0.0,0.0,0.0,0.0,0.0,0.0,-2.0057,0.0,0.0,0.0,0.0,0.0,0.0,0.0,0.0,0.0,0.0,0.0,0.0,0.0,0.0,0.0,0.0,0.0,0.0,0.0,0.0,0.0,0.0,0.0,0.0,0.0,0.0,0.0,0.0,0.0,0.0,0.0,0.0,0.0,0.0,0.0,-2.0177,-2.0122,-2.1125,-2.1618,-2.1063,-2.1453,-2.1842,-2.2127,-2.2977,-2.3479,-2.3479,-2.3504,-2.4051,-2.5231,-2.4821,-2.5426,-2.7168,-2.6131,-2.5884,-2.6451,-2.5887,-2.5593,-2.5593,-2.5604,-2.5601,-2.5601,-2.5604,-2.5607,-2.5596,-2.5608,-2.4947,-2.3947,-2.3962,-2.3971,-2.3976,-2.3977,-2.4349,-2.4836,0.0,0.0,0.0,0.0,0.0,0.0,0.0,0.0,0.0,0.0,-1.4932,-1.6727,-1.8977,-2.1225,-2.2359,-2.1873,-2.1389,-1.9687,-1.6366,-1.4995,0.0,0.0,0.0,0.0,0.0,0.0,0.0,0.0,0.0,0.0,0.0,0.0,0.0,0.0,0.0,0.0,0.0,0.0,0.0,0.0,0.0,0.0,-2.3506,0.0,0.0,0.0,0.0,0.0,0.0,0.0,0.0,0.0,0.0,0.0,0.0,0.0,0.0,0.0,0.0,0.0,0.0,0.0,0.0,0.0,0.0,0.0,0.0,0.0,0.0,0.0,0.0,0.0,0.0,0.0,0.0,0.0,-2.0904,-2.2051,-2.2696,-2.258,-2.2743,-2.2819,-2.2739,-2.2743,-2.3052,-2.3788,-2.4702,-2.5231,-2.5193,-2.5264,-2.5348,-2.5426,-2.5475,-2.557,-2.5676,-2.5632,-2.5615,-2.564,-2.5601,-2.5601,-2.5601,-2.5601,-2.5601,-2.5601,-2.5601,-2.5601,-2.5604,-2.5598,-2.5608,-2.5612,-2.5662,-2.5704,-2.5699,-2.5704,-2.5706,-2.5706,0.0,0.0,0.0,0.0,0.0,0.0,0.0,0.0,0.0,0.0,-1.5791,-1.8041,-1.9549,-2.2378,-2.3757,-2.2772,-2.1759,-1.997,-1.7157,0.0,0.0,0.0,0.0,0.0,0.0,0.0,0.0,0.0,0.0,0.0,0.0,0.0,0.0,0.0,0.0,0.0,0.0,0.0,0.0,0.0,0.0,0.0,-2.349,0.0,0.0,0.0,0.0,0.0,0.0,0.0,0.0,0.0,0.0,0.0,0.0,0.0,0.0,0.0,0.0,0.0,0.0,0.0,0.0,0.0,0.0,0.0,0.0,0.0,0.0,0.0,0.0,0.0,0.0,0.0,0.0,-2.2791,-2.1441,-2.2585,-2.3768,-2.4319,-2.5531,-2.6064,-2.5416,-2.5926,-2.5881,-2.4895,-2.5639,-2.5894,-2.5304,-2.5331,-2.5651,-2.6244,-2.5777,-2.6084,-2.7334,-2.6179,-2.5914,-2.6532,-2.5901,-2.5609,-2.5596,-2.5604,-2.5601,-2.5601,-2.5607,-2.5604,-2.5604,-2.5598,-2.5608,-2.5591,-2.5615,-2.5629,-2.5634,-2.5636,-2.5637,-2.5637,0.0,0.0,0.0,0.0,0.0,0.0,0.0,0.0,0.0,0.0,-1.6616,-1.8992,-2.0333,-2.3269,-2.4416,-2.2621,-2.1407,-1.9492,-1.653,0.0,0.0,0.0,0.0,0.0,0.0,0.0,0.0,0.0,0.0,0.0,0.0,0.0,0.0,0.0,0.0,0.0,0.0,0.0,0.0,0.0,0.0,0.0,-2.6695,-2.4497,-2.3586,-2.3287,-2.19,-2.1738,-2.1954,-2.0211,0.0,0.0,0.0,0.0,0.0,0.0,0.0,0.0,0.0,0.0,0.0,0.0,0.0,0.0,0.0,0.0,0.0,0.0,0.0,0.0,0.0,0.0,0.0,0.0,-2.4231,-2.4917,-2.4897,-2.519,-2.559,-2.6047,-2.7052,-2.7504,-2.6982,-2.7377,-2.7243,-2.6275,-2.6406,-2.6336,-2.588,-2.5626,-2.5696,-2.6177,-2.5767,-2.6016,-2.6981,-2.6062,-2.5853,-2.634,-2.584,-2.5607,-2.5601,-2.5607,-2.5601,-2.5601,-2.5601,-2.5599,-2.5601,-2.5601,-2.5609,0.0,0.0,0.0,0.0,0.0,-2.5601,-2.5601,0.0,0.0,0.0,0.0,0.0,0.0,0.0,0.0,0.0,0.0,0.0,-1.9526,-2.089,-2.3511,-2.4209,-2.1851,-2.048,-1.8459,0.0,0.0,0.0,-2.0316,0.0,0.0,0.0,0.0,0.0,0.0,0.0,0.0,0.0,0.0,0.0,0.0,0.0,0.0,0.0,0.0,0.0,0.0,0.0,0.0,-3.1307,-2.7973,-2.7031,-2.7265,-2.5226,-2.4133,-2.3471,-2.2454,0.0,0.0,0.0,0.0,0.0,0.0,0.0,0.0,0.0,0.0,0.0,0.0,0.0,0.0,0.0,0.0,0.0,0.0,0.0,0.0,0.0,0.0,0.0,0.0,-2.522,-2.6464,-2.9593,-2.8886,-2.8027,-2.7929,-2.8015,-2.7981,-2.7701,-2.7713,-2.763,-2.737,-2.6875,-2.6559,-2.6477,0.0,0.0,0.0,0.0,-2.5593,-2.5601,-2.5593,-2.566,-2.5757,-2.5746,-2.5749,-2.5757,-2.5746,-2.5759,-2.574,-2.564,-2.5718,-2.5876,-2.5679,-2.5659,-2.5743,-2.5751,-2.5753,-2.5751,-2.5749,-2.5671,-2.5613,0.0,0.0,0.0,0.0,0.0,0.0,0.0,0.0,0.0,-1.5432,-1.7588,-1.9154,-1.934,-2.1208,-2.2134,-2.1359,-1.8984,-1.7189,0.0,0.0,0.0,0.0,0.0,0.0,0.0,0.0,0.0,0.0,0.0,0.0,0.0,0.0,0.0,0.0,0.0,0.0,0.0,0.0,0.0,0.0,0.0,0.0,-3.2048,-3.0327,-2.938,-2.887,-2.7912,-2.7769,-2.7775,-2.5863,-2.5446,-2.5291,-2.2753,0.0,0.0,0.0,0.0,0.0,0.0,0.0,0.0,0.0,0.0,0.0,0.0,0.0,0.0,0.0,0.0,0.0,0.0,0.0,0.0,-2.6304,-2.7867,-2.9307,-3.0671,-3.1199,-3.1188,-3.0497,-3.0463,-2.9744,-2.7723,-2.8167,-2.7781,-2.5896,-2.6288,-2.6342,-2.5739,-2.5638,-2.5596,-2.5601,-2.5599,-2.5599,-2.5601,-2.5593,-2.5951,-2.6654,0.0,0.0,-2.6651,-2.6651,-2.6648,-2.6609,-2.5918,-2.6406,-2.7584,-2.619,-2.6015,-2.6648,-2.6645,-2.6651,-2.6645,-2.6654,-2.6201,-2.5696,0.0,0.0,0.0,0.0,0.0,0.0,0.0,0.0,0.0,0.0,-1.7033,-1.8124,-1.855,-1.9796,-2.0213,-1.9267,-1.751,0.0,0.0,-1.8982,0.0,0.0,0.0,0.0,0.0,0.0,0.0,0.0,0.0,0.0,0.0,0.0,0.0,0.0,0.0,0.0,0.0,0.0,0.0,0.0,0.0,0.0,-3.5265,-3.3799,-3.2796,-3.2067,-3.1376,-3.0773,-3.014,-2.8715,-2.8162,-2.7666,-2.5488,-2.3638,-2.2032,0.0,0.0,0.0,0.0,0.0,0.0,0.0,0.0,0.0,0.0,0.0,0.0,0.0,0.0,-2.2365,0.0,0.0,-2.6208,-2.854,-2.9766,-3.0901,-3.2164,-3.2732,-3.2542,-3.1351,-3.1235,-3.063,-2.8998,-2.8846,-2.8524,-2.7752,-2.702,-2.6608,-2.6655,-2.5977,-2.5801,-2.6242,-2.6251,-2.6442,-2.6841,-2.6847,-2.709,-2.7548,-2.7529,-2.7512,-2.7557,-2.7523,-2.7526,-2.7523,-2.7098,-2.7393,-2.8126,-2.7262,-2.7404,-2.8193,-2.8199,-2.7937,-2.7545,-2.7511,-2.721,-2.6919,0.0,0.0,0.0,0.0,0.0,0.0,0.0,0.0,0.0,0.0,0.0,-1.7168,-1.7981,-1.8424,-1.8027,0.0,0.0,0.0,0.0,0.0,0.0,0.0,0.0,0.0,0.0,0.0,0.0,0.0,0.0,0.0,0.0,0.0,0.0,0.0,0.0,0.0,0.0,0.0,0.0,0.0,0.0,0.0,-3.8452,-3.6962,-3.5852,-3.4998,-3.4104,-3.2673,-3.1073,-3.0413,-2.9605,-2.8719,-2.7558,-2.6147,-2.443,-2.2009,-2.0139,0.0,0.0,0.0,0.0,0.0,0.0,0.0,0.0,0.0,-2.2016,-2.2901,-2.3221,-2.4107,-2.6655,-2.7282,-2.8248,-3.0803,-3.1412,-3.21,-3.3649,-3.3857,-3.3289,-3.173,-3.1689,-3.1359,-3.0285,-2.9379,-2.9029,-2.94,-2.7514,-2.6718,-2.7585,-2.6505,-2.6248,-2.7122,-2.7139,-2.7446,-2.8107,-2.8104,-2.821,-2.8426,-2.8388,-2.8398,-2.8443,-2.8375,-2.8384,-2.8454,-2.8635,-2.8518,-2.8212,-2.8371,-2.8865,-2.9493,-2.9499,-2.9174,-2.8656,-2.8424,-2.8243,-2.8123,0.0,0.0,0.0,0.0,0.0,0.0,0.0,0.0,0.0,0.0,0.0,0.0,0.0,0.0,0.0,0.0,0.0,0.0,0.0,0.0,0.0,0.0,0.0,0.0,0.0,0.0,0.0,0.0,0.0,0.0,0.0,0.0,0.0,0.0,0.0,0.0,0.0,0.0,0.0,0.0,0.0,0.0,-3.9258,-3.8183,-3.7001,-3.5694,-3.4286,-3.232,-3.0236,-2.9634,-2.8885,-2.8178,-2.803,-2.8058,-2.751,-2.4108,0.0,-2.0657,-1.8109,-1.7553,-1.7681,-1.7761,-1.8816,-2.0128,0.0,0.0,-2.3685,-2.4552,-2.5822,-2.7356,-2.9332,-2.9856,-3.0675,-3.276,-3.3164,-3.3591,-3.4605,-3.4746,-3.4188,-3.2642,-3.308,-3.2629,-3.0333,-2.9332,-2.83,-2.7084,-2.6033,-2.5909,-2.6932,-2.6837,-2.7157,-2.8034,-2.7997,-2.8035,-2.8187,-2.8129,-2.8482,-2.9262,-2.9259,-2.9285,-2.9358,-2.9285,-2.9296,-2.9401,-3.0177,-2.9638,-2.8254,-2.9044,-2.9419,-2.9497,-2.9497,-2.9874,-3.0325,-2.9551,-2.8761,-2.822,0.0,0.0,0.0,0.0,0.0,0.0,0.0,0.0,0.0,0.0,0.0,0.0,0.0,0.0,0.0,0.0,0.0,0.0,0.0,0.0,0.0,0.0,0.0,0.0,0.0,0.0,0.0,0.0,0.0,0.0,0.0,0.0,0.0,0.0,0.0,0.0,0.0,0.0,0.0,0.0,0.0,0.0,-3.9308,-3.7533,-3.596,-3.4518,-3.2954,-3.0629,0.0,0.0,-2.7583,-2.7145,-2.7597,-2.7352,-2.6218,-2.2695,-2.1349,0.0,-1.9514,-1.9191,-1.9651,0.0,-2.2465,-2.3432,-2.5266,-2.6091,-2.6688,-2.7622,-2.8384,-2.9429,-3.1218,-3.1839,-3.2529,0.0,-3.4212,-3.4443,-3.4841,-3.4889,-3.45,-3.3439,-3.3214,-3.2549,-3.1004,-2.9674,-2.9072,-2.9429,-2.8285,-2.777,-2.8274,-2.7892,-2.8046,-2.8873,-2.9362,-2.9868,-3.0412,-3.0384,-3.0558,-3.0918,-3.04,-3.0166,-3.0199,-3.0166,-3.0173,-3.0211,-3.0573,-3.0342,-2.9736,-3.0061,-3.0225,-3.0258,-3.0253,-3.0459,-3.0703,-3.0315,-2.9927,-2.9661,0.0,0.0,0.0,0.0,0.0,0.0,0.0,0.0,0.0,0.0,0.0,0.0,0.0,0.0,0.0,0.0,0.0,0.0,0.0,0.0,0.0,0.0,0.0,0.0,0.0,0.0,0.0,0.0,0.0,0.0,0.0,0.0,0.0,0.0,0.0,0.0,0.0,0.0,0.0,0.0,0.0,0.0,-3.8352,-3.624,-3.3995,-3.1835,-3.0455,-2.8313,0.0,0.0,-2.5312,-2.5297,-2.6118,-2.5812,-2.4584,-2.163,-2.0627,-2.0463,-2.0308,0.0,0.0,-2.4458,-2.5837,-2.7121,-2.9016,-2.9499,-2.9842,-3.0817,-3.0907,-3.1305,-3.2847,-3.3433,-3.3888,-3.4574,-3.4792,-3.4908,-3.4908,-3.4718,-3.4272,-3.3508,-3.2556,-3.1714,-3.1099,-3.0028,-2.9781,-3.0788,-2.9838,-2.9257,-2.9356,-2.9077,-2.9291,-3.0119,-3.0745,-3.1484,-3.2351,-3.1874,-3.1871,-3.2344,-3.1488,-3.1177,-3.1411,-3.1446,-3.1424,-3.1424,-3.1445,-3.1321,-3.1129,-3.1101,-3.0967,-3.0803,-3.1059,-3.1151,-3.1123,-3.108,-3.0905,-3.0697,0.0,0.0,0.0,0.0,0.0,0.0,0.0,0.0,0.0,0.0,0.0,0.0,0.0,0.0,0.0,0.0,0.0,0.0,0.0,0.0,0.0,0.0,0.0,0.0,0.0,0.0,0.0,0.0,0.0,0.0,0.0,0.0,0.0,0.0,0.0,0.0,0.0,0.0,0.0,0.0,0.0,0.0,-3.6128,-3.4572,-3.1261,-2.74,-2.6622,0.0,0.0,0.0,-2.1689,-2.2468,-2.3282,-2.3762,0.0,-2.2136,-2.0976,0.0,0.0,0.0,-2.4856,-2.489,-2.7843,-3.0831,-3.1243,-3.1905,-3.2777,-3.3851,-3.3441,-3.325,-3.4341,-3.4545,-3.462,-3.4851,-3.4908,-3.4908,-3.4908,-3.4226,-3.3411,-3.2558,-3.1051,-3.0095,0.0,-3.0207,-2.9996,-2.9327,-2.9226,-2.9292,-2.9487,-3.0263,-3.1123,-3.1992,-3.1985,-3.2385,-3.3256,-3.1589,-3.1599,-3.3252,-3.2383,-3.2393,-3.3218,-3.3292,-3.3282,-3.3216,-3.3287,-3.2795,-3.1971,-3.2024,-3.1526,-3.0798,-3.1707,-3.2016,-3.1952,-3.1961,-3.143,-3.0691,0.0,0.0,0.0,0.0,0.0,0.0,0.0,0.0,0.0,0.0,0.0,0.0,0.0,0.0,0.0,0.0,0.0,0.0,0.0,0.0,0.0,0.0,0.0,0.0,0.0,0.0,0.0,0.0,0.0,0.0,0.0,0.0,0.0,0.0,0.0,0.0,0.0,0.0,0.0,0.0,0.0,0.0,-3.4907,-3.0923,-2.8526,-2.6734,0.0,0.0,0.0,0.0,0.0,0.0,-2.0984,0.0,0.0,-2.0624,0.0,0.0,0.0,0.0,-2.7597,-2.9326,-3.1572,-3.352,-3.4178,-3.4256,-3.4132,-3.39,-3.2194,-3.0691,-3.047,-3.0565,-3.088,-3.1479,-3.2994,-3.4093,-3.4093,-3.4414,-3.388,-3.1914,-3.1272,0.0,0.0,0.0,0.0,-3.0059,-3.0595,-3.075,-3.0373,-3.1185,-3.1802,-3.2092,-3.3153,-3.3866,-3.4155,-3.3579,-3.3576,-3.4146,-3.2691,-3.2156,-3.2432,-3.2466,-3.246,-3.2464,-3.3067,-3.2836,-3.2007,-3.2023,-3.1873,-3.1665,-3.1938,-3.2394,-3.2928,-3.2884,-3.2305,-3.1488,0.0,0.0,0.0,0.0,0.0,0.0,0.0,0.0,0.0,0.0,0.0,0.0,0.0,0.0,0.0,0.0,0.0,0.0,0.0,0.0,0.0,0.0,0.0,0.0,0.0,0.0,0.0,0.0,0.0,0.0,0.0,0.0,0.0,0.0,0.0,0.0,0.0,0.0,0.0,0.0,0.0,0.0,-3.0892,-2.7643,-2.5418,0.0,0.0,0.0,0.0,0.0,0.0,0.0,0.0,0.0,0.0,0.0,0.0,0.0,0.0,-2.7987,-3.0246,-3.2481,-3.4262,-3.5574,-3.5984,-3.5573,-3.485,-3.3895,-3.1568,-2.9352,-2.8214,-2.7897,-2.7991,-2.8495,-2.9978,-3.1465,-3.2634,-3.3083,-3.301,-3.2287,-3.202,-3.1577,0.0,0.0,0.0,-3.0506,-3.1863,-3.2295,-3.1283,-3.2361,-3.3022,-3.3022,-3.4046,-3.4756,-3.5057,-3.445,-3.4291,-3.4583,-3.3779,-3.3384,-3.3397,-3.3384,-3.3384,-3.3417,-3.3987,-3.3734,-3.293,-3.2924,-3.2772,-3.2569,-3.2817,-3.3295,-3.3816,-3.3788,-3.3412,-3.2761,0.0,0.0,0.0,0.0,0.0,0.0,0.0,0.0,0.0,0.0,0.0,0.0,0.0,0.0,0.0,0.0,0.0,0.0,0.0,0.0,0.0,0.0,0.0,0.0,0.0,0.0,0.0,0.0,0.0,0.0,0.0,0.0,0.0,0.0,0.0,0.0,0.0,0.0,0.0,0.0,0.0,0.0,-2.4663,-2.4708,0.0,0.0,0.0,0.0,0.0,0.0,0.0,0.0,0.0,0.0,0.0,0.0,0.0,-2.5821,-2.8306,-3.0643,-3.2759,-3.4335,-3.5874,-3.6919,-3.6638,-3.5842,-3.4871,-3.3771,-3.1423,-2.9139,0.0,0.0,-2.6115,-2.6292,-2.6486,-2.7728,-3.0871,-3.0712,-3.1129,0.0,0.0,0.0,0.0,0.0,0.0,-3.0719,0.0,-3.3673,-3.2144,-3.3731,-3.4686,-3.4698,-3.4676,-3.5054,-3.5889,-3.4258,-3.3843,-3.4681,-3.5455,-3.583,-3.583,-3.583,-3.583,-3.585,-3.5889,-3.5413,-3.4603,-3.4603,-3.4107,-3.345,-3.4285,-3.4622,-3.4661,-3.4661,-3.4631,-3.4364,0.0,0.0,0.0,0.0,0.0,0.0,0.0,0.0,0.0,0.0,0.0,0.0,0.0,0.0,0.0,0.0,0.0,0.0,0.0,0.0,0.0,0.0,0.0,0.0,0.0,0.0,0.0,0.0,0.0,0.0,0.0,0.0,0.0,0.0,0.0,0.0,0.0,0.0,0.0,0.0,0.0,0.0,-2.359,0.0,0.0,0.0,0.0,0.0,0.0,0.0,0.0,0.0,0.0,0.0,-2.2753,0.0,0.0,-2.8244,-3.0729,-3.3056,-3.5064,-3.6127,-3.6705,-3.6855,-3.6347,-3.4821,-3.3138,-3.1812,-2.8163,-2.5286,0.0,0.0,0.0,-2.7653,-2.9629,0.0,-3.2842,-3.3491,0.0,-3.2991,0.0,-3.3401,-3.2567,-3.3319,0.0,0.0,-3.3316,-3.324,-3.2973,-3.4024,-3.4639,-3.4623,-3.5244,-3.568,-3.5894,-3.5452,-3.5357,-3.5552,-3.5148,-3.4929,-3.494,-3.4931,-3.4929,-3.4979,-3.5613,-3.5413,-3.4603,-3.4603,-3.4464,-3.4285,-3.4503,-3.4998,-3.5572,-3.5572,-3.516,-3.4547,0.0,0.0,0.0,0.0,0.0,0.0,0.0,0.0,0.0,0.0,0.0,0.0,0.0,0.0,0.0,0.0,0.0,0.0,0.0,0.0,0.0,0.0,0.0,0.0,0.0,0.0,0.0,0.0,0.0,0.0,0.0,0.0,0.0,0.0,0.0,0.0,0.0,0.0,0.0,0.0,0.0,0.0,0.0,0.0,0.0,0.0,0.0,0.0,0.0,0.0,0.0,-2.3107,-2.3045,-2.4398,-2.6282,-2.7664,0.0,-3.1243,-3.3352,-3.5081,-3.6474,-3.7321,-3.7013,-3.615,-3.4893,-3.287,-3.075,-2.9017,-2.5627,0.0,-2.4169,0.0,0.0,0.0,0.0,0.0,-3.1762,-3.314,-3.4029,0.0,-3.5087,0.0,-3.504,-3.5523,-3.5872,0.0,-3.5146,-3.4768,-3.4922,-3.5425,-3.5897,-3.6304,-3.6419,-3.6465,-3.6462,-3.6095,-3.5903,-3.5889,-3.5402,-3.5165,-3.5176,-3.5165,-3.5165,-3.5196,0.0,-3.5613,-3.5176,-3.5176,-3.5176,-3.5176,-3.5176,-3.5474,-3.5908,-3.5908,-3.5591,-3.5176,0.0,0.0,0.0,0.0,0.0,0.0,0.0,0.0,0.0,0.0,0.0,0.0,0.0,0.0,0.0,0.0,0.0,0.0,0.0,0.0,0.0,0.0,0.0,0.0,0.0,0.0,0.0,0.0,0.0,0.0,0.0,0.0,0.0,0.0,0.0,0.0,0.0,0.0,0.0,0.0,0.0,0.0,0.0,0.0,0.0,0.0,0.0,0.0,0.0,0.0,-2.2966,-2.5397,-2.571,-2.7855,-3.032,-3.0839,-3.2378,-3.4298,-3.6,-3.6817,-3.7337,-3.8028,-3.6906,-3.506,-3.286,-3.0482,-2.8146,-2.5997,0.0,-2.2374,-2.3617,-2.2503,-2.2135,-2.4339,0.0,-2.6771,-2.9978,-3.183,-3.3697,-3.6053,-3.7161,-3.7745,-3.7811,-3.7936,-3.8046,-3.8161,-3.7585,-3.7202,-3.7141,-3.7222,-3.7634,-3.8465,-3.7649,-3.7266,-3.7372,-3.6501,-3.6072,-3.6064,-3.5967,-3.5908,-3.5908,-3.5908,-3.5908,-3.5908,-3.5908,-3.5908,-3.5908,-3.5908,-3.5908,-3.5908,-3.5908,-3.5908,-3.5908,-3.5908,-3.5908,-3.5906,0.0,0.0,0.0,0.0,0.0,0.0,0.0,0.0,0.0,0.0,-1.8495,0.0,0.0,0.0,0.0,0.0,0.0,0.0,0.0,0.0,0.0,0.0,0.0,0.0,0.0,0.0,0.0,0.0,0.0,0.0,0.0,0.0,0.0,0.0,0.0,0.0,0.0,0.0,0.0,0.0,0.0,0.0,0.0,0.0,0.0,0.0,0.0,0.0,0.0,0.0,-2.2883,-2.6459,-2.8451,-2.9924,-3.1469,-3.4246,-3.5323,-3.607,-3.8303,-3.849,-3.8092,-3.8189,-3.649,-3.4065,-3.1193,-2.8727,0.0,0.0,-2.2264,-2.1906,-2.5002,-2.4155,-2.452,-2.9153,0.0,0.0,0.0,0.0,-3.5098,0.0,0.0,0.0,0.0,0.0,0.0,0.0,0.0,-3.8607,-3.7939,-3.8035,-3.8228,-3.8493,-3.7647,-3.7553,-3.8268,-3.7414,-3.6977,-3.696,-3.624,-3.5908,-3.5908,-3.5908,-3.5908,-3.5908,-3.5908,0.0,-3.5908,-3.5908,-3.5908,-3.5908,-3.5908,-3.5908,-3.5908,-3.5908,-3.5903,-3.5894,0.0,0.0,0.0,0.0,0.0,0.0,0.0,0.0,0.0,-1.966,-1.9429,-1.908,0.0,0.0,0.0,0.0,0.0,0.0,0.0,0.0,0.0,0.0,0.0,0.0,0.0,0.0,0.0,0.0,0.0,0.0,0.0,0.0,0.0,0.0,0.0,0.0,0.0,0.0,0.0,0.0,0.0,0.0,0.0,0.0,0.0,0.0,0.0,0.0,0.0,0.0,-2.2267,-2.5488,-2.8324,-3.0693,-3.2794,-3.4819,-3.6267,-3.7537,-3.9088,-3.92,-3.875,-3.8299,-3.5747,-3.2672,-3.0027,0.0,0.0,0.0,-2.1181,-2.1082,-2.4522,0.0,0.0,0.0,0.0,0.0,0.0,0.0,0.0,0.0,0.0,0.0,0.0,0.0,0.0,0.0,0.0,-3.9786,-3.9463,-3.9607,-3.9533,-3.9199,-3.8766,-3.8533,-3.8497,-3.7648,-3.6977,-3.652,-3.61,-3.5908,-3.5908,-3.5908,-3.5908,-3.5908,-3.5908,0.0,-3.5908,-3.5908,-3.5908,-3.5908,-3.5908,-3.5908,-3.5908,-3.5908,-3.6198,-3.6582,0.0,0.0,0.0,0.0,0.0,0.0,0.0,-1.9391,-1.9785,-2.0734,-2.0334,-1.9695,-1.9064,-1.8959,-1.8949,0.0,0.0,0.0,0.0,0.0,0.0,0.0,0.0,0.0,0.0,0.0,0.0,0.0,0.0,0.0,0.0,0.0,0.0,0.0,0.0,0.0,0.0,0.0,0.0,0.0,0.0,0.0,0.0,0.0,0.0,0.0,0.0,0.0,0.0,0.0,-2.1255,-2.3503,-2.6391,-2.9844,-3.3063,-3.4389,-3.6334,-3.8343,-3.9618,-3.9693,-3.9206,-3.8374,-3.5134,-3.1524,-2.9058,-2.5517,0.0,0.0,-2.0523,-2.057,-2.3586,0.0,0.0,0.0,0.0,0.0,0.0,0.0,0.0,0.0,0.0,0.0,0.0,0.0,0.0,0.0,0.0,0.0,-4.0687,-4.0689,-4.0494,-4.0069,-3.988,-3.9558,-3.906,-3.8196,-3.7406,-3.6729,-3.6546,-3.6356,-3.6181,-3.6181,-3.6084,-3.5908,-3.5908,0.0,0.0,-3.5908,-3.5908,-3.5928,-3.6103,-3.6181,-3.6201,-3.6395,-3.688,-3.7484,0.0,0.0,0.0,0.0,0.0,0.0,0.0,-1.9545,-1.9949,-2.0944,-2.0487,-2.0053,-1.9991,-1.9443,-1.9078,0.0,0.0,0.0,0.0,0.0,0.0,0.0,0.0,0.0,0.0,0.0,0.0,0.0,0.0,0.0,0.0,0.0,0.0,0.0,0.0,0.0,0.0,0.0,0.0,0.0,0.0,0.0,0.0,0.0,0.0,0.0,0.0,0.0,0.0,0.0,0.0,-2.0767,-2.2581,-2.6408,-3.0841,-3.3829,0.0,0.0,-4.0709,-4.0474,-3.9171,-3.8252,-3.5038,-3.1295,-2.8243,0.0,0.0,-2.0919,-2.0503,-2.0991,-2.2947,0.0,0.0,0.0,0.0,0.0,0.0,0.0,0.0,0.0,0.0,0.0,0.0,0.0,0.0,0.0,0.0,0.0,-4.0687,-4.0012,-4.0021,-4.086,-4.0184,-4.0138,-4.0857,-4.0009,-3.9527,-3.9432,-3.8636,-3.7857,-3.7077,-3.7077,-3.6649,-3.5908,-3.5908,0.0,0.0,-3.5908,-3.5908,-3.5986,-3.6766,-3.7077,-3.7175,-3.7974,-3.8315,-3.8384,0.0,0.0,0.0,0.0,0.0,0.0,0.0,-1.9839,-2.0521,-2.1556,-2.1487,-2.1414,-2.1526,-2.0406,-1.9506,0.0,0.0,0.0,0.0,0.0,0.0,0.0,0.0,0.0,0.0,0.0,0.0,0.0,0.0,0.0,0.0,0.0,0.0,0.0,0.0,0.0,0.0,0.0,0.0,0.0,0.0,0.0,0.0,0.0,0.0,0.0,0.0,0.0,0.0,0.0,0.0,0.0,-2.0246,-2.2472,0.0,0.0,-3.3234,-3.5559,-3.8734,-3.9496,-3.9062,-3.7621,-3.4315,-3.0821,-2.8679,0.0,-2.2571,-2.2099,-2.163,-2.1654,-2.2862,0.0,0.0,0.0,0.0,0.0,0.0,0.0,0.0,0.0,0.0,0.0,0.0,0.0,0.0,0.0,0.0,0.0,-4.0586,-4.0391,-4.0492,-4.099,-4.0728,-4.0506,-4.0318,-3.9969,-3.9531,-3.9001,-3.8127,-3.7544,-3.7181,-3.6665,-3.6506,-3.6682,-3.6682,0.0,0.0,-3.7467,-3.7467,-3.7506,-3.7857,-3.7974,-3.8013,-3.8363,-3.8828,-3.927,0.0,0.0,0.0,0.0,0.0,-1.8452,-1.9271,-2.0038,-2.0883,-2.1914,-2.1934,-2.1996,-2.2407,-2.0797,-1.9615,-1.9477,0.0,0.0,0.0,0.0,0.0,0.0,0.0,0.0,0.0,0.0,0.0,0.0,0.0,0.0,0.0,0.0,0.0,0.0,0.0,0.0,0.0,0.0,0.0,0.0,0.0,0.0,0.0,0.0,0.0,0.0,0.0,0.0,0.0,0.0,0.0,0.0,0.0,0.0,0.0,0.0,-3.0423,-3.3339,-3.6327,-3.7867,-3.8231,-3.6584,-3.3156,-2.9854,0.0,0.0,-2.2462,-2.2859,-2.2511,-2.2335,-2.2904,0.0,0.0,0.0,0.0,0.0,0.0,0.0,0.0,0.0,0.0,0.0,0.0,0.0,0.0,0.0,0.0,0.0,-4.0496,-4.069,-4.0842,-4.0937,-4.1037,-4.0806,-4.0188,-4.0175,-3.9876,-3.9251,-3.8646,-3.8222,-3.7958,-3.7323,-3.724,-3.7571,-3.7571,0.0,0.0,-3.8494,-3.8494,-3.8533,-3.8787,-3.8728,-3.8533,-3.8787,-3.9274,-3.9797,0.0,0.0,0.0,0.0,0.0,0.0,0.0,-2.0072,-2.0906,-2.1796,-2.1379,-2.1327,-2.2217,-2.0276,-1.9281,-2.0201,0.0,0.0,0.0,0.0,0.0,0.0,0.0,0.0,0.0,0.0,-1.9095,-1.9095,-1.9902,0.0,0.0,0.0,0.0,0.0,0.0,0.0,0.0,0.0,0.0,0.0,0.0,0.0,0.0,0.0,0.0,0.0,0.0,0.0,0.0,0.0,0.0,0.0,0.0,0.0,0.0,0.0,-2.79,-3.1546,-3.3991,-3.5702,-3.6497,-3.5072,-3.1536,-2.8291,0.0,0.0,-2.1752,-2.2618,-2.2895,-2.2988,-2.3006,0.0,0.0,0.0,0.0,0.0,0.0,0.0,0.0,0.0,0.0,0.0,0.0,0.0,0.0,0.0,0.0,0.0,-4.0496,-4.069,-4.081,-4.0791,-4.1006,-4.1094,-4.1094,-4.1094,-4.1087,-4.1074,-4.1054,-4.0606,-3.977,-3.977,-3.9282,-3.8482,0.0,0.0,0.0,-3.8502,-3.8502,-3.858,-3.9457,-3.9262,-3.8599,-3.9477,-3.9789,-3.9809,0.0,0.0,0.0,0.0,0.0,0.0,0.0,-2.0301,-2.1481,-2.1251,-2.1639,-2.2075,-2.2389,-2.0779,-1.9775,-2.0073,0.0,0.0,0.0,0.0,0.0,0.0,0.0,0.0,0.0,0.0,-1.9391,-1.9999,-1.9645,-1.9935,-2.0797,-2.0463,0.0,0.0,0.0,0.0,0.0,0.0,0.0,0.0,0.0,0.0,0.0,0.0,0.0,0.0,0.0,0.0,0.0,0.0,0.0,0.0,0.0,0.0,0.0,0.0,0.0,0.0,-2.9029,-3.0441,-3.1016,-2.9979,-2.7869,-2.6037,-2.5925,0.0,-2.259,-2.3563,-2.3804,-2.3814,-2.3823,0.0,0.0,0.0,0.0,0.0,0.0,0.0,0.0,0.0,0.0,0.0,0.0,0.0,0.0,0.0,0.0,0.0,-4.0527,-4.1271,-4.1427,-4.083,-4.0998,-4.1104,-4.1104,-4.1104,-4.1103,-4.1099,-4.0506,-4.0077,-3.9772,-3.9179,-3.9097,0.0,0.0,0.0,0.0,-4.0274,-4.0274,-4.0294,-4.0586,-4.0528,-4.0313,-4.0586,-4.0684,-4.0684,0.0,0.0,0.0,0.0,0.0,0.0,0.0,-2.0771,-2.1814,-2.1412,-2.191,-2.2343,-2.2478,-2.1041,-2.018,-2.0541,0.0,0.0,0.0,0.0,0.0,0.0,0.0,0.0,0.0,-1.9102,-1.9363,-1.9907,-1.9671,-1.9942,-2.0687,-2.0444,-2.0335,-2.0325,0.0,0.0,0.0,0.0,0.0,0.0,0.0,0.0,-2.0031,0.0,0.0,0.0,0.0,0.0,0.0,0.0,0.0,0.0,0.0,0.0,0.0,0.0,0.0,0.0,0.0,-2.7339,-2.8033,-2.7288,-2.6061,0.0,0.0,0.0,-2.2939,-2.3573,-2.373,-2.3832,-2.4136,0.0,0.0,0.0,0.0,0.0,0.0,0.0,0.0,0.0,0.0,0.0,0.0,0.0,0.0,0.0,0.0,0.0,-4.0527,-4.1213,-4.1369,-4.083,-4.0998,-4.1103,-4.1103,-4.1103,-4.1103,-4.1083,-4.0555,-4.0283,-4.0268,-3.9737,-3.9772,0.0,0.0,0.0,0.0,-4.1109,-4.1109,-4.107,-4.0736,-4.0619,-4.0561,-4.0268,-4.0563,-4.1051,0.0,0.0,0.0,0.0,0.0,0.0,0.0,0.0,0.0,0.0,-2.2093,-2.2187,-2.2446,-2.1087,-2.0533,0.0,0.0,0.0,0.0,0.0,0.0,0.0,0.0,0.0,-1.9087,-1.9141,-1.9185,-1.9198,-1.9935,-1.997,-1.9393,-2.0077,-2.0432,-2.0457,-1.9641,-1.9689,-2.038,-2.0328,-2.0282,-2.0335,-2.1014,-2.0886,0.0,0.0,0.0,0.0,0.0,0.0,0.0,0.0,0.0,0.0,0.0,0.0,0.0,0.0,0.0,0.0,0.0,0.0,0.0,0.0,0.0,0.0,0.0,0.0,0.0,0.0,0.0,0.0,0.0,0.0,0.0,0.0,0.0,0.0,0.0,0.0,0.0,0.0,0.0,0.0,0.0,0.0,0.0,0.0,0.0,0.0,-4.0473,-4.0666,-4.0752,-4.0699,-4.0821,-4.0951,-4.1094,-4.1094,-4.1094,-4.1094,-4.1104,-4.1108,-4.1109,-4.1109,-4.1109,0.0,0.0,0.0,0.0,-4.1109,-4.1109,-4.1012,-4.021,-3.9897,-3.9819,-3.9118,-3.986,-4.109,0.0,0.0,0.0,0.0,0.0,0.0,0.0,0.0,0.0,0.0,-2.207,-2.2115,-2.2189,-2.1447,-2.1038,0.0,0.0,0.0,0.0,0.0,0.0,0.0,0.0,0.0,-1.9027,-1.9685,-2.0028,-2.0018,-2.0217,-2.0578,-2.1094,-2.056,-2.0715,-2.1377,-2.1124,-2.1098,-2.1216,-2.1252,-2.1551,-2.2026,-2.2201,-2.2134,0.0,0.0,0.0,0.0,-1.9002,-1.8779,0.0,0.0,0.0,0.0,0.0,0.0,0.0,0.0,-2.183,0.0,0.0,0.0,0.0,0.0,0.0,0.0,0.0,0.0,0.0,0.0,0.0,0.0,0.0,0.0,0.0,0.0,0.0,0.0,0.0,0.0,0.0,0.0,0.0,0.0,0.0,0.0,0.0,0.0,0.0,-4.0845,-4.0289,-4.0408,-4.0256,-3.9743,-3.9189,-3.9611,-4.1094,-4.1094,-4.1094,-4.1094,-4.1095,-4.1101,-4.1109,-4.1109,-4.1109,0.0,0.0,0.0,-4.1109,-4.1109,-4.1109,-4.109,-4.0875,-4.0797,-4.0855,-4.1322,-4.1752,-4.2064,0.0,0.0,0.0,0.0,0.0,0.0,0.0,0.0,0.0,0.0,0.0,0.0,0.0,0.0,0.0,0.0,0.0,0.0,0.0,0.0,0.0,0.0,0.0,-1.9424,-1.9045,-1.9866,-2.0119,-1.9754,-2.0143,-2.0432,-2.059,-2.0081,-2.0518,-2.1751,-2.2063,-2.1954,-2.1543,-2.1543,-2.197,-2.2638,-2.2612,0.0,0.0,0.0,0.0,0.0,-2.0096,-1.9972,0.0,-1.9642,-1.9533,-1.9569,0.0,0.0,0.0,0.0,-2.2338,0.0,0.0,0.0,0.0,0.0,0.0,0.0,0.0,0.0,0.0,0.0,0.0,0.0,0.0,0.0,0.0,0.0,0.0,0.0,0.0,0.0,0.0,0.0,0.0,0.0,0.0,0.0,0.0,0.0,0.0,-4.0403,-3.9699,-3.9712,-3.9451,-3.8812,-3.8447,-3.879,-3.9892,-3.9886,-3.9864,-3.9864,-3.9867,-3.9853,-3.988,-4.0274,-4.0476,0.0,0.0,0.0,-4.1109,-4.1109,-4.1109,-4.1069,-4.0654,-4.075,-4.1101,-4.1175,-4.172,-4.2403,0.0,0.0,0.0,0.0,0.0,0.0,0.0,0.0,0.0,0.0,0.0,0.0,0.0,0.0,0.0,0.0,0.0,0.0,0.0,0.0,0.0,0.0,0.0,-1.9839,-1.9278,-2.0065,-2.0146,-1.9462,-2.0215,-2.0185,-1.9465,-1.9332,-2.0181,-2.1831,-2.2575,-2.2483,-2.179,-2.1725,-2.2016,-2.2515,-2.2578,0.0,0.0,0.0,0.0,0.0,0.0,0.0,0.0,-2.0545,-2.0291,-2.02,-1.9706,0.0,0.0,0.0,0.0,0.0,0.0,0.0,0.0,0.0,0.0,0.0,0.0,0.0,0.0,0.0,0.0,0.0,0.0,0.0,0.0,0.0,0.0,0.0,0.0,0.0,0.0,0.0,0.0,0.0,0.0,0.0,0.0,0.0,0.0,-3.9353,-3.8794,-3.8631,-3.8343,-3.7854,-3.7845,-3.7901,-3.8068,-3.8305,-3.8426,-3.8422,-3.8413,-3.8416,-3.8436,-3.9328,-3.9739,-3.9841,0.0,0.0,-4.1109,-4.1108,-4.1106,-4.1028,-4.0294,-4.0446,-4.1031,-4.0418,-4.1135,-4.2444,0.0,0.0,0.0,0.0,0.0,0.0,0.0,0.0,0.0,0.0,0.0,0.0,0.0,0.0,0.0,0.0,0.0,0.0,0.0,0.0,0.0,-2.2536,-2.0382,-1.9452,-2.0011,-2.087,-2.1252,-2.1134,-2.127,-2.0943,-2.022,-1.9527,-2.0142,-2.1831,-2.2575,-2.2785,-2.2629,-2.2601,-2.2254,-2.1743,-2.2355,0.0,0.0,0.0,0.0,0.0,0.0,0.0,0.0,-2.0527,-2.0255,-2.0327,-2.0944,0.0,0.0,0.0,0.0,0.0,-2.3053,-2.2709,0.0,0.0,0.0,0.0,0.0,0.0,0.0,0.0,0.0,0.0,0.0,0.0,0.0,0.0,0.0,0.0,0.0,0.0,0.0,0.0,0.0,0.0,0.0,0.0,0.0,0.0,0.0,-3.7757,-3.7656,-3.6995,-3.6642,-3.6651,-3.6089,-3.5855,-3.6047,-3.767,-3.8472,-3.848,-3.8483,-3.8473,-3.8512,-3.9384,-3.978,-3.9843,0.0,-4.1106,-4.1108,-4.1099,-4.1095,-4.1095,-4.0947,-4.0979,-4.1174,-4.1779,-4.2169,-4.26,0.0,0.0,0.0,0.0,0.0,0.0,0.0,0.0,0.0,0.0,0.0,0.0,0.0,0.0,0.0,0.0,0.0,0.0,0.0,0.0,0.0,-2.1926,-2.0896,-2.0517,-2.0897,-2.1723,-2.1715,-2.0862,-2.1361,-2.0987,-1.9825,-2.0343,-2.1001,-2.1769,-2.2529,-2.2821,-2.2775,-2.23,-2.2135,-2.2236,0.0,0.0,0.0,0.0,0.0,0.0,0.0,0.0,0.0,0.0,-2.1671,-2.1616,-2.1607,0.0,0.0,0.0,0.0,0.0,-2.3319,-2.2711,-2.2447,0.0,0.0,0.0,0.0,0.0,0.0,0.0,0.0,0.0,0.0,0.0,0.0,0.0,0.0,0.0,0.0,0.0,0.0,0.0,0.0,0.0,0.0,0.0,0.0,0.0,0.0,0.0,-3.6713,-3.6345,-3.6027,-3.5766,-3.5453,-3.5399,-3.5607,-3.6552,-3.7043,-3.7037,-3.7043,-3.704,-3.707,-3.7942,-3.8603,-3.9087,0.0,-4.0398,-4.0409,-4.0405,-4.0403,-4.04,-4.0408,-4.0696,-4.1142,-4.1543,-4.2295,-4.3146,0.0,0.0,0.0,0.0,0.0,0.0,0.0,0.0,0.0,0.0,0.0,0.0,0.0,0.0,0.0,0.0,0.0,0.0,0.0,0.0,-2.1983,-2.1704,-2.1504,-2.144,-2.1505,-2.2116,-2.1944,-2.0916,-2.1233,-2.0682,-1.9327,-2.0779,-2.1457,-2.1468,-2.2401,-2.2702,-2.2492,-2.2008,-2.1971,-2.2264,0.0,0.0,0.0,0.0,0.0,0.0,0.0,0.0,0.0,0.0,0.0,0.0,0.0,0.0,0.0,0.0,-2.243,-2.2546,-2.3178,-2.2585,-2.2175,0.0,0.0,-2.2309,-2.2988,0.0,0.0,0.0,0.0,0.0,0.0,0.0,0.0,0.0,0.0,0.0,0.0,0.0,0.0,0.0,0.0,0.0,0.0,0.0,0.0,0.0,0.0,0.0,-3.6127,-3.5918,-3.5609,-3.5134,-3.5207,-3.5331,-3.5491,-3.5611,-3.5725,-3.5814,-3.585,-3.5833,-3.5846,-3.6724,-3.7605,-3.8471,-3.9399,-3.9925,-4.0099,-4.0096,-4.0096,-4.0094,-4.0101,-4.0505,-4.1109,-4.1094,-4.2064,-4.3312,0.0,0.0,0.0,0.0,0.0,0.0,0.0,0.0,0.0,0.0,0.0,0.0,0.0,0.0,0.0,0.0,0.0,0.0,0.0,0.0,-2.241,-2.3118,-2.1846,-2.1247,-2.1497,-2.1625,-2.2018,-2.2721,-2.1214,-2.0072,-1.9327,-2.0109,-2.0519,-2.0653,-2.22,-2.2447,-2.1735,-2.2419,-2.189,-2.0706,-2.2209,0.0,0.0,0.0,0.0,0.0,0.0,0.0,0.0,0.0,0.0,0.0,0.0,0.0,0.0,0.0,0.0,-2.1595,-2.1661,-2.2122,-2.2473,-2.1897,0.0,0.0,-2.6817,-2.7464,0.0,0.0,0.0,0.0,0.0,0.0,0.0,0.0,0.0,0.0,0.0,0.0,0.0,0.0,0.0,0.0,0.0,0.0,0.0,0.0,0.0,0.0,-3.607,-3.539,-3.4965,-3.4927,-3.5047,-3.5155,-3.5218,-3.5302,-3.5512,-3.5886,-3.597,-3.5948,-3.5922,-3.6799,-3.7664,-3.8541,-3.9411,-4.0255,-4.1015,-4.1005,-4.102,-4.1017,-4.1,-4.1033,-4.1091,-4.111,-4.1656,-4.252,0.0,0.0,0.0,0.0,0.0,0.0,0.0,0.0,0.0,0.0,0.0,0.0,0.0,0.0,0.0,0.0,0.0,0.0,0.0,-2.2286,-2.2107,-2.2418,-2.2052,-2.1913,-2.2062,-2.1635,-2.1566,-2.1894,-2.0807,-1.9856,-1.9087,-2.0355,-2.0951,-2.0978,-2.2178,-2.2532,-2.2248,-2.2683,-2.2502,-2.2054,-2.3207,-2.3452,0.0,0.0,0.0,0.0,0.0,0.0,0.0,0.0,0.0,0.0,0.0,0.0,0.0,0.0,0.0,-2.0853,-2.137,-2.1723,-2.2248,-2.344,0.0,0.0,0.0,0.0,0.0,0.0,0.0,0.0,0.0,0.0,0.0,0.0,0.0,0.0,0.0,0.0,0.0,0.0,0.0,0.0,0.0,0.0,0.0,0.0,0.0,0.0,-3.5351,-3.4547,-3.4349,-3.4889,-3.4489,-3.4579,-3.5189,-3.5261,-3.5411,-3.5587,-3.5706,-3.5783,-3.584,-3.619,-3.7099,-3.8465,-3.878,-3.9454,-4.0248,-3.9719,-3.9483,-3.9541,-4.0078,-4.062,-4.1107,-4.1107,-4.1643,-4.2412,0.0,0.0,0.0,0.0,0.0,0.0,0.0,0.0,0.0,0.0,0.0,0.0,0.0,0.0,0.0,0.0,0.0,0.0,-2.2699,-2.2148,-2.18,-2.1807,-2.1531,-2.1533,-2.1839,-2.0878,-2.0694,-2.1306,-2.0281,-1.9615,-1.9309,-2.0406,-2.0909,-2.0917,-2.1838,-2.2285,-2.2348,-2.2757,-2.2914,-2.2987,-2.385,-2.3986,0.0,0.0,0.0,0.0,0.0,0.0,0.0,0.0,0.0,0.0,0.0,0.0,0.0,0.0,0.0,0.0,-2.0934,-2.1315,-2.1958,0.0,0.0,0.0,0.0,0.0,0.0,0.0,0.0,0.0,0.0,0.0,0.0,0.0,0.0,0.0,0.0,0.0,0.0,0.0,0.0,0.0,0.0,0.0,0.0,0.0,0.0,0.0,0.0,-3.3819,-3.3469,-3.4056,-3.3865,-3.4048,-3.4686,-3.5005,-3.5237,-3.5335,-3.5412,-3.5524,-3.5684,-3.5758,-3.6576,-3.789,-3.7969,-3.8516,-3.9309,-3.8715,-3.8481,-3.8569,-3.9429,-4.0137,-4.0685,-4.0964,-4.1464,-4.2022,0.0,0.0,0.0,0.0,0.0,0.0,0.0,0.0,0.0,0.0,0.0,0.0,0.0,0.0,0.0,0.0,0.0,0.0,-2.2699,-2.2009,-2.1608,-2.1608,-2.02,-1.9801,-2.0604,-1.9168,-1.9379,-2.1278,-1.9704,-1.9327,-2.0108,-2.0108,-2.0137,-2.0228,-2.1107,-2.158,-2.177,-2.2639,-2.2969,-2.2987,-2.385,-2.3647,-2.2912,0.0,0.0,0.0,0.0,0.0,0.0,0.0,0.0,0.0,0.0,0.0,0.0,0.0,-1.9095,-1.9285,-2.0153,-2.0934,0.0,0.0,0.0,0.0,0.0,0.0,0.0,0.0,0.0,0.0,0.0,0.0,0.0,0.0,0.0,0.0,0.0,0.0,0.0,0.0,0.0,0.0,0.0,0.0,0.0,0.0,0.0,0.0,0.0,-3.3223,-3.2289,-3.2298,-3.3129,-3.3583,-3.3601,-3.4444,-3.4991,-3.5182,-3.5122,-3.5205,-3.5419,-3.5679,-3.6149,-3.6804,-3.7016,-3.7592,-3.8399,-3.8397,-3.8393,-3.8497,-3.9345,-3.9696,-3.9816,-4.0671,-4.1036,-4.1205,0.0,0.0,0.0,0.0,0.0,0.0,0.0,0.0,0.0,0.0,0.0,0.0,0.0,0.0,0.0,0.0,0.0,0.0,-2.2699,-2.2009,-2.1646,-2.1744,-2.1365,-2.1284,-2.1581,-2.1166,-2.0688,-2.0169,-2.0271,-2.0137,-1.9841,-2.0353,-2.0594,-2.0661,-2.1582,-2.2388,-2.3061,-2.3402,-2.3621,-2.3756,-2.3964,-2.3928,-2.3745,0.0,0.0,0.0,0.0,0.0,0.0,0.0,0.0,0.0,0.0,0.0,0.0,0.0,-1.9094,-1.9282,-2.0118,0.0,0.0,0.0,0.0,0.0,0.0,0.0,0.0,0.0,0.0,0.0,0.0,0.0,0.0,0.0,0.0,0.0,0.0,0.0,0.0,0.0,0.0,0.0,0.0,0.0,0.0,0.0,0.0,0.0,0.0,-3.2071,-3.1731,-3.2343,-3.2031,-3.2136,-3.2741,-3.3014,-3.3421,-3.3999,-3.4179,-3.4622,-3.5328,-3.5359,-3.5828,-3.6586,-3.6646,-3.7241,-3.8141,-3.7674,-3.7844,-3.8427,-3.8633,-3.9462,-4.0587,-4.0827,-4.0943,-4.0991,0.0,0.0,0.0,0.0,0.0,0.0,0.0,0.0,0.0,0.0,0.0,0.0,0.0,0.0,0.0,0.0,0.0,0.0,0.0,-2.2358,-2.2014,-2.1805,-2.1836,-2.1744,-2.1499,-2.1504,-2.1217,-2.0609,-2.0787,-2.0611,-2.0146,-2.0286,-2.0389,-2.0453,-2.0699,-2.1511,-2.2693,-2.278,-2.3234,-2.3896,-2.3865,-2.3896,-2.3986,0.0,0.0,0.0,0.0,0.0,0.0,0.0,0.0,0.0,0.0,0.0,0.0,-1.9104,-1.9547,-2.0154,-2.0635,0.0,0.0,0.0,0.0,0.0,0.0,0.0,0.0,0.0,0.0,0.0,0.0,0.0,0.0,0.0,0.0,0.0,0.0,0.0,0.0,0.0,0.0,0.0,0.0,0.0,0.0,0.0,0.0,-3.1996,-3.1882,-3.1024,-3.0798,-3.1341,-3.1539,-3.1709,-3.188,-3.2901,-3.345,-3.3582,-3.4082,-3.457,-3.5096,-3.5168,-3.5433,-3.5867,-3.5913,-3.633,-3.6916,-3.656,-3.6725,-3.7263,-3.7931,-3.8864,-3.9946,-4.0557,-4.0829,-4.0906,0.0,0.0,0.0,0.0,0.0,0.0,0.0,0.0,0.0,0.0,0.0,0.0,0.0,0.0,0.0,0.0,0.0,0.0,0.0,0.0,-2.2558,-2.1835,-2.18,-2.154,-2.0934,-2.0984,-2.1375,-2.2095,-2.1235,-2.0807,-2.0789,-2.0111,-1.9832,-1.9858,-1.9193,-1.9823,-2.1375,-2.1456,-2.2311,-2.3599,-2.3628,-2.3692,-2.3806,-2.3806,0.0,0.0,0.0,0.0,0.0,0.0,0.0,0.0,0.0,0.0,0.0,-1.9104,-2.0228,-2.1514,0.0,0.0,0.0,0.0,0.0,0.0,0.0,0.0,0.0,0.0,0.0,0.0,0.0,0.0,0.0,0.0,0.0,0.0,0.0,0.0,0.0,0.0,0.0,0.0,0.0,0.0,0.0,-3.4519,-3.1694,-3.029,-3.1062,-3.0366,-2.997,-3.0024,-3.1569,-3.1974,-3.1114,-3.3479,-3.4301,-3.3582,-3.4396,-3.4782,-3.4798,-3.5062,-3.506,-3.487,-3.5024,-3.5111,-3.5178,-3.5324,-3.5474,-3.5769,-3.7355,-3.8189,-3.8656,-4.0076,-4.0715,-4.0887,0.0,0.0,0.0,0.0,0.0,0.0,0.0,0.0,0.0,0.0,0.0,0.0,0.0,0.0,0.0,0.0,0.0,0.0,0.0,0.0,-2.2583,-2.1912,-2.1919,-2.2153,-2.2569,-2.2598,-2.2698,-2.2861,-2.1481,-2.0807,-2.0807,-2.0638,-2.0273,-1.9766,-2.0164,-2.0944,-2.1985,-2.2703,-2.3271,-2.3682,-2.3742,-2.3806,-2.3876,-2.3816,-2.3816,0.0,0.0,0.0,0.0,0.0,0.0,0.0,0.0,-2.0263,-1.9099,-1.9104,-2.0236,-2.1642,0.0,-2.42,0.0,0.0,0.0,0.0,0.0,0.0,0.0,0.0,0.0,0.0,0.0,0.0,0.0,0.0,0.0,0.0,0.0,0.0,0.0,0.0,0.0,0.0,0.0,0.0,-3.3876,-3.2041,-3.1862,-3.1607,-3.1134,-3.1569,-3.1824,-3.1841,-3.2199,-3.1982,-3.1114,-3.2316,-3.2808,-3.2524,-3.3431,-3.4177,-3.4737,-3.484,-3.4801,-3.4668,-3.487,-3.4944,-3.4962,-3.5106,-3.5978,-3.7244,-3.7686,-3.8708,-3.9992,-4.0373,-4.0622,-4.0736,0.0,0.0,0.0,0.0,0.0,0.0,0.0,0.0,0.0,0.0,0.0,0.0,0.0,0.0,0.0,0.0,0.0,0.0,0.0,0.0,-2.2845,-2.2492,-2.251,-2.2516,-2.2485,-2.2497,-2.2497,-2.2485,-2.1704,-2.1159,-2.0807,-2.1182,-2.0778,-1.9731,-2.0462,-2.1268,-2.2082,-2.2564,-2.3028,-2.3411,-2.3445,-2.3565,-2.3703,-2.3682,-2.3718,-2.3806,-2.3806,0.0,0.0,0.0,0.0,0.0,0.0,0.0,-1.9102,-1.9104,-2.0517,-2.2239,0.0,0.0,0.0,0.0,0.0,0.0,0.0,0.0,0.0,0.0,0.0,0.0,0.0,0.0,0.0,0.0,0.0,0.0,0.0,0.0,0.0,0.0,0.0,0.0,0.0,-3.4235,-3.3138,-3.1823,-3.2117,-3.2165,-3.1738,-3.2145,-3.24,-3.2409,-3.2408,-3.2162,-3.1674,-3.2506,-3.2694,-3.226,-3.3553,-3.4384,-3.4788,-3.4768,-3.4706,-3.4612,-3.471,-3.4761,-3.4762,-3.4971,-3.5827,-3.7083,-3.7564,-3.8594,-3.9865,-4.0238,-4.045,-4.0589,0.0,0.0,0.0,0.0,0.0,0.0,0.0,0.0,0.0,0.0,0.0,0.0,0.0,0.0,0.0,0.0,0.0,0.0,0.0,0.0,0.0,-2.307,-2.293,-2.2595,-2.1998,-2.1912,-2.1924,-2.201,-2.2076,0.0,0.0,0.0,-2.1252,-1.9917,-2.0673,-2.1375,-2.2008,-2.2154,-2.2576,-2.3144,-2.3168,-2.3301,-2.3505,-2.3505,-2.3594,-2.3724,-2.358,-2.3655,-2.3756,-2.3611,0.0,0.0,0.0,0.0,-1.9276,-1.915,-2.0717,-2.2681,0.0,0.0,0.0,0.0,0.0,0.0,0.0,0.0,0.0,0.0,0.0,0.0,0.0,0.0,0.0,0.0,0.0,0.0,0.0,0.0,0.0,0.0,0.0,0.0,0.0,-3.308,-3.2561,-3.2419,-3.2496,-3.2572,-3.2627,-3.2627,-3.2618,-3.2627,-3.2474,-3.2381,-3.2317,-3.3109,-3.3156,-3.2515,-3.4071,-3.4838,-3.4887,-3.4778,-3.4687,-3.4604,-3.4465,-3.4502,-3.4636,-3.4879,-3.5579,-3.6577,-3.7374,-3.8365,-3.9432,-4.0002,-4.0347,-4.0496,0.0,0.0,0.0,0.0,0.0,0.0,0.0,0.0,0.0,0.0,0.0,0.0,0.0,0.0,0.0,0.0,0.0,0.0,0.0,0.0,0.0,-2.2932,-2.2263,-2.2163,-2.2745,-2.2138,-2.2145,-2.285,0.0,0.0,0.0,0.0,0.0,-2.069,0.0,-2.1902,-2.2043,-2.2817,-2.3171,-2.3289,-2.3395,-2.3471,-2.3505,-2.3505,-2.3528,-2.3455,-2.2751,-2.3024,-2.3613,-2.2911,-2.262,0.0,0.0,0.0,0.0,-1.9313,-2.0318,-2.1966,0.0,0.0,0.0,0.0,0.0,0.0,0.0,0.0,0.0,0.0,0.0,0.0,0.0,0.0,0.0,0.0,0.0,0.0,0.0,0.0,0.0,0.0,0.0,0.0,-3.3723,-3.36,-3.3212,-3.2454,-3.3089,-3.3525,-3.3534,-3.3534,-3.3534,-3.3534,-3.2795,-3.2399,-3.2392,-3.3129,-3.3419,-3.3275,-3.4297,-3.4838,-3.4897,-3.4877,-3.4817,-3.4649,-3.3956,-3.4089,-3.4778,-3.4879,-3.5837,-3.7279,-3.7519,-3.8575,-4.0005,-4.0206,-4.0379,-4.0481,0.0,0.0,0.0,0.0,0.0,0.0,0.0,0.0,0.0,0.0,0.0,0.0,0.0,0.0,0.0,0.0,0.0,0.0,0.0,0.0,0.0,-2.2906,-2.2563,-2.2325,-2.2238,-2.2399,-2.2424,-2.2337,0.0,0.0,0.0,-2.2979,-2.2435,0.0,0.0,0.0,0.0,0.0,-2.3193,-2.3193,-2.3253,-2.3313,0.0,-2.2898,-2.2816,-2.2826,-2.1989,-2.198,-2.2304,-2.1893,-2.1508,-2.1135,-2.0822,0.0,0.0,0.0,0.0,0.0,0.0,0.0,0.0,0.0,0.0,0.0,0.0,0.0,0.0,0.0,0.0,0.0,0.0,0.0,0.0,0.0,0.0,0.0,0.0,0.0,0.0,0.0,0.0,0.0,-3.3076,-3.3402,-3.3497,-3.3145,-3.3895,-3.4368,-3.4377,-3.4377,-3.4159,-3.3658,-3.2824,-3.2589,-3.3006,-3.2402,-3.2552,-3.3453,-3.3872,-3.4327,-3.4829,-3.4415,-3.4415,-3.4742,-3.4384,-3.4471,-3.4869,-3.4889,-3.5932,-3.7519,-3.7585,-3.868,-4.0225,-4.0291,-4.0346,-4.037,0.0,0.0,0.0,0.0,0.0,0.0,0.0,0.0,0.0,0.0,0.0,0.0,0.0,0.0,0.0,0.0,0.0,0.0,0.0,0.0,0.0,0.0,0.0,-2.2369,-2.1992,-2.2427,-2.2481,0.0,0.0,0.0,-2.4519,-2.3495,-2.3268,0.0,-2.327,0.0,0.0,0.0,0.0,0.0,0.0,0.0,0.0,0.0,-2.2484,-2.2546,-2.1701,-2.1603,-2.1803,-2.133,-2.0964,-2.0619,-2.0254,0.0,0.0,0.0,0.0,0.0,0.0,0.0,0.0,0.0,0.0,0.0,0.0,0.0,0.0,0.0,0.0,0.0,0.0,0.0,0.0,0.0,0.0,0.0,0.0,0.0,0.0,0.0,0.0,0.0,-3.2553,-3.3355,-3.3961,-3.3998,-3.4396,-3.4624,-3.4623,-3.4215,-3.378,-3.3336,-3.2539,-3.2465,-3.3213,-3.2166,-3.2383,-3.3843,-3.3599,-3.3968,-3.48,-3.38,-3.3876,-3.4793,-3.4594,-3.4661,-3.4908,-3.4908,-3.5837,-3.7262,-3.7519,-3.8556,-3.9948,-4.0215,-4.0291,-4.0253,0.0,0.0,0.0,0.0,0.0,0.0,0.0,0.0,0.0,0.0,0.0,0.0,0.0,0.0,0.0,0.0,0.0,0.0,0.0,0.0,0.0,0.0,0.0,0.0,-2.2734,-2.2096,0.0,0.0,0.0,0.0,-2.5115,-2.3615,-2.3689,-2.5042,-2.3692,-2.3107,-2.3107,0.0,0.0,0.0,0.0,0.0,0.0,0.0,0.0,0.0,0.0,-2.2558,-2.316,-2.1625,-2.1752,-2.2291,0.0,0.0,0.0,0.0,0.0,0.0,0.0,0.0,0.0,0.0,0.0,0.0,0.0,0.0,0.0,0.0,0.0,0.0,0.0,0.0,0.0,0.0,0.0,0.0,0.0,0.0,0.0,0.0,0.0,-3.3354,-3.2482,-3.3884,-3.4832,-3.4832,-3.4234,-3.3862,-3.3862,-3.2349,-3.1817,-3.2524,-3.1792,-3.1703,-3.2458,-3.3053,-3.3865,-3.4831,-3.3921,-3.3988,-3.4831,-3.3148,-3.3261,-3.4755,-3.4065,-3.4188,-3.4908,-3.4908,-3.5448,-3.6359,-3.7262,-3.8118,-3.8985,-3.9948,-4.0225,-4.0127,0.0,0.0,0.0,0.0,0.0,0.0,0.0,0.0,0.0,0.0,0.0,0.0,0.0,-2.5233,-2.4873,-2.3957,-2.3474,0.0,0.0,0.0,0.0,0.0,0.0,0.0,0.0,0.0,0.0,0.0,0.0,-2.3345,-2.4278,-2.3376,-2.3541,-2.4514,-2.3454,-2.3033,-2.3107,-2.3107,0.0,0.0,0.0,0.0,0.0,0.0,0.0,0.0,0.0,0.0,0.0,0.0,0.0,0.0,0.0,0.0,0.0,0.0,0.0,0.0,0.0,0.0,0.0,0.0,0.0,0.0,0.0,0.0,0.0,0.0,0.0,0.0,0.0,0.0,0.0,0.0,0.0,0.0,0.0,0.0,0.0,0.0,0.0,-3.3418,-3.2545,-3.3056,-3.3415,-3.3415,-3.3185,-3.3014,-3.2969,-3.2433,-3.1988,-3.1674,-3.1927,-3.2186,-3.24,-3.3724,-3.4252,-3.3995,-3.4231,-3.4202,-3.3944,-3.3921,-3.3932,-3.3988,-3.4272,-3.4585,-3.4908,-3.4859,-3.5683,-3.6992,-3.7294,-3.8273,-3.9558,-3.9912,-4.0057,-4.0117,0.0,0.0,0.0,0.0,0.0,0.0,0.0,0.0,0.0,0.0,0.0,0.0,0.0,0.0,-2.5239,-2.4543,-2.4049,-2.3964,-2.4361,0.0,0.0,0.0,0.0,0.0,0.0,0.0,0.0,0.0,0.0,0.0,0.0,-2.325,-2.3409,-2.4147,-2.2989,-2.2708,0.0,0.0,0.0,-2.3132,0.0,0.0,-2.3119,0.0,0.0,0.0,0.0,0.0,0.0,0.0,0.0,0.0,0.0,0.0,0.0,0.0,0.0,0.0,0.0,0.0,0.0,0.0,0.0,0.0,0.0,0.0,0.0,0.0,0.0,0.0,0.0,0.0,0.0,0.0,0.0,0.0,0.0,0.0,0.0,0.0,0.0,-3.2949,-3.1773,-3.2224,-3.2602,-3.2602,-3.2352,0.0,-3.2093,-3.1879,-3.1711,-3.1636,-3.191,-3.2443,-3.3223,-3.3781,-3.4027,-3.3977,-3.4261,-3.4212,-3.3896,-3.394,-3.4091,-3.4314,-3.4343,-3.4554,-3.4869,-3.4769,-3.56,-3.6927,-3.7198,-3.8175,-3.9478,-3.9775,-3.9922,-3.9975,0.0,0.0,0.0,0.0,0.0,0.0,0.0,0.0,0.0,-2.5044,0.0,0.0,0.0,0.0,0.0,-2.4311,-2.4369,-2.443,-2.4447,-2.4569,0.0,0.0,0.0,0.0,0.0,0.0,0.0,0.0,0.0,0.0,0.0,0.0,-2.3323,-2.4038,-2.2352,-2.2171,-2.3157,0.0,-2.314,-2.3193,0.0,-2.3119,-2.3154,0.0,0.0,0.0,-2.4892,-2.5162,0.0,-2.4123,0.0,0.0,0.0,0.0,0.0,0.0,0.0,0.0,0.0,0.0,0.0,0.0,0.0,0.0,0.0,0.0,0.0,0.0,0.0,0.0,0.0,0.0,0.0,0.0,0.0,0.0,0.0,0.0,0.0,0.0,0.0,-3.1825,-3.0166,-3.1502,-3.2488,-3.2534,-3.1794,-3.1337,-3.1271,-3.051,-3.0826,-3.24,-3.1636,-3.2387,-3.4832,-3.3259,-3.3278,-3.4889,-3.4037,-3.4074,-3.4793,-3.3129,-3.3627,-3.573,-3.4198,-3.4021,-3.4788,-3.4674,-3.5146,-3.6021,-3.6963,-3.7818,-3.8648,-3.9572,-3.9804,-3.9717,0.0,0.0,0.0,0.0,0.0,0.0,0.0,0.0,0.0,0.0,0.0,0.0,-2.5995,-2.5477,-2.526,-2.5626,-2.5196,-2.5129,-2.5679,-2.573,-2.543,-2.4712,-2.4695,-2.4328,0.0,0.0,0.0,0.0,0.0,0.0,0.0,0.0,0.0,0.0,-2.1713,-2.1764,-2.2141,-2.1558,0.0,0.0,-2.3139,-2.3625,0.0,0.0,0.0,0.0,0.0,-2.6818,-2.5934,0.0,-2.4766,-2.2786,0.0,0.0,0.0,0.0,0.0,0.0,-2.0586,0.0,0.0,0.0,0.0,0.0,0.0,0.0,0.0,0.0,0.0,0.0,0.0,0.0,0.0,0.0,0.0,0.0,0.0,0.0,0.0,0.0,0.0,0.0,-3.0061,-2.9977,-3.0197,0.0,-3.0612,-3.0449,-3.0438,-3.0136,-3.0465,-3.1602,-3.1351,-3.2122,-3.4017,-3.3562,-3.3866,-3.4898,-3.4651,-3.4301,-3.3884,-3.4044,-3.4118,-3.4173,-3.4312,-3.449,-3.4764,-3.531,-3.6028,-3.6847,-3.769,-3.8548,-3.9331,-3.958,-3.9684,-3.9705,0.0,0.0,0.0,0.0,0.0,0.0,0.0,0.0,0.0,0.0,0.0,0.0,-2.6382,-2.5963,-2.5844,-2.6207,-2.5842,-2.5775,-2.6169,-2.6202,-2.5871,-2.5143,-2.5145,-2.4813,-2.405,0.0,0.0,0.0,0.0,0.0,0.0,0.0,0.0,0.0,0.0,0.0,0.0,0.0,0.0,0.0,-2.3445,0.0,0.0,-2.6634,-2.7538,0.0,0.0,0.0,-2.8011,-2.8188,-2.6693,0.0,0.0,0.0,0.0,0.0,0.0,0.0,0.0,0.0,0.0,0.0,0.0,0.0,-2.1142,-2.2257,-2.3619,0.0,0.0,0.0,0.0,0.0,0.0,0.0,0.0,0.0,0.0,0.0,0.0,0.0,0.0,0.0,-2.9036,-2.9289,-2.9648,-3.0166,-3.015,-3.0079,-3.0053,-2.9956,-3.033,-3.1235,-3.0861,-3.164,-3.3676,-3.3335,-3.3554,-3.4358,-3.4727,-3.4424,-3.3572,-3.4433,-3.4734,-3.4552,-3.4682,-3.4923,-3.5257,-3.6058,-3.6678,-3.7185,-3.8,-3.8826,-3.9589,-3.9589,-3.9619,-3.9661,0.0,0.0,0.0,0.0,0.0,0.0,0.0,0.0,0.0,0.0,-2.6502,-2.6502,-2.6468,-2.645,-2.6381,-2.6242,-2.6225,-2.6206,-2.6185,-2.6168,-2.5904,-2.526,-2.5346,-2.5096,-2.4445,0.0,0.0,0.0,0.0,0.0,0.0,0.0,0.0,0.0,0.0,0.0,0.0,0.0,0.0,-2.3263,-2.3981,-2.4905,0.0,0.0,-2.8948,-3.0825,-3.0262,-3.0373,-3.0686,-2.9953,-2.8483,0.0,0.0,0.0,0.0,0.0,-2.2853,0.0,0.0,0.0,0.0,0.0,0.0,0.0,-2.2118,-2.3071,-2.4077,-2.5516,-2.6486,0.0,0.0,0.0,0.0,0.0,0.0,0.0,0.0,0.0,0.0,0.0,0.0,0.0,-2.7799,-2.9138,-3.0109,-3.0185,-3.015,-3.0072,-2.9996,-2.9948,-3.0265,-3.1033,-3.0416,-3.1193,-3.3533,-3.2889,-3.2957,-3.3772,-3.4529,-3.4482,-3.3762,-3.4548,-3.5266,-3.5845,-3.5203,-3.5254,-3.5833,-3.6828,-3.7185,-3.7185,-3.8094,-3.8913,-3.9614,-3.9614,-3.9626,-3.9657,0.0,0.0,0.0,0.0,0.0,0.0,0.0,0.0,0.0,-2.6606,-2.6589,-2.6503,-2.6277,-2.6152,-2.5992,-2.5754,-2.5735,-2.5828,-2.6026,-2.6045,-2.605,-2.606,-2.6079,-2.6011,-2.5808,-2.5245,0.0,0.0,0.0,0.0,0.0,0.0,0.0,0.0,0.0,0.0,0.0,0.0,0.0,-2.3924,-2.4962,0.0,-2.6941,-2.9445,-3.0314,-3.0267,-3.0823,-3.0631,-3.0064,-2.9919,-2.9038,-2.783,0.0,0.0,0.0,-2.487,0.0,0.0,0.0,0.0,0.0,0.0,0.0,0.0,-2.0998,-2.1886,-2.3002,0.0,-2.3987,0.0,0.0,0.0,0.0,0.0,0.0,0.0,0.0,0.0,0.0,0.0,0.0,0.0,-2.8515,-2.892,-2.945,-3.0147,-3.015,-3.0072,-2.9996,-2.9999,-3.0032,-3.0143,-3.0715,-3.1575,-3.2724,-3.3264,-3.392,-3.4727,-3.4851,-3.4804,-3.4643,-3.4832,-3.4993,-3.5132,-3.5572,-3.5445,-3.5109,-3.7254,-3.7739,-3.7242,-3.8763,-3.9481,-3.9689,-3.9689,-3.9781,-4.0006,0.0,0.0,0.0,0.0,0.0,0.0,0.0,0.0,0.0,-2.6208,-2.6013,-2.5831,-2.5762,-2.6078,-2.6241,-2.61,-2.6099,-2.6152,-2.624,-2.6258,-2.6293,-2.6399,-2.6014,-2.5963,-2.6345,-2.5229,-2.4647,0.0,0.0,0.0,0.0,0.0,0.0,0.0,0.0,0.0,0.0,0.0,-2.2054,-2.3119,-2.5195,0.0,-2.8398,-3.0717,-3.1679,-3.1841,-3.2296,-3.2173,-3.1719,-3.1211,-3.0686,0.0,0.0,-2.7504,-2.7136,0.0,-2.5231,-2.5009,0.0,0.0,0.0,-2.4302,0.0,0.0,0.0,-2.2714,-2.3404,-2.3819,-2.4161,0.0,0.0,0.0,0.0,0.0,0.0,0.0,0.0,0.0,0.0,0.0,0.0,0.0,-2.8745,-2.9222,-2.9677,-3.0118,-3.0116,-3.0079,-3.0046,-3.0426,-3.0638,-3.0595,-3.1475,-3.2319,-3.3137,-3.3574,-3.4002,-3.4403,-3.4821,-3.4746,-3.432,-3.4746,-3.4927,-3.4906,-3.5292,-3.5402,-3.5474,-3.7159,-3.7826,-3.7924,-3.918,-3.9674,-3.9703,-3.9661,-3.9708,-3.9853,0.0,0.0,0.0,0.0,0.0,0.0,0.0,0.0,0.0,-2.5834,-2.5569,-2.5394,-2.5577,-2.6248,-2.6736,0.0,-2.67,-2.6633,-2.6668,-2.6534,-2.6468,-2.652,-2.5899,-2.5782,-2.6267,-2.5046,-2.4628,0.0,0.0,0.0,0.0,0.0,0.0,0.0,0.0,0.0,0.0,0.0,0.0,-2.2923,0.0,-2.7408,-2.876,-3.0787,-3.2093,-3.2903,-3.3254,-3.3437,-3.3328,-3.2506,-3.2109,-3.1568,-2.9386,-2.9042,0.0,0.0,0.0,0.0,0.0,0.0,0.0,0.0,0.0,-2.3958,0.0,0.0,0.0,0.0,0.0,0.0,0.0,0.0,0.0,0.0,0.0,0.0,0.0,0.0,0.0,0.0,0.0,0.0,-2.8938,-2.9654,-3.0094,-3.0094,-3.0254,-3.0285,-3.0122,-3.1016,-3.1473,-3.1313,-3.2311,-3.3168,-3.3815,-3.3987,-3.4065,-3.4086,-3.476,-3.4706,-3.3979,-3.4679,-3.4965,-3.4916,-3.5228,-3.5594,-3.6082,-3.7289,-3.8074,-3.8603,-3.9402,-3.9698,-3.971,-3.9662,-3.9756,-3.9943,-2.5201,-2.5359,0.0,0.0,0.0,0.0,0.0,0.0,0.0,-2.5899,-2.6015,-2.6214,0.0,0.0,0.0,0.0,0.0,0.0,-2.726,0.0,0.0,-2.6589,-2.6505,-2.6135,-2.5447,-2.5263,-2.4895,0.0,0.0,0.0,0.0,0.0,0.0,0.0,-2.2268,0.0,0.0,0.0,-2.4625,0.0,-2.7324,-2.6952,0.0,-2.8788,-3.0043,-3.0381,-3.2093,-3.2637,-3.2525,0.0,-3.1774,-3.0988,0.0,-3.0032,-2.933,-2.8959,0.0,0.0,0.0,0.0,0.0,0.0,-2.5313,0.0,0.0,0.0,-2.2884,-2.3028,0.0,0.0,0.0,0.0,0.0,0.0,0.0,0.0,0.0,0.0,0.0,0.0,0.0,0.0,-2.9584,-2.9891,-3.0102,-3.0102,-3.0826,-3.0921,-3.0141,-3.16,-3.2095,-3.1313,-3.2888,-3.3808,-3.3895,-3.4639,-3.5039,-3.5039,-3.5072,-3.5009,-3.4859,-3.4944,-3.4965,-3.4992,-3.6409,-3.6633,-3.6176,-3.8542,-3.9161,-3.8669,-3.9422,-3.9743,-3.9781,-3.977,-4.0344,-4.1203,0.0,0.0,0.0,0.0,0.0,0.0,0.0,0.0,0.0,-2.4269,-2.4659,0.0,0.0,0.0,0.0,0.0,0.0,-2.7893,0.0,0.0,0.0,0.0,-2.5916,-2.5279,-2.5413,-2.4155,-2.3536,-2.3622,-2.3296,0.0,0.0,0.0,0.0,0.0,-2.2678,0.0,-2.3488,0.0,-2.5351,0.0,0.0,0.0,0.0,-2.9115,-3.0166,-3.0523,-3.1874,-3.2024,-3.1738,0.0,-3.2525,0.0,0.0,0.0,0.0,0.0,0.0,0.0,0.0,0.0,0.0,0.0,0.0,0.0,-2.4248,0.0,-2.3474,0.0,0.0,0.0,0.0,0.0,0.0,0.0,0.0,0.0,0.0,0.0,0.0,0.0,0.0,0.0,-2.8126,-2.9265,-2.9975,-2.9983,-3.0864,-3.1444,-3.1546,-3.2737,-3.323,-3.287,-3.4031,-3.465,-3.465,-3.5024,-3.5196,-3.5196,-3.516,-3.5145,-3.512,-3.5596,-3.5522,-3.5116,-3.6709,-3.7201,-3.7001,-3.8525,-3.9234,-3.9386,-3.9701,-3.9804,-3.9792,-3.9758,-4.0015,-4.0496,0.0,0.0,0.0,0.0,0.0,0.0,0.0,0.0,0.0,0.0,0.0,0.0,-2.4914,-2.6553,0.0,0.0,-2.8901,-2.9349,0.0,0.0,-2.7957,0.0,0.0,0.0,0.0,0.0,-2.3182,0.0,0.0,0.0,0.0,0.0,0.0,0.0,0.0,-2.3479,-2.3867,0.0,0.0,-2.6669,-2.7198,-2.7621,-2.8096,-2.949,-3.0505,-3.1275,-3.197,-3.1785,-3.146,-3.2736,-3.2764,0.0,-3.2329,0.0,0.0,0.0,0.0,0.0,-2.8724,0.0,0.0,0.0,0.0,0.0,0.0,0.0,0.0,0.0,0.0,0.0,0.0,0.0,0.0,0.0,0.0,0.0,0.0,0.0,0.0,0.0,0.0,0.0,0.0,-2.8395,-2.9298,-2.9786,-3.075,-3.158,-3.2213,-3.3565,-3.4227,-3.4014,-3.4789,-3.5209,-3.5209,-3.5209,-3.5209,-3.5209,-3.5209,-3.5318,-3.5543,-3.6126,-3.6184,-3.5854,-3.7243,-3.785,-3.7926,-3.871,-3.938,-3.99,-3.99,-3.9878,-3.9815,-3.9747,-4.0021,-4.05,-2.3683,-2.4492,0.0,0.0,0.0,0.0,0.0,0.0,0.0,0.0,0.0,0.0,0.0,0.0,0.0,0.0,0.0,-3.1269,-3.076,0.0,-2.8929,0.0,0.0,-2.6434,0.0,0.0,0.0,0.0,0.0,0.0,0.0,0.0,0.0,0.0,0.0,-2.3663,-2.4389,-2.5916,-2.7011,-2.7824,-2.8477,-2.8856,-2.9075,0.0,-3.051,-3.2162,-3.218,0.0,0.0,-3.2028,-3.2028,0.0,0.0,0.0,0.0,0.0,0.0,0.0,0.0,0.0,0.0,-2.8466,0.0,0.0,0.0,0.0,-2.6945,0.0,0.0,0.0,0.0,0.0,0.0,0.0,0.0,0.0,0.0,0.0,0.0,0.0,0.0,0.0,0.0,-2.7485,-2.7782,-2.9476,-3.0535,-3.1185,-3.1324,-3.3772,-3.4806,-3.4025,-3.4789,-3.5209,-3.5209,-3.5209,-3.5209,-3.5209,-3.5209,-3.5605,-3.6354,-3.6392,-3.6813,-3.7557,-3.8393,-3.8762,-3.8819,-3.9562,-3.9881,-3.99,-3.99,-3.99,-3.9889,-3.9815,-4.0825,-4.2224,0.0,0.0,0.0,0.0,0.0,0.0,0.0,-2.5661,0.0,0.0,0.0,0.0,0.0,-2.996,-3.104,0.0,0.0,-3.2857,-3.2109,-3.1352,0.0,0.0,0.0,-2.7829,0.0,0.0,0.0,0.0,0.0,0.0,0.0,0.0,0.0,0.0,0.0,-2.4069,0.0,0.0,0.0,0.0,0.0,-3.0404,-3.0587,0.0,-2.9817,-3.0807,-3.1304,-3.1271,0.0,-3.2349,-3.2394,-3.2115,-3.2788,-3.2513,-3.1959,-3.208,-3.1463,0.0,0.0,0.0,-2.9309,-2.8501,0.0,0.0,0.0,0.0,0.0,0.0,0.0,0.0,0.0,0.0,0.0,0.0,0.0,0.0,0.0,0.0,0.0,0.0,0.0,0.0,0.0,0.0,0.0,-2.8567,-2.9617,-3.0976,-3.2781,-3.3773,-3.4431,-3.4789,-3.5057,-3.5469,-3.6042,-3.6061,-3.6328,-3.6852,-3.6852,-3.6997,-3.7285,-3.7857,-3.7944,-3.7744,-3.9118,-3.9404,-3.8928,-3.9715,-4.0015,-4.0022,-4.0591,-4.0455,-3.9976,-4.0522,-4.1067,-4.1668,-2.2015,0.0,0.0,0.0,0.0,0.0,0.0,0.0,0.0,0.0,-2.8959,0.0,-3.0197,0.0,-3.2723,0.0,-3.3584,-3.413,-3.2785,-3.2497,0.0,-3.1378,-2.9921,0.0,0.0,0.0,0.0,0.0,0.0,-2.36,0.0,0.0,0.0,0.0,0.0,0.0,-2.4591,0.0,-2.7827,0.0,0.0,-3.0905,0.0,0.0,-2.9987,-3.0642,0.0,-3.1572,-3.1525,-3.2652,-3.2717,-3.2439,-3.3097,-3.282,-3.2298,-3.2454,-3.2112,-3.1672,-3.1672,-3.106,0.0,-2.9814,-2.9026,0.0,-2.8115,0.0,0.0,0.0,0.0,0.0,0.0,0.0,0.0,0.0,0.0,0.0,0.0,-2.4556,0.0,0.0,0.0,0.0,0.0,0.0,-2.665,-2.766,-2.8334,-2.9898,0.0,-3.3106,-3.3983,-3.5516,-3.5607,-3.6052,-3.692,-3.692,-3.7196,-3.7693,-3.7693,-3.7865,-3.8171,-3.8744,-3.8858,-3.8686,-3.9738,-3.9872,-3.9414,-4.0232,-4.0523,-4.0547,-4.1402,-4.135,-4.0866,-4.1416,-4.1802,-4.2222,0.0,0.0,0.0,0.0,-2.3917,0.0,0.0,0.0,-2.8417,0.0,-3.0765,-3.236,-3.2541,-3.3889,-3.4479,-3.3716,-3.5126,-3.5155,-3.2967,-3.3458,0.0,0.0,-3.0671,-3.0029,-2.8641,0.0,0.0,0.0,0.0,0.0,0.0,0.0,0.0,0.0,-2.3799,0.0,-2.4407,-2.521,-2.6945,-2.9263,-3.0489,-3.0421,-2.9662,-3.0277,-3.0919,-3.1593,-3.2503,-3.2818,-3.2834,-3.285,-3.2868,-3.29,-3.3039,-3.3086,-3.3117,-3.3319,-3.3378,-3.3396,-3.3396,-3.2799,-3.2184,-3.2184,-3.1578,0.0,0.0,0.0,-3.224,0.0,0.0,0.0,0.0,0.0,0.0,0.0,0.0,0.0,0.0,0.0,0.0,0.0,0.0,0.0,0.0,-2.5189,-2.5664,-2.6748,-2.686,0.0,0.0,-3.1872,-3.3553,-3.6122,-3.632,-3.6838,-3.775,-3.775,-3.7789,-3.7827,-3.7827,-3.8266,-3.9069,-3.9069,-3.9499,-4.0301,-4.0234,-4.0215,-4.03,-4.108,-4.139,-4.144,-4.2256,-4.2545,-4.2515,-4.2477,-4.3019,-4.3872,-2.1864,-2.2032,-2.2617,0.0,-2.4673,-2.59,0.0,0.0,0.0,0.0,-3.367,-3.5185,-3.6261,-3.6933,-3.6934,-3.6116,-3.6597,0.0,0.0,0.0,0.0,-3.3806,-3.3243,-3.2575,-3.1765,-3.0589,0.0,-2.6809,0.0,0.0,-2.4,0.0,0.0,0.0,0.0,0.0,-2.5179,-2.5916,-2.7131,-2.8579,-2.9163,-2.9416,-2.955,0.0,-3.0907,-3.1096,-3.1438,-3.1751,-3.2039,-3.2352,-3.2454,-3.2505,-3.285,-3.2963,-3.2963,-3.3011,-3.3104,-3.318,-3.318,-3.2556,-3.193,-3.2039,-3.1416,-3.0801,0.0,0.0,0.0,0.0,0.0,0.0,0.0,0.0,0.0,0.0,0.0,0.0,0.0,0.0,0.0,0.0,0.0,0.0,-2.5234,-2.5218,-2.5434,-2.5834,-2.6419,0.0,0.0,0.0,-3.3362,-3.6112,-3.6236,-3.7042,-3.8648,-3.8667,-3.8992,-3.9642,-3.9642,-3.9747,-3.9957,-3.9957,-4.0053,-4.0215,-4.0206,-4.0509,-4.1021,-4.1239,-4.1673,-4.2275,-4.313,-4.3798,-4.4194,-4.3587,-4.3891,-4.4642,-2.1939,0.0,0.0,-2.449,0.0,0.0,-2.8842,-2.9936,0.0,-3.358,-3.5292,0.0,-3.7498,-3.8066,-3.806,-3.7236,-3.6962,0.0,-3.4612,0.0,0.0,-3.4419,-3.4005,-3.3504,-3.2818,-3.1672,0.0,-2.7356,0.0,0.0,-2.4481,0.0,0.0,0.0,0.0,-2.5179,0.0,-2.6674,-2.769,-2.849,-2.9145,-2.9431,0.0,-3.0415,-3.082,-3.0999,-3.1087,-3.1567,-3.2266,-3.2488,-3.2573,-3.2606,-3.2836,-3.29,-3.29,-3.29,-3.3198,-3.353,-3.353,-3.349,-3.3447,-3.3512,-3.3201,-3.2949,-3.3227,-3.3198,-3.3217,0.0,-3.3031,-3.237,0.0,0.0,0.0,0.0,0.0,0.0,0.0,0.0,0.0,0.0,-2.8112,0.0,-2.6304,-2.619,-2.6173,-2.5954,-2.636,0.0,0.0,0.0,-3.3262,-3.6035,-3.7251,-3.8404,-3.9556,-3.9881,-4.0129,-4.0301,-4.0301,-4.0473,-4.0826,-4.0826,-4.0998,-4.1341,-4.1341,-4.157,-4.1968,-4.233,-4.2707,-4.3144,-4.3961,-4.4533,-4.4857,-4.4383,-4.4516,-4.4914,0.0,0.0,0.0,0.0,0.0,0.0,0.0,-3.0663,0.0,-3.4529,0.0,-3.7635,-3.7795,-3.8338,-3.843,-3.7727,0.0,-3.5645,-3.4268,-3.4629,-3.4641,-3.3995,-3.3962,-3.3541,-3.2718,-3.2192,-3.0397,0.0,0.0,0.0,0.0,0.0,0.0,0.0,0.0,0.0,0.0,-2.7267,-2.8197,-2.8559,-2.9681,-2.9921,-2.9669,-3.0327,-3.0801,-3.1103,-3.1162,-3.1842,-3.2753,-3.2802,-3.2818,-3.2836,-3.2884,-3.29,-3.2918,-3.3025,-3.3544,-3.4133,-3.4222,-3.484,-3.5458,-3.5458,-3.5571,-3.5847,-3.6535,-3.5614,-3.485,-3.5605,-3.4522,-3.3481,0.0,0.0,0.0,0.0,0.0,0.0,0.0,0.0,0.0,0.0,0.0,0.0,0.0,-2.7774,-2.7323,-2.6838,0.0,0.0,0.0,0.0,-3.3644,-3.6276,-3.8616,-4.003,-4.0444,-4.0978,-4.1036,-4.0616,-4.0511,-4.0883,-4.1667,-4.1667,-4.2087,-4.2784,-4.2784,-4.286,-4.3003,-4.3699,-4.3971,-4.4026,-4.4683,-4.4938,-4.4938,-4.4938,-4.4938,-4.4919,0.0,0.0,0.0,0.0,0.0,-2.8427,-3.2987,-3.414,-3.5037,-3.6687,-3.8746,-4.018,-4.0483,-3.9761,-3.9063,-3.8606,-3.7215,0.0,0.0,0.0,0.0,-3.4882,-3.4788,-3.4071,-3.2735,-3.2586,-3.0833,0.0,0.0,0.0,0.0,0.0,0.0,0.0,0.0,0.0,-2.6163,-2.7173,0.0,-2.7821,-2.9156,-2.9649,-2.9692,-3.0636,-3.1044,-3.1142,-3.1471,-3.1732,-3.195,-3.2283,-3.2403,-3.2454,-3.2804,-3.29,-3.3025,-3.3705,-3.399,-3.424,-3.483,-3.5131,-3.5238,-3.5238,-3.539,-3.5544,-3.5501,-3.5424,-3.5361,-3.5522,-3.5307,-3.4925,-3.4431,0.0,0.0,0.0,0.0,0.0,0.0,0.0,0.0,0.0,0.0,0.0,0.0,0.0,0.0,0.0,0.0,0.0,0.0,0.0,-3.5855,0.0,-3.8733,0.0,0.0,0.0,-4.1093,-4.2265,-4.1609,-4.1743,-4.2565,-4.2565,-4.2621,-4.2725,-4.2725,-4.3094,-4.3708,-4.386,-4.4287,-4.4893,-4.5004,-4.5049,-4.5049,-4.5049,-4.5049,-4.5068,0.0,0.0,0.0,0.0,0.0,0.0,0.0,-3.5401,-3.66,-3.7498,-3.7992,-3.832,-3.8472,-3.8221,-3.7984,-3.7776,-3.6629,-3.5786,-3.5417,-3.5222,-3.5088,-3.5088,-3.4605,-3.3806,-3.2735,-3.2332,-3.0725,-2.7862,0.0,0.0,0.0,0.0,0.0,0.0,0.0,-2.6673,0.0,0.0,0.0,-2.9087,-2.9436,-2.9782,-3.0128,-3.0586,-3.1157,-3.1718,-3.2166,-3.2707,-3.3118,-3.2494,-3.2301,-3.244,-3.3251,-3.3508,-3.3669,-3.4454,-3.4972,-3.5364,-3.5739,-3.6131,-3.6435,-3.6435,-3.6523,-3.6558,-3.647,-3.6201,-3.5967,-3.5967,-3.5966,-3.6051,-3.6335,-3.5624,0.0,0.0,0.0,0.0,0.0,0.0,0.0,0.0,0.0,0.0,0.0,0.0,0.0,0.0,0.0,0.0,-3.3969,0.0,-3.6691,0.0,0.0,0.0,-4.1456,0.0,-4.2362,-4.2754,-4.2364,-4.2603,-4.3414,-4.3414,-4.3663,-4.4043,-4.4043,-4.4281,-4.463,-4.4598,-4.4797,-4.5148,-4.5114,-4.5103,-4.5103,-4.5103,-4.5103,-4.5103,0.0,-2.724,0.0,0.0,-3.1244,0.0,-3.4191,-3.586,-3.7252,-3.7937,-3.7336,-3.6746,-3.6481,-3.6783,-3.6922,-3.6719,-3.5935,-3.5469,-3.5537,-3.5314,-3.5175,-3.5135,-3.4452,-3.3653,-3.2718,-3.2133,-3.0775,0.0,0.0,0.0,0.0,0.0,0.0,0.0,0.0,0.0,0.0,0.0,-2.9287,-3.0725,-3.0393,-3.0576,-3.1011,-3.0974,-3.1533,-3.2411,-3.2778,-3.347,-3.4086,-3.3034,-3.2792,-3.3071,-3.4033,-3.433,-3.449,-3.5222,-3.5899,-3.6435,-3.6613,-3.7131,-3.7595,-3.7595,-3.7595,-3.7595,-3.7595,-3.7095,-3.6649,-3.6649,-3.6649,-3.6951,-3.7925,-3.7301,0.0,0.0,0.0,0.0,0.0,0.0,0.0,0.0,0.0,0.0,-3.171,0.0,0.0,0.0,0.0,-3.2632,-3.4962,-3.6516,-3.7652,0.0,0.0,-4.2235,-4.2,0.0,-4.3564,-4.3309,-4.3128,-4.3482,-4.4274,-4.4274,-4.4647,-4.5307,-4.5307,-4.5307,-4.5297,-4.5235,-4.5213,-4.5213,-4.5159,-4.5148,-4.5148,-4.5148,-4.5148,-4.5148,0.0,0.0,0.0,0.0,0.0,0.0,-3.5268,-3.6222,-3.7211,-3.8526,-3.9193,-3.9122,-3.8112,-3.7755,-3.7305,-3.652,-3.5756,-3.5406,-3.5577,-3.552,-3.5423,-3.5291,-3.5085,-3.4253,-3.2735,-3.2636,-3.152,0.0,0.0,-2.7512,0.0,0.0,0.0,0.0,0.0,0.0,0.0,-3.0957,-3.1321,-3.1548,-3.2171,-3.2519,-3.2673,-3.2547,-3.2641,-3.2839,-3.2866,-3.2981,-3.3165,-3.3793,-3.4443,-3.4956,-3.5062,-3.5114,-3.524,-3.6042,-3.6345,-3.656,-3.7291,-3.7541,-3.7595,-3.7595,-3.7595,-3.7595,-3.7595,-3.7541,-3.7488,-3.7488,-3.7488,-3.7614,-3.8016,-3.791,-3.7732,0.0,0.0,0.0,0.0,0.0,0.0,0.0,0.0,0.0,0.0,-3.3248,0.0,0.0,-3.357,-3.509,-3.8439,-3.9126,-3.9898,-4.0904,-4.1319,-4.2186,-4.3564,-4.3144,-4.3604,-4.4974,-4.4234,-4.4341,-4.5182,-4.5182,-4.522,-4.5307,-4.5307,-4.5307,-4.5307,-4.5297,-4.5297,-4.5297,-4.5286,-4.5286,-4.5286,-4.5286,-4.5286,-4.5286,0.0,0.0,0.0,0.0,0.0,0.0,0.0,-3.7122,-3.7911,-3.8483,-3.8188,-3.7734,-3.7291,-3.6519,-3.5877,-3.5523,-3.5231,-3.5088,-3.5165,-3.5228,-3.5245,-3.5175,-3.4787,-3.4046,-3.2967,-3.2435,-3.1553,0.0,0.0,0.0,0.0,0.0,0.0,0.0,0.0,-3.0286,-3.1168,-3.1568,-3.1933,-3.2282,-3.2564,-3.2785,-3.2895,-3.2851,-3.3117,-3.3606,-3.3893,-3.4206,-3.4626,-3.5291,-3.4985,-3.4444,-3.5328,-3.5615,-3.5774,-3.6572,-3.6949,-3.7202,-3.7506,-3.7595,-3.7595,-3.7595,-3.7595,-3.7595,-3.7595,-3.7989,-3.8365,-3.8365,-3.8887,-3.9211,-3.883,-3.8828,-3.8555,-3.7644,0.0,0.0,0.0,0.0,0.0,0.0,0.0,0.0,0.0,0.0,0.0,0.0,0.0,-3.3253,-3.5774,-3.6155,-3.7229,-3.9315,0.0,-4.1559,-4.3658,-4.4086,-4.4618,-4.5265,-4.4923,-4.4953,-4.5307,-4.5307,-4.5307,-4.5307,-4.5307,-4.5307,-4.5307,-4.5307,-4.5307,-4.5307,-4.5307,-4.5307,-4.5307,-4.5307,-4.5307,-4.5307,-3.3382,0.0,-3.4476,0.0,-3.6426,-3.7295,-3.7222,-3.7705,-3.8084,-3.8084,-3.6966,-3.6267,-3.6496,-3.5612,-3.4938,-3.4796,-3.478,-3.4828,-3.4899,-3.5065,-3.5152,-3.5088,-3.4766,0.0,-3.3433,-3.2832,-3.2197,-3.1566,-3.0132,0.0,0.0,0.0,0.0,0.0,-3.0999,-3.1784,-3.2597,-3.2685,-3.2968,-3.3365,-3.3365,-3.3455,-3.359,-3.3567,-3.3923,-3.4482,-3.4817,-3.5165,-3.5588,-3.6139,-3.5435,-3.4542,-3.5721,-3.6167,-3.6366,-3.6932,-3.7354,-3.7595,-3.7595,-3.7595,-3.7595,-3.7595,-3.7595,-3.7666,-3.7898,-3.8435,-3.8938,-3.9153,-3.9859,-4.0239,-3.959,-3.9607,-3.9368,-3.8228,0.0,0.0,0.0,-3.7273,0.0,0.0,-3.6252,-3.5597,-3.2962,-3.2393,0.0,0.0,0.0,0.0,-3.4434,-3.4988,-3.623,0.0,0.0,0.0,-4.393,-4.4668,-4.5076,-4.5143,-4.5143,-4.5143,-4.5162,-4.5256,-4.5307,-4.5307,-4.5307,-4.5307,-4.5307,-4.5307,-4.5307,-4.5307,-4.5307,-4.5307,-4.5307,-4.5307,-4.5307,-4.5307,-3.7162,-3.734,-3.7473,-3.823,-3.8375,-3.8391,-3.8391,-3.7765,-3.7295,-3.7295,-3.6076,-3.5503,-3.6222,-3.5649,-3.5006,-3.4538,-3.4497,-3.4618,-3.4875,-3.5152,-3.5245,0.0,0.0,-3.5076,-3.4209,-3.4175,-3.3806,-3.3074,0.0,0.0,-3.0747,0.0,-3.0572,-3.237,-3.2596,-3.3497,-3.4866,-3.4849,-3.4866,-3.4866,-3.4866,-3.5031,-3.5274,-3.5118,-3.5251,-3.5475,-3.5492,-3.5406,-3.5383,-3.592,-3.6015,-3.5959,-3.6454,-3.6836,-3.7091,-3.7108,-3.7354,-3.7595,-3.7595,-3.7595,-3.7595,-3.7595,-3.7595,-3.7809,-3.8611,-3.879,-3.9022,-3.9734,-4.0123,-4.0254,-4.0123,-4.0199,-4.0273,-4.0255,0.0,0.0,0.0,0.0,0.0,-3.8532,-3.9752,-3.9544,-3.6527,-3.533,0.0,0.0,0.0,0.0,0.0,0.0,0.0,-3.9358,-4.1774,0.0,-4.4777,-4.4544,-4.4546,-4.4819,-4.4819,-4.4819,-4.4831,-4.5162,-4.5307,-4.5307,-4.5307,-4.5307,-4.5307,-4.5307,-4.5307,-4.5307,-4.5307,-4.5307,-4.5307,-4.5307,-4.5307,-4.5307,-3.8031,-3.8079,-3.8116,-3.8359,-3.8391,-3.8391,-3.8391,-3.8197,-3.7873,-3.736,-3.6513,-3.5849,-3.5574,-3.4878,-3.4394,0.0,-3.4226,-3.4275,0.0,-3.478,-3.4994,-3.497,-3.5344,-3.5194,-3.4413,-3.4364,-3.4229,-3.4047,0.0,0.0,0.0,-3.1876,-3.2577,-3.3656,-3.4218,-3.4724,-3.5175,-3.5175,-3.5128,-3.5041,-3.5152,-3.5222,-3.5314,-3.5337,-3.5423,-3.5492,-3.5492,-3.5423,-3.5398,-3.607,-3.6285,-3.6352,-3.7015,-3.7172,-3.7108,-3.7108,-3.7354,-3.7595,-3.7595,-3.7595,-3.7595,-3.7595,-3.8042,-3.8544,-3.8736,-3.9686,-4.0747,-4.1576,-4.1815,-4.1673,-4.1038,-4.0967,-4.0987,-4.0987,-4.093,0.0,-4.1802,0.0,0.0,-3.9325,-3.9659,-3.9061,-3.6527,-3.5974,0.0,0.0,0.0,0.0,0.0,0.0,0.0,0.0,-4.0085,0.0,-4.424,-4.4365,-4.4533,-4.4788,-4.4788,-4.4922,-4.5132,-4.5246,-4.5307,-4.5307,-4.5307,-4.5307,-4.5307,-4.5307,-4.5307,-4.5307,-4.5307,-4.5307,-4.5307,-4.5307,-4.5307,-4.5307,-3.8464,-3.842,-3.8436,-3.8464,-3.8492,-3.8476,-3.8544,-3.8332,-3.8007,-3.7552,-3.6831,-3.6091,-3.537,-3.4832,0.0,-3.4117,-3.4101,-3.4101,-3.4101,-3.4497,-3.4756,-3.4756,-3.5211,-3.5284,-3.4813,-3.4835,0.0,-3.4912,-3.3891,-3.3371,-3.3371,-3.3733,-3.4175,-3.4644,-3.509,-3.5291,-3.5291,-3.5291,-3.5245,-3.5175,-3.5222,-3.5245,-3.5314,-3.54,-3.5446,-3.5525,-3.588,-3.5866,-3.5827,-3.6611,-3.7013,-3.7276,-3.7773,-3.8057,-3.8109,-3.7835,-3.7994,-3.8283,-3.8543,-3.8617,-3.8598,-3.8543,-3.8956,-3.9404,-3.9612,-4.0742,-4.1896,-4.24,-4.255,-4.2426,-4.1843,-4.1773,-4.1794,-4.1794,-4.1715,-4.1877,-4.2518,0.0,0.0,0.0,0.0,0.0,0.0,-3.8037,-3.7909,0.0,0.0,0.0,0.0,0.0,0.0,-3.8261,-4.0416,-4.2319,-4.3986,-4.4042,-4.4217,-4.4511,-4.4511,-4.4656,-4.4965,-4.4965,-4.4965,-4.4965,-4.5076,-4.5109,-4.5121,-4.5246,-4.5307,-4.5307,-4.5307,-4.5307,-4.5307,-4.5307,-4.5307,-4.5307,-3.856,-3.8492,-3.842,0.0,-3.8604,0.0,-3.875,-3.8237,-3.7838,-3.7789,-3.7077,-3.6281,-3.5498,-3.5321,-3.4968,-3.4165,0.0,0.0,0.0,-3.4349,-3.4497,-3.4497,-3.4994,-3.5268,-3.5291,-3.5481,-3.5577,-3.56,-3.5543,-3.5514,-3.5514,-3.5383,-3.5314,-3.5314,-3.5314,-3.5314,-3.5314,-3.5314,-3.5314,-3.5291,-3.5182,-3.5222,-3.5331,-3.5381,-3.549,-3.5706,-3.6557,-3.6693,-3.6621,-3.7455,-3.8071,-3.8504,-3.8703,-3.9266,-3.9744,-3.9164,-3.9157,-3.9489,-4.0142,-4.0291,-4.0273,-4.0123,-4.0121,-4.0353,-4.1042,-4.1868,-4.2445,-4.2346,-4.245,-4.255,-4.2503,-4.2528,-4.2589,-4.2589,-4.2589,-4.2609,-4.2609,-4.2725,0.0,0.0,0.0,0.0,-4.316,-4.1156,-3.9911,0.0,0.0,0.0,0.0,0.0,-3.8447,-3.9937,-4.2268,-4.3649,-4.3974,-4.3649,-4.3666,-4.4005,-4.4036,-4.4166,-4.4397,-4.4397,-4.4397,-4.4411,-4.4663,-4.4763,-4.4807,-4.5109,-4.5246,-4.5275,-4.5275,-4.5286,-4.5307,-4.5307,-4.5307,-4.5307,0.0,0.0,-3.8391,-3.842,-3.8464,-3.8448,-3.8504,-3.8458,-3.8215,-3.7628,-3.7529,-3.6957,-3.5547,-3.588,-3.5623,-3.4214,-3.4101,-3.4101,-3.4101,-3.4349,-3.4497,-3.4497,-3.4828,-3.5088,-3.5308,-3.5337,-3.5435,-3.56,-3.5577,-3.5594,-3.5594,-3.5532,-3.5532,-3.5532,-3.5532,-3.5532,-3.5532,-3.5532,-3.5503,-3.5446,-3.5481,-3.5458,-3.5536,-3.6184,-3.6472,-3.6574,-3.7246,-3.7468,-3.7472,-3.8037,-3.8321,-3.8514,-3.9008,-3.9303,-3.9479,-3.9735,-3.9857,-3.9954,-4.0235,-4.0291,-4.0273,-4.0123,-4.0475,-4.1098,-4.196,-4.2262,-4.2346,-4.2308,-4.2348,-4.2369,-4.2346,-4.2348,-4.2389,-4.2506,-4.2506,-4.2586,-4.2725,-4.2783,-4.2822,0.0,-4.29,-4.2919,-4.2975,-4.2449,-4.2141,0.0,0.0,0.0,-4.179,-4.0828,-4.0432,-4.0802,-4.2561,-4.3549,-4.3615,-4.3531,-4.3666,-4.4005,-4.4206,-4.4346,-4.4397,-4.4397,-4.4397,-4.4397,-4.4465,-4.4493,-4.4493,-4.4591,-4.4733,-4.4922,-4.4922,-4.5068,-4.5307,-4.5307,-4.5307,-4.5307,-3.8391,-3.8391,-3.842,-3.8476,-3.8476,-3.8504,-3.8572,-3.8683,-3.8646,-3.8237,-3.8231,-3.7795,-3.663,-3.6727,-3.6237,-3.4758,-3.4586,-3.4457,-3.4117,-3.43,-3.4374,-3.4325,-3.4618,-3.4851,-3.4923,-3.5041,-3.5228,-3.5458,-3.5554,-3.56,-3.56,-3.56,-3.5785,-3.6146,-3.6146,-3.6146,-3.6146,-3.6146,-3.5915,-3.5577,-3.592,-3.6049,-3.6087,-3.6899,-3.7209,-3.7287,-3.7956,-3.8152,-3.8195,-3.8729,-3.8998,-3.9185,-3.9527,-3.9799,-4.0116,-4.0666,-4.0707,-4.0689,-4.1276,-4.1465,-4.1447,-4.1276,-4.15,-4.1868,-4.2297,-4.2346,-4.2308,-4.2308,-4.2308,-4.2308,-4.2308,-4.2308,-4.2328,-4.2483,-4.2544,-4.2606,-4.2782,-4.2803,-4.2803,-4.2767,-4.2746,-4.2727,-4.2767,-4.2767,-4.2805,-4.2882,-4.2177,0.0,-4.3014,-4.2429,-4.2093,-4.2194,-4.3039,-4.3515,-4.3515,-4.3515,-4.3582,-4.3781,-4.3918,-4.3977,-4.3977,-4.3977,-4.3977,-4.3992,-4.4147,-4.4221,-4.4236,-4.436,-4.4559,-4.4788,-4.4788,-4.4992,-4.5307,-4.5307,-4.5307,-4.5307,-3.825,-3.8335,-3.8436,-3.8548,-3.8576,-3.8616,-3.8722,-3.886,-3.8958,-3.8958,-3.886,-3.8526,-3.7838,-3.7612,-3.6929,-3.5503,-3.5445,-3.5104,-3.4165,-3.4201,-3.4226,-3.4101,-3.4423,-3.457,-3.4497,-3.4763,-3.5018,-3.5245,-3.5458,-3.5554,-3.5554,-3.5718,-3.6146,-3.6795,-3.6931,-3.6981,-3.6981,-3.6981,-3.6569,-3.6005,-3.6578,-3.6801,-3.6885,-3.7627,-3.7889,-3.799,-3.8698,-3.8849,-3.8832,-3.9311,-3.9661,-3.9919,-3.9978,-4.0302,-4.0808,-4.1472,-4.1437,-4.142,-4.2474,-4.2804,-4.2805,-4.2629,-4.2546,-4.2445,-4.2346,-4.2308,-4.2308,-4.2308,-4.2308,-4.2308,-4.2308,-4.2308,-4.2328,-4.2483,-4.2311,-4.2322,-4.2728,0.0,-4.2436,-4.2573,-4.2546,-4.2506,-4.255,-4.255,-4.2629,-4.2805,-4.2843,-4.2844,-4.2844,-4.3068,-4.3286,-4.3463,-4.3479,-4.3515,-4.3515,-4.3515,-4.3515,-4.3515,-4.3515,-4.3515,-4.3515,-4.3515,-4.3515,-4.3532,-4.3798,-4.3926,-4.3939,-4.4158,-4.45,-4.4865,-4.4865,-4.514,-4.5532,-4.5576,-4.5606,-4.5617,-3.7565,-3.8004,-3.8408,-3.8436,-3.842,-3.842,-3.8448,-3.8588,-3.8672,-3.8672,-3.8738,-3.8472,-3.7644,-3.8079,-3.7801,-3.6254,-3.6659,-3.6173,-3.423,-3.4126,-3.4126,-3.4101,-3.4151,-3.43,-3.4497,-3.4763,-3.4923,-3.497,-3.5205,-3.5337,-3.5377,-3.6207,-3.6694,-3.6829,-3.7449,-3.7736,-3.7736,-3.7736,-3.7669,-3.7543,-3.7662,-3.7713,-3.778,-3.8524,-3.8794,-3.8871,-3.9387,-3.9536,-3.9501,-3.9398,-3.9379,-3.9478,-3.9868,-4.0053,-4.0309,-4.1253,-4.1561,-4.1756,-4.2452,-4.2588,-4.2546,-4.2524,-4.2425,-4.2346,-4.2308,-4.2308,-4.2308,-4.2308,-4.2308,-4.2308,-4.2308,-4.2308,-4.2328,-4.2483,-4.1221,-4.0851,-4.2564,0.0,-4.0965,-4.2428,-4.2546,-4.2445,-4.2348,-4.2348,-4.2369,-4.2371,-4.2532,-4.2649,-4.2649,-4.2994,-4.3196,-4.3251,-4.341,-4.3515,-4.3515,-4.3515,-4.3515,-4.3515,-4.3515,-4.3515,-4.3515,-4.3515,-4.3515,-4.3496,-4.3548,-4.3565,-4.3582,-4.3614,-4.4233,-4.5131,-4.5131,-4.572,-4.6596,-4.689,-4.698,-4.7036,-3.7931,-3.8193,-3.8391,-3.8391,-3.8391,-3.8391,-3.8391,-3.8504,-3.8616,-3.8711,-3.875,-3.8674,-3.833,-3.8553,-3.8275,-3.7193,-3.7389,-3.6955,-3.5493,-3.5354,-3.514,-3.4725,-3.476,-3.4657,-3.4275,-3.4939,-3.5284,-3.5284,-3.5925,-3.6205,-3.6246,-3.6701,-3.7232,-3.7773,-3.8126,-3.8351,-3.8481,-3.8481,-3.8261,-3.7939,-3.8328,-3.8481,-3.8565,-3.9292,-3.9605,-3.9614,-3.9766,-3.9755,-3.9677,-3.9458,-3.9352,-3.9352,-3.954,-3.9618,-3.9833,-4.0868,-4.1626,-4.2187,-4.2512,-4.2588,-4.2546,-4.2503,-4.2445,-4.2405,-4.2325,-4.2308,-4.2308,-4.2308,-4.2308,-4.2308,-4.2308,-4.2308,-4.2328,-4.2483,-4.1797,0.0,-4.2559,-4.192,-4.1624,-4.2456,-4.2465,-4.2366,-4.2308,-4.2308,-4.2308,-4.2308,-4.2389,-4.245,-4.245,-4.2727,-4.288,-4.288,-4.3286,-4.3515,-4.3515,-4.3515,-4.3718,-4.414,-4.3699,-4.3938,-4.4782,-4.4342,-4.4378,-4.4764,-4.4323,-4.4158,-4.4158,-4.4158,-4.4566,-4.5249,-4.5679,-4.6243,-4.6813,-4.6958,-4.7033,-4.7075,-3.8177,-3.8307,-3.8391,-3.8391,-3.8391,-3.8391,-3.8391,-3.8492,-3.8588,-3.8738,-3.875,-3.8805,-3.8942,-3.886,-3.8592,-3.8095,-3.8045,-3.7746,-3.7084,-3.6981,-3.643,-3.5244,-3.5314,-3.5136,-3.4619,-3.5359,-3.5754,-3.5754,-3.6518,-3.6909,-3.6909,-3.7142,-3.7692,-3.8488,-3.8655,-3.8891,-3.9167,-3.9167,-3.8871,-3.8464,-3.9022,-3.9242,-3.9334,-3.9893,-4.0096,-4.0087,-3.9935,-3.9833,-3.9703,-3.9563,-3.9432,-3.9352,-3.9441,-3.9451,-3.9644,-4.0607,-4.145,-4.2163,-4.249,-4.255,-4.251,-4.2465,-4.2445,-4.2425,-4.2308,-4.2308,-4.2308,-4.2308,-4.2308,-4.2308,-4.2308,-4.2308,-4.2328,-4.2445,0.0,-4.2014,-4.2514,-4.2143,-4.2011,-4.2447,-4.2366,-4.2308,-4.2308,-4.2308,-4.2308,-4.2308,-4.2308,-4.2308,-4.2308,-4.2669,-4.3008,-4.3287,-4.3379,-4.3444,-4.3515,-4.3681,-4.4085,-4.4691,-4.425,-4.469,-4.5883,-4.5259,-4.5333,-4.5865,-4.5259,-4.4984,-4.4984,-4.4984,-4.5235,-4.5712,-4.6325,-4.6791,-4.7164,-4.7243,-4.7273,-4.7319,-3.7476,-3.796,-3.8391,-3.8391,-3.8391,-3.8391,-3.8391,-3.8408,-3.8448,-3.8588,-3.8616,-3.8672,-3.8805,-3.8805,-3.8788,-3.8723,-3.8723,-3.8707,-3.8614,-3.8614,-3.759,-3.5292,-3.5211,-3.5503,-3.6125,-3.6216,-3.6248,-3.6248,-3.6496,-3.661,-3.6652,-3.7576,-3.807,-3.8179,-3.8868,-3.9325,-3.9645,-3.9645,-3.9766,-3.9943,-3.9994,-4.0028,-4.0028,-4.0079,-4.0096,-4.0087,-3.9935,-3.9901,-3.9849,-3.9606,-3.9501,-3.9537,-3.9859,-3.9952,-4.0053,-4.0642,-4.0873,-4.1169,-4.2222,-4.2425,-4.2328,-4.2308,-4.2308,-4.2308,-4.2308,-4.2308,-4.2308,-4.2308,-4.2308,-4.2308,-4.2308,-4.2308,-4.2308,-4.2308,0.0,0.0,-4.2248,-4.1014,-4.056,-4.2284,-4.2366,-4.2308,-4.2308,-4.2308,-4.2308,-4.2308,-4.2308,-4.2308,-4.2308,-4.3189,-4.4211,-4.5345,-4.398,-4.3304,-4.3515,-4.425,-4.4636,-4.4727,-4.5406,-4.5792,-4.5902,-4.5847,-4.5847,-4.5902,-4.5847,-4.581,-4.581,-4.581,-4.6287,-4.6966,-4.7022,-4.7518,-4.8218,-4.8544,-4.8647,-4.8699,-3.7312,-3.7594,-3.7902,-3.8335,-3.8391,-3.8391,-3.8391,-3.8476,-3.856,-3.8711,-3.8794,-3.8903,-3.9094,-3.9094,-3.9094,-3.9094,-3.9094,-3.9067,-3.8942,-3.904,-3.8426,-3.6871,-3.6382,-3.6241,-3.6535,-3.6992,-3.722,-3.722,-3.7628,-3.7878,-3.7986,-3.8199,-3.8439,-3.8681,-3.8864,-3.9115,-3.9382,-3.9382,-3.9461,-3.9549,-3.9764,-3.9841,-3.9884,-4.0037,-4.0096,-4.0096,-4.0037,-3.9961,-3.9875,-3.9772,-3.9659,-3.9511,-3.9651,-3.9635,-3.967,-4.0153,-4.0861,-4.1556,-4.1792,-4.1835,-4.1813,-4.1813,-4.2044,-4.2308,-4.2308,-4.2308,-4.2308,-4.2308,-4.2724,-4.3107,-4.3107,-4.3107,-4.3107,-4.3107,0.0,-4.1566,-4.2295,-4.2192,-4.2332,-4.3042,-4.3486,-4.3732,-4.3732,-4.3304,-4.3036,-4.3036,-4.2573,-4.2519,-4.3019,-4.3832,-4.4558,-4.5136,-4.4558,-4.4427,-4.4803,-4.5242,-4.5627,-4.599,-4.5938,-4.6416,-4.737,-4.6856,-4.6929,-4.737,-4.6874,-4.6636,-4.6636,-4.6636,-4.6819,-4.7149,-4.7645,-4.8031,-4.8325,-4.8439,-4.8495,-4.855,-3.7594,-3.7711,-3.7873,-3.8307,-3.8391,-3.8391,-3.8391,-3.8504,-3.8644,-3.8777,-3.8914,-3.9094,-3.9272,-3.9299,-3.9299,-3.9299,-3.9299,-3.9245,-3.9094,-3.9202,-3.896,-3.8198,-3.7439,-3.716,-3.7347,-3.7855,-3.81,-3.81,-3.8482,-3.8711,-3.8805,-3.86,-3.8655,-3.8876,-3.8794,-3.886,-3.9071,-3.9071,-3.9125,-3.9232,-3.9435,-3.9609,-3.9729,-3.9893,-4.0037,-4.0096,-4.0096,-4.0037,-3.9977,-3.9926,-3.9772,-3.9606,-3.9528,-3.9422,-3.9362,-3.9696,-4.0383,-4.1047,-4.0861,-4.0908,-4.1139,-4.1622,-4.2023,-4.2308,-4.2308,-4.2308,-4.2379,-4.2652,-4.3176,-4.3665,-4.3918,-4.3933,-4.3913,-4.3954,-4.3441,-4.3039,-4.3081,-4.3521,-4.3836,-4.3836,-4.4282,-4.4603,-4.4603,-4.4139,-4.3836,-4.3836,-4.334,-4.3375,-4.4178,-4.4714,-4.5176,-4.5644,-4.5644,-4.5812,-4.6116,-4.6095,-4.6298,-4.6708,-4.6612,-4.7147,-4.8191,-4.7699,-4.7773,-4.8269,-4.7718,-4.748,-4.748,-4.748,-4.748,-4.7516,-4.8067,-4.8306,-4.8306,-4.8306,-4.8306,-4.8344,-3.8278,-3.8391,-3.8391,-3.8391,-3.8391,-3.8391,-3.8391,-3.852,-3.8644,-3.8777,-3.8914,-3.9094,-3.9272,-3.9299,-3.9299,-3.9299,-3.9299,-3.9299,-3.9299,-3.9299,-3.9202,-3.8996,-3.823,-3.8127,-3.8788,-3.8805,-3.8805,-3.8805,-3.8805,-3.8805,-3.8805,-3.8805,-3.8738,-3.8588,-3.8588,-3.8655,-3.8805,-3.8805,-3.8952,-3.9206,-3.9206,-3.9408,-3.9703,-3.9703,-3.9858,-4.0096,-4.0113,-4.0113,-4.0087,-3.9935,-3.9901,-3.9849,-3.9563,-3.9422,-3.9299,-3.9299,-3.9299,-3.9299,-3.9299,-3.9644,-4.04,-4.1899,-4.2287,-4.2287,-4.2287,-4.2287,-4.2542,-4.3417,-4.3567,-4.3789,-4.465,-4.4689,-4.4646,-4.4793,-4.4689,-4.4646,-4.4793,-4.4689,-4.4603,-4.4603,-4.4603,-4.4621,-4.4621,-4.4603,-4.4603,-4.4603,-4.4603,-4.4942,-4.5766,-4.582,-4.627,-4.7262,-4.7298,-4.7298,-4.7298,-4.6777,-4.6504,-4.6522,-4.7508,-4.8012,-4.8012,-4.8209,-4.8306,-4.8306,-4.8306,-4.8306,-4.8306,-4.8306,-4.8306,-4.8306,-4.8306,-4.8306,-4.8306,-4.8306,-4.8306,-4.8306,-3.7565,-3.7698,-3.7844,-3.8307,-3.8391,-3.842,-3.8548,-3.8655,-3.8777,-3.8914,-3.9094,-3.9245,-3.9299,-3.9299,-3.9299,-3.9299,-3.9299,-3.9245,-3.9094,-3.9094,-3.9023,-3.886,-3.8717,-3.8701,-3.8805,-3.8887,-3.8942,-3.8942,-3.8942,-3.8942,-3.8942,-3.8738,-3.8644,-3.8604,-3.8504,-3.8476,-3.8532,-3.8532,-3.8572,-3.8655,-3.8843,-3.898,-3.9104,-3.9276,-3.9391,-3.9513,-3.9738,-3.9833,-3.9833,-3.9901,-3.9849,-3.9703,-3.9432,-3.9325,-3.9299,-3.9299,-3.9592,-3.9919,-3.9833,-4.0577,-4.1285,-4.0793,-4.1225,-4.1731,-4.1731,-4.2466,-4.3215,-4.3489,-4.4524,-4.5452,-4.5602,-4.5699,-4.5703,-4.5638,-4.5064,-4.4607,-4.4668,-4.511,-4.5445,-4.5445,-4.5945,-4.6284,-4.6284,-4.5766,-4.5445,-4.5445,-4.5445,-4.5552,-4.5784,-4.6337,-4.6793,-4.7075,-4.7093,-4.7093,-4.7093,-4.7407,-4.7484,-4.7355,-4.7922,-4.8209,-4.8209,-4.8267,-4.8306,-4.8306,-4.8306,-4.8306,-4.8306,-4.8306,-4.8306,-4.8306,-4.8306,-4.8306,-4.8306,-4.8306,-4.8306,-4.8306,-3.7252,-3.7594,-3.7931,-3.8335,-3.8391,-3.8464,-3.856,-3.8711,-3.886,-3.8969,-3.9191,-3.9299,-3.9299,-3.9299,-3.9272,-3.9175,-3.9121,-3.904,-3.8849,-3.8887,-3.8832,-3.8655,-3.8766,-3.8849,-3.8805,-3.8887,-3.8914,-3.8914,-3.8914,-3.8914,-3.8914,-3.8766,-3.8644,-3.8604,-3.852,-3.8464,-3.8391,-3.8391,-3.8391,-3.8391,-3.8572,-3.8711,-3.8832,-3.9098,-3.9286,-3.9435,-3.9738,-3.9833,-3.9781,-3.9875,-3.9807,-3.9651,-3.9458,-3.9379,-3.9352,-3.9325,-3.9556,-3.9817,-3.9756,-4.0535,-4.118,-4.0346,-4.114,-4.2085,-4.2085,-4.2724,-4.3472,-4.4037,-4.4987,-4.5869,-4.6386,-4.6502,-4.6524,-4.648,-4.594,-4.5552,-4.5618,-4.5985,-4.6266,-4.6266,-4.6694,-4.6998,-4.6998,-4.6551,-4.6266,-4.6266,-4.6266,-4.6266,-4.6266,-4.673,-4.6998,-4.6998,-4.6998,-4.6998,-4.6998,-4.7493,-4.7621,-4.7421,-4.7767,-4.7972,-4.807,-4.8151,-4.8229,-4.8306,-4.8306,-4.8306,-4.8306,-4.8306,-4.8306,-4.8306,-4.8306,-4.8306,-4.8306,-4.8306,-4.8306,-4.8306,-3.7371,-3.796,-3.8391,-3.8391,-3.8391,-3.8448,-3.8588,-3.8711,-3.886,-3.8996,-3.9175,-3.9299,-3.9299,-3.9272,-3.9202,-3.9023,-3.8887,-3.8722,-3.8616,-3.8711,-3.8683,-3.8391,-3.8504,-3.8644,-3.875,-3.8805,-3.8805,-3.8805,-3.8832,-3.8832,-3.8805,-3.8805,-3.8738,-3.856,-3.8588,-3.8532,-3.842,-3.842,-3.842,-3.8448,-3.8448,-3.86,-3.8871,-3.9125,-3.9408,-3.9729,-4.0011,-4.0011,-3.9875,-3.9875,-3.9781,-3.9651,-3.9537,-3.9501,-3.9475,-3.9379,-3.9375,-3.9425,-3.9425,-3.9978,-4.0608,-4.0608,-4.1835,-4.3014,-4.2944,-4.3012,-4.3504,-4.4893,-4.5152,-4.5535,-4.6941,-4.7088,-4.7066,-4.7156,-4.7088,-4.7043,-4.7156,-4.7066,-4.6998,-4.6998,-4.6998,-4.6998,-4.6998,-4.6998,-4.6998,-4.6998,-4.6998,-4.6998,-4.6998,-4.6998,-4.6998,-4.6998,-4.6998,-4.6998,-4.6998,-4.7187,-4.7187,-4.7025,-4.7232,-4.745,-4.7717,-4.7888,-4.8072,-4.8248,-4.8267,-4.8267,-4.8267,-4.8287,-4.8306,-4.8306,-4.8306,-4.8306,-4.8306,-4.8306,-4.8306,-4.8306,-3.8148,-3.8307,-3.8391,-3.8391,-3.8391,-3.8476,-3.8738,-3.8777,-3.8914,-3.9218,-3.9272,-3.9299,-3.9299,-3.9148,-3.9067,-3.8996,-3.8887,-3.8722,-3.8616,-3.8616,-3.856,-3.8408,-3.8436,-3.8448,-3.8476,-3.8694,-3.8805,-3.8805,-3.9067,-3.9067,-3.8805,-3.8914,-3.8766,-3.8464,-3.8532,-3.8588,-3.8576,-3.8576,-3.8699,-3.8876,-3.8876,-3.9023,-3.9276,-3.9339,-3.9391,-3.9513,-3.9944,-3.9961,-3.9755,-3.9755,-3.9651,-3.9537,-3.9528,-3.9501,-3.9511,-3.9573,-3.9954,-4.0313,-4.0313,-4.1161,-4.2054,-4.2054,-4.2758,-4.3277,-4.255,-4.3151,-4.4076,-4.4879,-4.5563,-4.623,-4.6921,-4.7111,-4.7133,-4.7066,-4.702,-4.702,-4.7043,-4.702,-4.6998,-4.6998,-4.6998,-4.6998,-4.6998,-4.6998,-4.6998,-4.6998,-4.6998,-4.6998,-4.6998,-4.6998,-4.6998,-4.6998,-4.6998,-4.6998,-4.6998,-4.7048,-4.712,-4.7232,-4.749,-4.7636,-4.7717,-4.7741,-4.7783,-4.7845,-4.801,-4.8072,-4.8072,-4.8229,-4.8306,-4.8306,-4.8306,-4.8306,-4.8306,-4.8306,-4.8306,-4.8306,-3.7873,-3.8193,-3.8391,-3.8391,-3.8391,-3.8476,-3.8683,-3.8711,-3.8794,-3.904,-3.9067,-3.9067,-3.9067,-3.8969,-3.8887,-3.8821,-3.8683,-3.8572,-3.8504,-3.8504,-3.8476,-3.8391,-3.8391,-3.8391,-3.8391,-3.8616,-3.8711,-3.8711,-3.8892,-3.8892,-3.8711,-3.8711,-3.86,-3.8391,-3.8476,-3.8504,-3.852,-3.856,-3.8711,-3.8914,-3.8849,-3.8969,-3.9222,-3.9355,-3.9461,-3.9609,-4.0121,-4.0138,-3.9884,-3.9807,-3.9746,-3.9668,-3.9616,-3.9642,-3.9761,-4.0113,-4.0445,-4.0748,-4.1061,-4.1916,-4.272,-4.265,-4.3215,-4.3577,-4.3008,-4.3373,-4.4041,-4.4647,-4.5328,-4.5992,-4.6525,-4.6888,-4.7088,-4.702,-4.6998,-4.6998,-4.6998,-4.6998,-4.6998,-4.6998,-4.6998,-4.6998,-4.6998,-4.7405,-4.766,-4.766,-4.8051,-4.8289,-4.8289,-4.7903,-4.766,-4.766,-4.724,-4.6998,-4.6998,-4.6998,-4.7048,-4.7143,-4.7755,-4.7865,-4.7529,-4.8061,-4.8148,-4.7847,-4.8052,-4.8151,-4.8151,-4.8248,-4.8306,-4.8306,-4.8306,-4.8306,-4.8306,-4.8306,-4.8306,-4.8306,-3.7117,-3.7682,-3.8062,-3.8062,-3.8148,-3.831,-3.8594,-3.8711,-3.8851,-3.8985,-3.8985,-3.8936,-3.8805,-3.8777,-3.8711,-3.856,-3.8448,-3.8391,-3.8391,-3.8391,-3.8391,-3.8391,-3.8391,-3.8391,-3.8391,-3.8532,-3.8588,-3.8588,-3.8616,-3.8616,-3.8588,-3.8504,-3.8448,-3.8391,-3.842,-3.842,-3.842,-3.8532,-3.8699,-3.8832,-3.8711,-3.8849,-3.9185,-3.9408,-3.9618,-3.991,-4.0362,-4.0387,-4.0188,-3.9986,-3.9935,-3.9926,-3.9781,-3.9807,-3.9993,-4.0536,-4.0836,-4.1144,-4.1638,-4.2468,-4.3148,-4.3051,-4.3489,-4.3881,-4.3717,-4.3658,-4.3759,-4.4361,-4.4855,-4.5346,-4.5945,-4.6477,-4.69,-4.7025,-4.7023,-4.7087,-4.7354,-4.7158,-4.7033,-4.7176,-4.7217,-4.724,-4.724,-4.8087,-4.8621,-4.8621,-4.9305,-4.9693,-4.9693,-4.9008,-4.8621,-4.8621,-4.7719,-4.724,-4.724,-4.7092,-4.6998,-4.6998,-4.7957,-4.7994,-4.7294,-4.8226,-4.8345,-4.785,-4.8092,-4.819,-4.819,-4.8267,-4.8306,-4.8306,-4.8306,-4.8306,-4.8306,-4.8306,-4.8306,-4.8306,-3.6508,-3.66,-3.6661,-3.6661,-3.7147,-3.7844,-3.8729,-3.9253,-3.9646,-3.9895,-3.9839,-3.9509,-3.887,-3.8683,-3.856,-3.842,-3.8391,-3.8391,-3.8391,-3.8391,-3.8391,-3.8391,-3.8391,-3.8391,-3.8391,-3.8532,-3.8588,-3.8588,-3.8711,-3.8711,-3.8588,-3.8711,-3.8628,-3.8408,-3.8504,-3.856,-3.856,-3.8588,-3.8738,-3.8969,-3.8942,-3.9265,-3.9781,-3.9807,-4.0062,-4.0412,-4.0624,-4.0648,-4.0576,-4.0188,-4.007,-4.0062,-3.9926,-3.9901,-3.9943,-4.013,-4.1023,-4.1944,-4.2017,-4.2976,-4.3946,-4.3918,-4.4001,-4.4068,-4.4039,-4.3805,-4.3759,-4.4361,-4.4558,-4.4773,-4.532,-4.5903,-4.6519,-4.7153,-4.7092,-4.7461,-4.8794,-4.7836,-4.727,-4.7949,-4.8148,-4.8217,-4.8217,-4.9008,-4.9526,-4.9526,-4.9639,-4.9693,-4.9693,-4.958,-4.9526,-4.9526,-4.8657,-4.8217,-4.8217,-4.7405,-4.6998,-4.6998,-4.7957,-4.7903,-4.7066,-4.72,-4.7223,-4.716,-4.7575,-4.7783,-4.7804,-4.8169,-4.8306,-4.8306,-4.8306,-4.8306,-4.8306,-4.8306,-4.8306,-4.8306,-3.6889,-3.7655,-3.8075,-3.7529,-3.8193,-3.8766,-3.8743,-3.9357,-3.9715,-3.9429,-3.9612,-3.9511,-3.8765,-3.856,-3.8448,-3.8408,-3.8391,-3.8391,-3.8391,-3.8391,-3.8391,-3.8391,-3.8391,-3.8391,-3.8391,-3.8448,-3.8492,-3.8492,-3.8616,-3.8672,-3.8588,-3.8572,-3.8516,-3.8391,-3.8628,-3.8711,-3.8738,-3.9002,-3.9202,-3.9372,-3.9309,-3.952,-3.9901,-3.9986,-4.0163,-4.0429,-4.0624,-4.0648,-4.0603,-4.0764,-4.0485,-4.0155,-4.0501,-4.0349,-4.0096,-4.0595,-4.1448,-4.2297,-4.261,-4.3519,-4.4355,-4.4241,-4.4196,-4.4196,-4.4196,-4.4369,-4.4553,-4.4683,-4.4928,-4.5303,-4.5976,-4.6542,-4.7021,-4.735,-4.7635,-4.8021,-4.8692,-4.8502,-4.8431,-4.8882,-4.9052,-4.9139,-4.9139,-4.9955,-5.0474,-5.0474,-5.0976,-5.1251,-5.1251,-5.0772,-5.023,-4.9711,-4.9323,-4.8877,-4.8401,-4.8473,-4.8509,-4.8509,-4.8936,-4.8383,-4.702,-4.7671,-4.7936,-4.794,-4.7771,-4.7974,-4.8402,-4.8091,-4.8012,-4.8131,-4.8131,-4.8209,-4.8306,-4.8306,-4.8306,-4.8306]},{"header":{"parameterUnit":"m.s-1","parameterCategory":1,"la1":30.6,"la2":28.766,"lo1":-90.7593,"lo2":-88.6598,"dy":0.0162,"dx":0.0183,"nx":116,"ny":114,"refTime":"2023-02-22T18:00:00:Z","depth":0,"parameterNumber":3,"parameterNumberName":"V-component_of_WINDS"},"data":[0.0,0.0,0.0,0.0,0.0,0.0,0.0,0.0,0.0,0.0,0.0,0.0,0.0,0.0,0.0,0.0,0.0,0.0,0.0,0.0,0.0,0.0,0.0,0.0,0.0,0.0,0.0,0.0,0.0,0.0,0.0,0.0,0.0,0.0,0.0,0.0,0.0,0.0,0.0,0.0,0.0,0.0,0.0,0.0,0.0,0.0,0.0,0.0,0.0,0.0,0.0,0.0,0.0,0.0,0.0,0.0,0.0,0.0,0.0,0.0,0.0,0.0,0.0,0.0,0.0,0.0,0.0,0.0,0.0,0.0,0.0,0.0,0.0,0.0,0.0,0.0,0.0,0.0,0.0,0.0,0.0,0.0,0.0,0.0,0.0,0.0,0.0,0.0,0.0,0.0,0.0,0.0,0.0,0.0,0.0,0.0,0.0,0.0,0.0,0.0,0.0,0.0,0.0,0.0,0.0,0.0,0.0,0.0,0.0,0.0,0.0,0.0,0.0,0.0,0.0,0.0,0.0,0.0,0.0,0.0,0.0,0.0,0.0,0.0,0.0,0.0,0.0,0.0,0.0,0.0,0.0,0.0,0.0,0.0,0.0,0.0,0.0,0.0,0.0,0.0,0.0,0.0,0.0,0.0,0.0,0.0,0.0,0.0,0.0,0.0,0.0,0.0,0.0,0.0,0.0,0.0,0.0,0.0,0.0,0.0,0.0,0.0,0.0,0.0,0.0,0.0,0.0,0.0,0.0,0.0,0.0,0.0,0.0,0.0,0.0,0.0,0.0,0.0,0.0,0.0,0.0,0.0,0.0,0.0,0.0,0.0,0.0,0.0,0.0,0.0,0.0,0.0,0.0,0.0,0.0,0.0,0.0,0.0,0.0,0.0,0.0,0.0,0.0,0.0,0.0,0.0,0.0,0.0,0.0,0.0,0.0,0.0,0.0,0.0,0.0,0.0,0.0,0.0,0.0,0.0,0.0,0.0,0.0,0.0,0.0,0.0,0.0,0.0,0.0,0.0,0.0,0.0,0.0,0.0,0.0,0.0,0.0,0.0,0.0,0.0,0.0,0.0,0.0,0.0,0.0,0.0,0.0,0.0,0.0,0.0,0.0,0.0,0.0,0.0,0.0,0.0,0.0,0.0,0.0,0.0,0.0,0.0,0.0,0.0,0.0,0.0,0.0,0.0,0.0,0.0,0.0,0.0,0.0,0.0,0.0,0.0,0.0,0.0,0.0,0.0,0.0,0.0,0.0,0.0,0.0,0.0,0.0,0.0,0.0,0.0,0.0,0.0,0.0,0.0,0.0,0.0,0.0,0.0,0.0,0.0,0.0,0.0,0.0,0.0,0.0,0.0,0.0,0.0,0.0,0.0,0.0,0.0,0.0,0.0,0.0,0.0,0.0,0.0,0.0,0.0,0.0,0.0,0.0,0.0,0.0,0.0,0.0,0.0,0.0,0.0,0.0,0.0,0.0,0.0,0.0,0.0,0.0,0.0,0.0,0.0,0.0,0.0,0.0,0.0,0.0,0.0,0.0,0.0,0.0,0.0,0.0,0.0,0.0,0.0,0.0,0.0,0.0,0.0,0.0,0.0,0.0,0.0,0.0,0.0,0.0,0.0,0.0,0.0,0.0,0.0,0.0,0.0,0.0,0.0,0.0,0.0,0.0,0.0,0.0,0.0,0.0,0.0,0.0,0.0,0.0,0.0,0.0,0.0,0.0,0.0,0.0,0.0,0.0,0.0,0.0,0.0,0.0,0.0,0.0,0.0,0.0,0.0,0.0,0.0,0.0,0.0,0.0,0.0,0.0,0.0,0.0,0.0,0.0,0.0,0.0,0.0,0.0,0.0,0.0,0.0,0.0,0.0,0.0,0.0,0.0,0.0,0.0,0.0,0.0,0.0,0.0,0.0,0.0,0.0,0.0,0.0,0.0,0.0,0.0,0.0,0.0,0.0,0.0,0.0,0.0,0.0,0.0,0.0,0.0,0.0,0.0,0.0,0.0,0.0,0.0,0.0,0.0,0.0,0.0,0.0,0.0,0.0,0.0,0.0,0.0,0.0,0.0,0.0,0.0,0.0,0.0,0.0,0.0,0.0,0.0,0.0,0.0,0.0,0.0,0.0,0.0,0.0,0.0,0.0,0.0,0.0,0.0,0.0,0.0,0.0,0.0,0.0,0.0,0.0,0.0,0.0,0.0,0.0,0.0,0.0,0.0,0.0,0.0,0.0,0.0,0.0,0.0,0.0,0.0,0.0,0.0,0.0,0.0,0.0,0.0,0.0,0.0,0.0,0.0,0.0,0.0,0.0,0.0,0.0,0.0,0.0,0.0,0.0,0.0,0.0,0.0,0.0,0.0,0.0,0.0,0.0,0.0,0.0,0.0,0.0,0.0,0.0,0.0,0.0,0.0,0.0,0.0,0.0,0.0,0.0,0.0,0.0,0.0,0.0,0.0,0.0,0.0,0.0,0.0,0.0,0.0,0.0,0.0,0.0,0.0,0.0,0.0,0.0,0.0,0.0,0.0,0.0,0.0,0.0,0.0,0.0,0.0,0.0,0.0,0.0,0.0,0.0,0.0,0.0,0.0,0.0,0.0,0.0,0.0,0.0,0.0,0.0,0.0,0.0,0.0,0.0,0.0,0.0,0.0,0.0,0.0,0.0,0.0,0.0,0.0,0.0,0.0,0.0,0.0,0.0,0.0,0.0,0.0,0.0,0.0,0.0,0.0,0.0,0.0,0.0,0.0,0.0,0.0,0.0,0.0,0.0,0.0,0.0,0.0,0.0,0.0,0.0,0.0,0.0,0.0,0.0,0.0,0.0,0.0,0.0,0.0,0.0,0.0,0.0,0.0,0.0,0.0,0.0,0.0,0.0,0.0,0.0,0.0,0.0,0.0,0.0,0.0,0.0,0.0,0.0,0.0,0.0,0.0,0.0,0.0,0.0,0.0,0.0,0.0,0.0,0.0,0.0,0.0,0.0,0.0,0.0,0.0,0.0,0.0,0.0,0.0,0.0,0.0,0.0,0.0,0.0,0.0,0.0,0.0,0.0,0.0,0.0,0.0,0.0,0.0,0.0,0.0,0.0,0.0,0.0,0.0,0.0,0.0,0.0,0.0,0.0,0.0,0.0,0.0,0.0,0.0,0.0,0.0,0.0,0.0,0.0,0.0,0.0,0.0,0.0,0.0,0.0,0.0,0.0,0.0,0.0,0.0,0.0,0.0,0.0,0.0,0.0,0.0,0.0,0.0,0.0,0.0,0.0,0.0,0.0,0.0,0.0,0.0,0.0,0.0,0.0,0.0,0.0,0.0,0.0,0.0,0.0,0.0,0.0,0.0,0.0,0.0,0.0,0.0,0.0,0.0,0.0,0.0,0.0,0.0,0.0,0.0,0.0,0.0,0.0,0.0,0.0,0.0,0.0,0.0,0.0,0.0,0.0,0.0,0.0,0.0,0.0,0.0,0.0,0.0,0.0,0.0,0.0,0.0,0.0,0.0,0.0,0.0,0.0,0.0,0.0,0.0,0.0,0.0,0.0,0.0,0.0,0.0,0.0,0.0,0.0,0.0,0.0,0.0,0.0,0.0,0.0,0.0,0.0,0.0,0.0,0.0,0.0,0.0,0.0,0.0,0.0,0.0,0.0,0.0,0.0,0.0,0.0,0.0,0.0,0.0,0.0,0.0,0.0,0.0,0.0,0.0,0.0,0.0,0.0,0.0,0.0,0.0,0.0,0.0,0.0,0.0,0.0,0.0,0.0,0.0,0.0,0.0,0.0,0.0,0.0,0.0,0.0,0.0,0.0,0.0,0.0,0.0,0.0,0.0,0.0,0.0,0.0,0.0,0.0,0.0,0.0,0.0,0.0,0.0,0.0,0.0,0.0,0.0,0.0,0.0,0.0,0.0,0.0,0.0,0.0,0.0,0.0,0.0,0.0,0.0,0.0,0.0,0.0,0.0,0.0,0.0,0.0,0.0,0.0,0.0,0.0,0.0,0.0,0.0,0.0,0.0,0.0,0.0,0.0,0.0,0.0,0.0,0.0,0.0,0.0,0.0,0.0,0.0,0.0,0.0,0.0,0.0,0.0,0.0,0.0,0.0,0.0,0.0,0.0,0.0,0.0,0.0,0.0,0.0,0.0,0.0,0.0,0.0,0.0,0.0,0.0,0.0,0.0,0.0,0.0,0.0,0.0,0.0,0.0,0.0,0.0,0.0,0.0,0.0,0.0,0.0,0.0,0.0,0.0,0.0,0.0,0.0,0.0,0.0,0.0,0.0,0.0,0.0,0.0,0.0,0.0,0.0,0.0,0.0,0.0,0.0,0.0,0.0,0.0,0.0,0.0,0.0,0.0,0.0,0.0,0.0,0.0,0.0,0.0,0.0,0.0,0.0,0.0,0.0,0.0,0.0,0.0,0.0,0.0,0.0,0.0,0.0,0.0,0.0,0.0,0.0,0.0,0.0,0.0,0.0,0.0,0.0,0.0,0.0,0.0,0.0,0.0,0.0,0.0,0.0,0.0,0.0,0.0,0.0,0.0,0.0,0.0,0.0,0.0,0.0,0.0,0.0,0.0,0.0,0.0,0.0,0.0,0.0,0.0,0.0,0.0,0.0,0.0,0.0,0.0,0.0,0.0,0.0,0.0,0.0,0.0,0.0,0.0,0.0,0.0,0.0,0.0,0.0,0.0,0.0,0.0,0.0,0.0,0.0,0.0,0.0,0.0,0.0,0.0,0.0,0.0,0.0,0.0,0.0,0.0,0.0,0.0,0.0,0.0,0.0,0.0,0.0,0.0,0.0,0.0,0.0,0.0,0.0,0.0,0.0,0.0,0.0,0.0,0.0,0.0,0.0,0.0,0.0,0.0,0.0,0.0,0.0,0.0,0.0,0.0,0.0,0.0,0.0,0.0,0.0,0.0,0.0,0.0,0.0,0.0,0.0,0.0,0.0,0.0,0.0,0.0,0.0,0.0,0.0,0.0,0.0,0.0,0.0,0.0,0.0,0.0,0.0,0.0,0.0,0.0,0.0,0.0,0.0,0.0,0.0,0.0,0.0,0.0,0.0,0.0,0.0,0.0,0.0,0.0,0.0,0.0,0.0,0.0,0.0,0.0,0.0,0.0,0.0,0.0,0.0,0.0,0.0,0.0,0.0,0.0,0.0,0.0,0.0,0.0,0.0,0.0,0.0,0.0,0.0,0.0,0.0,0.0,0.0,0.0,0.0,0.0,0.0,0.0,0.0,0.0,0.0,0.0,0.0,0.0,0.0,0.0,0.0,0.0,0.0,0.0,0.0,0.0,0.0,0.0,0.0,0.0,0.0,0.0,0.0,0.0,0.0,0.0,0.0,0.0,0.0,0.0,0.0,0.0,0.0,0.0,0.0,0.0,0.0,0.0,0.0,0.0,0.0,0.0,0.0,0.0,0.0,0.0,0.0,0.0,0.0,0.0,0.0,0.0,0.0,0.0,0.0,0.0,0.0,0.0,0.0,0.0,0.0,0.0,0.0,0.0,0.0,0.0,0.0,0.0,0.0,0.0,0.0,0.0,0.0,0.0,0.0,0.0,0.0,0.0,0.0,0.0,0.0,0.0,0.0,0.0,0.0,0.0,0.0,0.0,0.0,0.0,0.0,0.0,0.0,0.0,0.0,0.0,0.0,0.0,0.0,0.0,0.0,0.0,0.0,0.0,0.0,0.0,0.0,0.0,0.0,0.0,0.0,0.0,0.0,0.0,0.0,0.0,0.0,0.0,0.0,0.0,0.0,0.0,0.0,0.0,0.0,0.0,0.0,0.0,0.0,0.0,0.0,0.0,0.0,0.0,0.0,0.0,0.0,0.0,0.0,0.0,0.0,0.0,0.0,0.0,0.0,0.0,0.0,0.0,0.0,0.0,0.0,0.0,0.0,0.0,0.0,0.0,0.0,0.0,0.0,0.0,0.0,0.0,0.0,0.0,0.0,0.0,0.0,0.0,0.0,0.0,0.0,0.0,0.0,0.0,0.0,0.0,0.0,0.0,0.0,0.0,0.0,0.0,0.0,0.0,0.0,0.0,0.0,0.0,0.0,0.0,0.0,0.0,0.0,0.0,0.0,0.0,0.0,0.0,0.0804,0.0,0.0,0.0,0.0,0.0,0.0,0.0,0.0,0.0,0.0,0.0,0.0,0.0,0.0,0.0,0.0,0.0,0.0,0.0,0.0,0.0,0.0,0.0,0.0,0.0,0.0,0.0,0.0,0.0,0.0,0.0,0.0,0.0,0.0,0.0,0.0,0.0,0.0,0.0,0.0,0.0,0.0,0.0,0.0,0.0,0.0,0.0,0.0,0.0,0.0,0.0,0.0,0.0,0.0,0.0,0.0,0.0,0.0,0.0,0.0,0.0,0.0,0.0,0.0,0.0,0.0,0.0,0.0,0.0,0.0,0.0,0.0,0.0,0.0,0.0,0.0,0.0,0.0,0.0,0.0,0.0,0.0,0.0,0.0,0.0,0.0,0.0,0.0,0.0,0.0,0.0,0.0,0.0,0.0,0.0,0.0,0.0,0.0,0.0,0.0,0.0,0.0,0.0,0.0,0.0,0.0,0.0,0.0,0.0,0.0,0.0,0.0,0.0,0.0,0.0,0.0,0.0867,0.0,0.0,0.0,0.0,0.0,0.0,0.0,0.0,0.0,0.0,0.0,0.0,0.0,0.0,0.0,0.0,0.0,0.0,0.0,0.0,0.0,0.0,0.0,0.0,0.0,0.0,0.0,0.0,0.0,0.0,0.0,0.0,0.0,0.0,0.0,0.0,0.0,0.0,0.0,0.0,0.0,0.0,0.0,0.0,0.0,0.0,0.0,0.0,0.0,0.0,0.0,0.0,0.0,0.0,0.0,0.0,0.0,0.0,0.0,0.0,0.0,0.0,0.0,0.0,0.0,0.0,0.0,0.0,0.0,0.0,0.0,0.0,0.0,0.0,0.0,0.0,0.0,0.0,0.0,0.0,0.0,0.0,0.0,0.0,0.0,0.0,0.0,0.0,0.0,0.0,0.0,0.0,0.0,0.0,0.0,0.0,0.0,0.0,0.0,0.0,0.0,0.0,0.0,0.0,0.0,0.0,0.0,0.0,0.1681,0.1741,0.1793,0.168,0.1523,0.1369,0.1112,0.0966,0.0914,0.0851,0.0,0.0,0.0,0.0,0.0,0.0,0.0,0.0,0.0,0.0,0.0,0.0,0.0,0.0,0.0,0.0,0.0,0.0,0.0,0.0,0.0,0.0,0.0,0.0,0.0,0.0,0.0,0.0,0.0,0.0,0.0,0.0,0.0,0.0,0.0,0.0,0.0,0.0,1.3247,1.3469,1.3778,1.4049,0.0,0.0,0.0,0.0,0.0,0.0,0.0,0.0,0.0,0.0,0.0,0.0,0.0,0.0,0.0,0.0,0.0,0.0,0.0,0.0,0.0,0.0,0.0,0.0,0.0,0.0,0.0,0.0,0.0,0.0,0.0,0.0,0.0,0.0,0.0,0.0,0.0,0.0,0.0,0.0,0.0,0.0,0.0,0.0,0.4031,0.39,0.0,0.0,0.0,0.0,0.0,0.0,0.0,0.0,0.0,0.0,0.0,0.0,0.0,0.2431,0.1649,0.197,0.214,0.2112,0.2127,0.2147,0.2208,0.1852,0.1704,0.1711,0.1461,0.0,0.0987,0.092,0.0,0.0,0.0,0.0,0.0,0.0,0.0,0.0,0.0,0.0,0.0,0.0,0.0,0.0,0.0,0.0,0.0,0.0,0.0,0.0,0.0,0.0,0.0,0.0,0.0,0.0,0.0,0.0,0.0,0.0,0.0,0.0,0.0,0.0,0.0,0.0,0.0,1.362,1.4631,1.5051,1.5469,1.582,1.4394,1.3193,1.2245,1.2158,0.0,0.0,0.0,0.0,0.0,0.0,0.0,0.0,0.0,0.0,0.0,0.0,0.0,0.0,0.0,0.0,0.0,0.0,0.0,0.0,0.0,0.0,0.0,0.0,0.0,0.0,0.0,0.0,0.0,0.0,0.0,0.0,0.0,0.0,0.0,0.0,0.0,0.0,0.0,0.3866,0.3866,0.3744,0.3853,0.38,0.0,0.0,0.0,0.0,0.0,0.0,0.0,0.0,0.0,0.3122,0.2924,0.2566,0.205,0.2203,0.2339,0.2434,0.2424,0.2471,0.256,0.2167,0.2024,0.2058,0.1763,0.1525,0.1373,0.1119,0.0987,0.0945,0.0,0.0,0.0,0.0,0.0314,0.0143,0.0,0.0,0.0,0.0,0.0,0.0,0.0,0.0,0.0,0.0,0.0,0.0,0.0,0.0,0.0,0.9831,0.0,0.0,0.0,0.0,0.0,0.0,0.0,0.0,0.0,0.0,0.0,0.0,0.0,0.0,0.0,0.0,0.0,0.0,0.0,1.5169,1.317,1.3321,0.0,0.0,0.0,0.0,0.0,0.0,0.0,0.0,0.0,0.0,0.0,0.0,0.0,0.0,0.0,0.0,0.0,0.0,0.0,0.0,0.0,0.0,0.0,0.0,0.0,0.0,0.0,0.0,0.0,0.0,0.0,0.0,0.0,0.0,0.0,0.0,0.0,0.0,0.0,0.3779,0.3808,0.3748,0.3836,0.3767,0.0,0.0,0.0,0.0,0.0,0.0,0.4407,0.4278,0.3927,0.3355,0.3147,0.2829,0.2374,0.2376,0.2471,0.2618,0.2636,0.2686,0.2754,0.2464,0.2347,0.2376,0.2104,0.1922,0.1796,0.1419,0.1184,0.1085,0.1103,0.1096,0.1074,0.0811,0.074,0.0787,0.0,0.0,0.0,0.0,0.0,0.0,0.0,0.0,0.0,0.0,0.0,0.0,0.0,0.0,1.0862,1.1337,1.1509,1.1213,0.0,0.0,0.0,0.0,0.0,0.0,0.0,0.0,0.0,0.0,0.0,0.0,0.0,0.0,0.0,0.0,0.0,0.0,0.0,0.0,0.0,0.0,0.0,0.0,0.0,0.0,0.0,0.0,0.0,0.0,0.0,0.0,0.0,0.0,0.0,0.0,0.0,0.0,0.0,0.0,0.0,0.0,0.0,0.0,0.0,0.0,0.0,0.0,0.0,0.0,0.0,0.0,0.0,0.0,0.0,0.0,0.0,0.0,0.0,0.0,0.0,0.4173,0.401,0.0,0.0,0.0,0.0,0.4445,0.4938,0.524,0.524,0.541,0.5028,0.3993,0.3947,0.3497,0.2592,0.2595,0.2614,0.2704,0.2681,0.2708,0.2704,0.2687,0.2689,0.2685,0.2519,0.2362,0.2153,0.1798,0.1624,0.1543,0.1421,0.1373,0.1341,0.0933,0.0756,0.071,0.0,0.0,0.0,0.0,0.0,0.0,0.0,0.0,0.0,0.0,0.0,0.0,0.0,1.185,1.251,1.254,1.2997,1.2762,1.1565,0.0,0.0,0.0,0.0,0.0,0.0,0.0,0.0,0.0,0.0,0.0,0.0,0.0,0.0,0.0,0.0,0.0,0.0,0.0,0.0,0.0,0.0,0.0,0.0,0.0,0.0,0.0,0.0,0.0,0.0,0.0,0.0,0.0,0.0,0.0,0.0,0.0,0.0,0.0,0.0,0.0,0.0,0.0,0.0,0.0,0.0,0.0,0.0,0.0,0.0,0.0,0.0,0.0,0.0,0.0,0.0,0.0,0.0,0.0,0.0,0.3882,0.4042,0.0,0.4063,0.4337,0.4561,0.4626,0.5003,0.523,0.523,0.5302,0.5119,0.4608,0.4072,0.3675,0.3363,0.2695,0.2434,0.2632,0.2604,0.2577,0.2577,0.2663,0.2691,0.2691,0.241,0.2336,0.2366,0.2035,0.173,0.1463,0.1312,0.1262,0.1259,0.1117,0.1079,0.1102,0.0,0.0,0.0,0.0,0.0,0.0,0.0,0.0,0.0,0.0,0.0,1.0945,1.1689,1.3105,1.4002,1.4015,1.4225,1.3783,1.2434,0.0,0.0,0.0,0.0,0.0,0.0,0.0,0.0,0.0,0.0,0.0,0.0,0.0,0.0,0.0,0.0,0.0,0.0,0.0,0.0,0.0,0.0,0.0,1.2901,0.0,0.0,0.0,0.0,0.0,0.0,0.0,0.0,0.0,0.0,0.0,0.0,0.0,0.0,0.0,0.0,0.0,0.0,0.0,0.0,0.0,0.0,0.0,0.0,0.0,0.0,0.0,0.0,0.0,0.0,0.0,0.0,0.0,0.0,0.0,0.4082,0.4254,0.4322,0.4349,0.4333,0.4658,0.4892,0.4956,0.5094,0.5178,0.5178,0.4969,0.473,0.4477,0.3848,0.3489,0.3426,0.2689,0.2407,0.2634,0.2578,0.2577,0.2577,0.2663,0.2691,0.2691,0.2465,0.2437,0.2549,0.2212,0.1909,0.1648,0.1413,0.1256,0.1152,0.1126,0.1116,0.1166,0.0,0.0,0.0,0.0,0.0,0.0,0.0,0.0,0.0,0.0,1.048,1.1523,1.28,1.4182,1.526,1.5783,1.5116,1.4173,1.2902,1.1611,0.0,0.0,0.0,0.0,0.0,0.0,0.0,0.0,0.0,0.0,0.0,0.0,0.0,0.0,0.0,0.0,0.0,0.0,0.0,0.0,0.0,0.0,1.4867,0.0,0.0,0.0,0.0,0.0,0.0,0.0,0.0,0.0,0.0,0.0,0.0,0.0,0.0,0.0,0.0,0.0,0.0,0.0,0.0,0.0,0.0,0.0,0.0,0.0,0.0,0.0,0.0,0.0,0.0,0.0,0.0,0.0,0.5674,0.5116,0.4824,0.5343,0.4886,0.4617,0.4808,0.5068,0.5295,0.5492,0.5251,0.5105,0.5097,0.4512,0.4015,0.363,0.3269,0.297,0.2727,0.2581,0.2551,0.2695,0.2691,0.2691,0.2691,0.2691,0.2691,0.2691,0.2691,0.2691,0.2663,0.2324,0.2212,0.2156,0.1766,0.1403,0.1094,0.0982,0.0926,0.0926,0.0,0.0,0.0,0.0,0.0,0.0,0.0,0.0,0.0,0.0,1.1057,1.237,1.3625,1.4988,1.5912,1.6205,1.5201,1.4179,1.3285,0.0,0.0,0.0,0.0,0.0,0.0,0.0,0.0,0.0,0.0,0.0,0.0,0.0,0.0,0.0,0.0,0.0,0.0,0.0,0.0,0.0,0.0,0.0,1.5218,0.0,0.0,0.0,0.0,0.0,0.0,0.0,0.0,0.0,0.0,0.0,0.0,0.0,0.0,0.0,0.0,0.0,0.0,0.0,0.0,0.0,0.0,0.0,0.0,0.0,0.0,0.0,0.0,0.0,0.0,0.0,0.0,0.563,0.5148,0.5059,0.5133,0.5447,0.5485,0.551,0.546,0.5599,0.5619,0.5377,0.5158,0.4975,0.4833,0.4239,0.3977,0.4098,0.3365,0.3116,0.3508,0.2607,0.2296,0.2613,0.2437,0.241,0.2549,0.2663,0.2691,0.2691,0.2437,0.2465,0.2663,0.2324,0.2212,0.2183,0.1875,0.168,0.1596,0.1568,0.154,0.154,0.0,0.0,0.0,0.0,0.0,0.0,0.0,0.0,0.0,0.0,1.1581,1.3022,1.4105,1.5658,1.6508,1.6248,1.4989,1.3807,1.2914,0.0,0.0,0.0,0.0,0.0,0.0,0.0,0.0,0.0,0.0,0.0,0.0,0.0,0.0,0.0,0.0,0.0,0.0,0.0,0.0,0.0,0.0,0.0,1.713,1.5419,1.4702,1.4516,1.3751,1.3716,1.3885,1.3094,0.0,0.0,0.0,0.0,0.0,0.0,0.0,0.0,0.0,0.0,0.0,0.0,0.0,0.0,0.0,0.0,0.0,0.0,0.0,0.0,0.0,0.0,0.0,0.0,0.6464,0.6386,0.6064,0.5845,0.5761,0.5954,0.5935,0.5878,0.5797,0.5913,0.5884,0.5645,0.5103,0.4733,0.4622,0.3744,0.3383,0.3621,0.2964,0.2849,0.3343,0.2596,0.2319,0.2565,0.246,0.2437,0.2493,0.2635,0.2691,0.2691,0.2493,0.2521,0.2691,0.2493,0.241,0.0,0.0,0.0,0.0,0.0,0.179,0.179,0.0,0.0,0.0,0.0,0.0,0.0,0.0,0.0,0.0,0.0,0.0,1.3451,1.419,1.5858,1.6638,1.5912,1.444,1.3136,0.0,0.0,0.0,1.4061,0.0,0.0,0.0,0.0,0.0,0.0,0.0,0.0,0.0,0.0,0.0,0.0,0.0,0.0,0.0,0.0,0.0,0.0,0.0,0.0,1.9705,1.7522,1.6891,1.6996,1.5763,1.508,1.4738,1.4409,0.0,0.0,0.0,0.0,0.0,0.0,0.0,0.0,0.0,0.0,0.0,0.0,0.0,0.0,0.0,0.0,0.0,0.0,0.0,0.0,0.0,0.0,0.0,0.0,0.6994,0.7184,0.7653,0.7102,0.6664,0.6737,0.6371,0.6075,0.5983,0.6112,0.6125,0.5943,0.5042,0.4474,0.4371,0.0,0.0,0.0,0.0,0.238,0.2691,0.2577,0.2499,0.2508,0.2621,0.2593,0.2508,0.2621,0.2679,0.2677,0.2695,0.2703,0.2691,0.2699,0.2697,0.2649,0.2366,0.2112,0.1885,0.1914,0.1908,0.1903,0.0,0.0,0.0,0.0,0.0,0.0,0.0,0.0,0.0,1.0957,1.2201,1.3164,1.3479,1.4137,1.465,1.4852,1.317,1.2092,0.0,0.0,0.0,0.0,0.0,0.0,0.0,0.0,0.0,0.0,0.0,0.0,0.0,0.0,0.0,0.0,0.0,0.0,0.0,0.0,0.0,0.0,0.0,0.0,2.0614,1.9135,1.8403,1.804,1.7399,1.7479,1.7652,1.6437,1.6328,1.6424,1.4917,0.0,0.0,0.0,0.0,0.0,0.0,0.0,0.0,0.0,0.0,0.0,0.0,0.0,0.0,0.0,0.0,0.0,0.0,0.0,0.0,0.7885,0.7827,0.7819,0.7932,0.7996,0.7957,0.7745,0.756,0.721,0.6592,0.6665,0.6254,0.5063,0.4665,0.4231,0.3646,0.2893,0.2549,0.2691,0.2521,0.2521,0.2691,0.2577,0.2527,0.2566,0.0,0.0,0.2596,0.2596,0.2625,0.2621,0.2667,0.2688,0.2686,0.2695,0.2677,0.2625,0.2654,0.2596,0.2448,0.2566,0.2581,0.2531,0.0,0.0,0.0,0.0,0.0,0.0,0.0,0.0,0.0,0.0,1.1871,1.2456,1.263,1.2979,1.3127,1.2965,1.1866,0.0,0.0,1.2653,0.0,0.0,0.0,0.0,0.0,0.0,0.0,0.0,0.0,0.0,0.0,0.0,0.0,0.0,0.0,0.0,0.0,0.0,0.0,0.0,0.0,0.0,2.2143,2.1172,2.0493,2.0038,1.9558,1.9416,1.9248,1.8249,1.8027,1.7967,1.6552,1.5168,1.3834,0.0,0.0,0.0,0.0,0.0,0.0,0.0,0.0,0.0,0.0,0.0,0.0,0.0,0.0,0.9494,0.0,0.0,0.8769,0.8657,0.836,0.8208,0.8318,0.8465,0.834,0.7708,0.7607,0.7283,0.6628,0.6593,0.6422,0.5836,0.5008,0.4423,0.4252,0.319,0.2655,0.2758,0.2672,0.2721,0.2851,0.2792,0.2728,0.2653,0.2651,0.2619,0.2562,0.2711,0.2681,0.2499,0.2639,0.2638,0.2554,0.2565,0.2518,0.2467,0.2622,0.269,0.2683,0.2831,0.289,0.2859,0.0,0.0,0.0,0.0,0.0,0.0,0.0,0.0,0.0,0.0,0.0,1.1744,1.1901,1.1936,1.1651,0.0,0.0,0.0,0.0,0.0,0.0,0.0,0.0,0.0,0.0,0.0,0.0,0.0,0.0,0.0,0.0,0.0,0.0,0.0,0.0,0.0,0.0,0.0,0.0,0.0,0.0,0.0,2.3563,2.304,2.2457,2.1869,2.1311,2.0615,1.9891,1.9328,1.8997,1.8606,1.7811,1.6537,1.5008,1.3388,1.1365,0.0,0.0,0.0,0.0,0.0,0.0,0.0,0.0,0.0,0.9317,0.9427,0.9827,1.014,1.0132,0.9728,0.9383,0.9271,0.8785,0.8489,0.8663,0.8717,0.8416,0.7471,0.7389,0.7168,0.6506,0.6446,0.6402,0.635,0.513,0.4471,0.4616,0.3372,0.2701,0.2791,0.2822,0.2885,0.2954,0.2985,0.2903,0.2706,0.289,0.2797,0.252,0.2826,0.2733,0.2396,0.2568,0.2558,0.2468,0.2451,0.2399,0.2386,0.2548,0.2681,0.2759,0.2925,0.2968,0.2987,0.0,0.0,0.0,0.0,0.0,0.0,0.0,0.0,0.0,0.0,0.0,0.0,0.0,0.0,0.0,0.0,0.0,0.0,0.0,0.0,0.0,0.0,0.0,0.0,0.0,0.0,0.0,0.0,0.0,0.0,0.0,0.0,0.0,0.0,0.0,0.0,0.0,0.0,0.0,0.0,0.0,0.0,2.4116,2.4033,2.3346,2.2304,2.1424,2.0442,1.9495,1.8879,1.8491,1.8255,1.8159,1.7533,1.6407,1.4024,0.0,1.0525,0.8396,0.7632,0.7482,0.7792,0.8108,0.8415,0.0,0.0,0.9932,0.9982,1.0696,1.1227,1.1003,1.0536,1.0004,0.9471,0.9119,0.8883,0.8708,0.8865,0.8603,0.7686,0.7789,0.7571,0.6655,0.657,0.5983,0.4532,0.4182,0.3699,0.292,0.2702,0.2645,0.2699,0.2881,0.2885,0.2745,0.2926,0.2931,0.2785,0.2817,0.2755,0.2601,0.2755,0.2628,0.2314,0.2408,0.2528,0.2658,0.2605,0.2574,0.2581,0.2581,0.2745,0.2953,0.2845,0.2896,0.2997,0.0,0.0,0.0,0.0,0.0,0.0,0.0,0.0,0.0,0.0,0.0,0.0,0.0,0.0,0.0,0.0,0.0,0.0,0.0,0.0,0.0,0.0,0.0,0.0,0.0,0.0,0.0,0.0,0.0,0.0,0.0,0.0,0.0,0.0,0.0,0.0,0.0,0.0,0.0,0.0,0.0,0.0,2.4147,2.3453,2.2579,2.1569,2.0792,1.9607,0.0,0.0,1.7445,1.7004,1.7203,1.6557,1.5213,1.2677,1.1352,0.0,0.851,0.8023,0.819,0.0,0.9305,0.9676,1.0144,1.0708,1.1157,1.1195,1.1288,1.1407,1.1478,1.0653,0.9906,0.0,0.9207,0.8788,0.8727,0.878,0.8562,0.7797,0.7554,0.7216,0.6696,0.6375,0.5915,0.5189,0.4575,0.3934,0.3221,0.2747,0.2577,0.2748,0.2763,0.281,0.2861,0.2959,0.2976,0.2909,0.2994,0.2971,0.2841,0.2971,0.2905,0.271,0.2608,0.2555,0.2536,0.263,0.2545,0.2381,0.2447,0.2564,0.2686,0.2852,0.3013,0.3117,0.0,0.0,0.0,0.0,0.0,0.0,0.0,0.0,0.0,0.0,0.0,0.0,0.0,0.0,0.0,0.0,0.0,0.0,0.0,0.0,0.0,0.0,0.0,0.0,0.0,0.0,0.0,0.0,0.0,0.0,0.0,0.0,0.0,0.0,0.0,0.0,0.0,0.0,0.0,0.0,0.0,0.0,2.3502,2.2426,2.1191,1.9893,1.9262,1.8081,0.0,0.0,1.5587,1.5275,1.5577,1.494,1.3662,1.1531,1.0368,0.9542,0.8542,0.0,0.0,0.9851,1.0504,1.1027,1.1284,1.1657,1.1906,1.1714,1.1364,1.1124,1.127,1.0421,0.9717,0.9588,0.9079,0.8703,0.8703,0.8656,0.8426,0.7929,0.7367,0.6922,0.6717,0.6212,0.5755,0.5463,0.4759,0.4014,0.3215,0.2672,0.2466,0.2635,0.2656,0.272,0.2901,0.2964,0.2999,0.2972,0.3101,0.3071,0.2886,0.2924,0.2957,0.2957,0.2717,0.2568,0.2518,0.2618,0.2573,0.2424,0.241,0.2486,0.2586,0.2856,0.3044,0.3159,0.0,0.0,0.0,0.0,0.0,0.0,0.0,0.0,0.0,0.0,0.0,0.0,0.0,0.0,0.0,0.0,0.0,0.0,0.0,0.0,0.0,0.0,0.0,0.0,0.0,0.0,0.0,0.0,0.0,0.0,0.0,0.0,0.0,0.0,0.0,0.0,0.0,0.0,0.0,0.0,0.0,0.0,2.2085,2.1186,1.9298,1.7038,1.6514,0.0,0.0,0.0,1.2744,1.3037,1.3307,1.2969,0.0,1.1279,0.9781,0.0,0.0,0.0,1.0169,1.0342,1.1533,1.2378,1.141,1.1534,1.1647,1.104,1.0785,1.0484,1.005,0.9906,0.9642,0.8851,0.8703,0.8703,0.8703,0.8533,0.833,0.8118,0.7455,0.6913,0.0,0.6214,0.5458,0.435,0.4238,0.3597,0.2224,0.2315,0.2347,0.2237,0.2588,0.2727,0.2617,0.2868,0.2973,0.2909,0.2976,0.287,0.2614,0.2401,0.2546,0.287,0.2474,0.2509,0.2762,0.2591,0.2689,0.2932,0.2635,0.2695,0.2971,0.2867,0.2888,0.3023,0.0,0.0,0.0,0.0,0.0,0.0,0.0,0.0,0.0,0.0,0.0,0.0,0.0,0.0,0.0,0.0,0.0,0.0,0.0,0.0,0.0,0.0,0.0,0.0,0.0,0.0,0.0,0.0,0.0,0.0,0.0,0.0,0.0,0.0,0.0,0.0,0.0,0.0,0.0,0.0,0.0,0.0,1.985,1.7451,1.5976,1.4819,0.0,0.0,0.0,0.0,0.0,0.0,1.104,0.0,0.0,0.9426,0.0,0.0,0.0,0.0,1.1714,1.2035,1.2836,1.3543,1.342,1.2893,1.2381,1.2046,1.0577,0.9237,0.8953,0.8476,0.8058,0.7922,0.8226,0.85,0.85,0.8341,0.8056,0.7625,0.6933,0.0,0.0,0.0,0.0,0.4058,0.4028,0.3402,0.1858,0.201,0.2154,0.2209,0.2427,0.2591,0.2651,0.2753,0.279,0.2762,0.2824,0.2884,0.2873,0.2698,0.2769,0.2947,0.2784,0.2728,0.28,0.2837,0.2754,0.2666,0.2689,0.2621,0.2555,0.2624,0.2755,0.2893,0.0,0.0,0.0,0.0,0.0,0.0,0.0,0.0,0.0,0.0,0.0,0.0,0.0,0.0,0.0,0.0,0.0,0.0,0.0,0.0,0.0,0.0,0.0,0.0,0.0,0.0,0.0,0.0,0.0,0.0,0.0,0.0,0.0,0.0,0.0,0.0,0.0,0.0,0.0,0.0,0.0,0.0,1.6904,1.4659,1.3267,0.0,0.0,0.0,0.0,0.0,0.0,0.0,0.0,0.0,0.0,0.0,0.0,0.0,0.0,1.1593,1.2722,1.3247,1.3843,1.4193,1.3678,1.2991,1.217,1.1218,0.9576,0.8174,0.7891,0.7345,0.6979,0.7138,0.7405,0.7736,0.8136,0.7943,0.7659,0.7491,0.6989,0.6532,0.0,0.0,0.0,0.4253,0.4124,0.3466,0.2016,0.1979,0.2056,0.2056,0.2269,0.2468,0.2644,0.2636,0.2661,0.2684,0.2696,0.2737,0.2812,0.2737,0.2737,0.2813,0.2787,0.2766,0.2772,0.2844,0.2795,0.2635,0.2727,0.262,0.2476,0.2585,0.263,0.2686,0.0,0.0,0.0,0.0,0.0,0.0,0.0,0.0,0.0,0.0,0.0,0.0,0.0,0.0,0.0,0.0,0.0,0.0,0.0,0.0,0.0,0.0,0.0,0.0,0.0,0.0,0.0,0.0,0.0,0.0,0.0,0.0,0.0,0.0,0.0,0.0,0.0,0.0,0.0,0.0,0.0,0.0,1.3356,1.2726,0.0,0.0,0.0,0.0,0.0,0.0,0.0,0.0,0.0,0.0,0.0,0.0,0.0,1.0334,1.1008,1.2109,1.3236,1.3872,1.4494,1.4403,1.2437,1.1862,1.112,0.8891,0.7907,0.7299,0.0,0.0,0.6511,0.6525,0.6389,0.6657,0.7697,0.7444,0.7294,0.0,0.0,0.0,0.0,0.0,0.0,0.4934,0.0,0.3799,0.2565,0.2285,0.2046,0.1818,0.2197,0.2413,0.251,0.2583,0.2626,0.2691,0.2557,0.2506,0.2506,0.2506,0.2506,0.2507,0.251,0.2593,0.2685,0.2685,0.2759,0.289,0.2736,0.2687,0.269,0.269,0.2574,0.2478,0.0,0.0,0.0,0.0,0.0,0.0,0.0,0.0,0.0,0.0,0.0,0.0,0.0,0.0,0.0,0.0,0.0,0.0,0.0,0.0,0.0,0.0,0.0,0.0,0.0,0.0,0.0,0.0,0.0,0.0,0.0,0.0,0.0,0.0,0.0,0.0,0.0,0.0,0.0,0.0,0.0,0.0,1.0875,0.0,0.0,0.0,0.0,0.0,0.0,0.0,0.0,0.0,0.0,0.0,0.8905,0.0,0.0,1.1376,1.2105,1.323,1.4256,1.4596,1.4783,1.4564,1.3319,1.2075,1.0767,0.9235,0.7711,0.6598,0.0,0.0,0.0,0.6959,0.7353,0.0,0.8188,0.8002,0.0,0.7654,0.0,0.6682,0.6367,0.6175,0.0,0.0,0.5016,0.3971,0.2486,0.2566,0.246,0.2118,0.2194,0.2417,0.2707,0.2596,0.255,0.2564,0.2458,0.2519,0.2635,0.2481,0.2519,0.2638,0.2529,0.2593,0.2685,0.2685,0.2712,0.2736,0.2715,0.2639,0.2565,0.2565,0.2574,0.2643,0.0,0.0,0.0,0.0,0.0,0.0,0.0,0.0,0.0,0.0,0.0,0.0,0.0,0.0,0.0,0.0,0.0,0.0,0.0,0.0,0.0,0.0,0.0,0.0,0.0,0.0,0.0,0.0,0.0,0.0,0.0,0.0,0.0,0.0,0.0,0.0,0.0,0.0,0.0,0.0,0.0,0.0,0.0,0.0,0.0,0.0,0.0,0.0,0.0,0.0,0.0,0.9073,0.9281,0.958,0.9957,1.0446,0.0,1.2346,1.3012,1.3952,1.4783,1.5031,1.4907,1.4331,1.2916,1.1559,1.0214,0.8699,0.7349,0.0,0.6391,0.0,0.0,0.0,0.0,0.0,0.7919,0.7956,0.7934,0.0,0.7498,0.0,0.6851,0.6504,0.6325,0.0,0.5449,0.4346,0.3094,0.2944,0.2668,0.2141,0.2188,0.239,0.271,0.2643,0.2589,0.251,0.2476,0.2498,0.2614,0.2498,0.2498,0.2616,0.0,0.2529,0.2614,0.2614,0.2614,0.2614,0.2614,0.2558,0.2511,0.2511,0.2567,0.2614,0.0,0.0,0.0,0.0,0.0,0.0,0.0,0.0,0.0,0.0,0.0,0.0,0.0,0.0,0.0,0.0,0.0,0.0,0.0,0.0,0.0,0.0,0.0,0.0,0.0,0.0,0.0,0.0,0.0,0.0,0.0,0.0,0.0,0.0,0.0,0.0,0.0,0.0,0.0,0.0,0.0,0.0,0.0,0.0,0.0,0.0,0.0,0.0,0.0,0.0,0.9425,0.9813,1.003,1.0658,1.1374,1.1492,1.2226,1.3166,1.3909,1.4503,1.4991,1.5316,1.4911,1.3899,1.1879,1.0757,0.9623,0.7824,0.0,0.6575,0.6633,0.6267,0.5983,0.6125,0.0,0.6458,0.7405,0.7642,0.7896,0.8282,0.8069,0.7765,0.7435,0.6988,0.6709,0.6729,0.5911,0.5022,0.4068,0.3461,0.2755,0.1974,0.222,0.2402,0.2572,0.2712,0.2681,0.2522,0.2515,0.2511,0.2511,0.2511,0.2511,0.2511,0.2511,0.2511,0.2511,0.2511,0.2511,0.2511,0.2511,0.2511,0.2511,0.2511,0.2511,0.255,0.0,0.0,0.0,0.0,0.0,0.0,0.0,0.0,0.0,0.0,0.8996,0.0,0.0,0.0,0.0,0.0,0.0,0.0,0.0,0.0,0.0,0.0,0.0,0.0,0.0,0.0,0.0,0.0,0.0,0.0,0.0,0.0,0.0,0.0,0.0,0.0,0.0,0.0,0.0,0.0,0.0,0.0,0.0,0.0,0.0,0.0,0.0,0.0,0.0,0.0,0.942,1.0422,1.1279,1.175,1.2198,1.2974,1.3383,1.3891,1.4992,1.521,1.5101,1.5333,1.4743,1.3548,1.1546,1.0385,0.0,0.0,0.694,0.6776,0.6904,0.6813,0.6886,0.7404,0.0,0.0,0.0,0.0,0.7902,0.0,0.0,0.0,0.0,0.0,0.0,0.0,0.0,0.6201,0.5248,0.4334,0.3176,0.1807,0.2261,0.2503,0.2341,0.2534,0.2626,0.2585,0.2534,0.2511,0.2511,0.2511,0.2511,0.2511,0.2511,0.0,0.2511,0.2511,0.2511,0.2511,0.2511,0.2511,0.2511,0.2511,0.2589,0.2707,0.0,0.0,0.0,0.0,0.0,0.0,0.0,0.0,0.0,0.9457,0.9215,0.8948,0.0,0.0,0.0,0.0,0.0,0.0,0.0,0.0,0.0,0.0,0.0,0.0,0.0,0.0,0.0,0.0,0.0,0.0,0.0,0.0,0.0,0.0,0.0,0.0,0.0,0.0,0.0,0.0,0.0,0.0,0.0,0.0,0.0,0.0,0.0,0.0,0.0,0.0,0.9223,1.0169,1.1336,1.209,1.267,1.3279,1.3922,1.4645,1.5397,1.554,1.5509,1.5425,1.4443,1.3035,1.1376,0.0,0.0,0.0,0.7113,0.6977,0.7439,0.0,0.0,0.0,0.0,0.0,0.0,0.0,0.0,0.0,0.0,0.0,0.0,0.0,0.0,0.0,0.0,0.6613,0.5634,0.4338,0.3025,0.1754,0.2201,0.2483,0.2439,0.255,0.2626,0.2714,0.2564,0.2511,0.2511,0.2511,0.2511,0.2511,0.2511,0.0,0.2511,0.2511,0.2511,0.2511,0.2511,0.2511,0.2511,0.2511,0.2571,0.2678,0.0,0.0,0.0,0.0,0.0,0.0,0.0,1.004,0.9999,0.9973,0.9401,0.8872,0.8563,0.8268,0.8044,0.0,0.0,0.0,0.0,0.0,0.0,0.0,0.0,0.0,0.0,0.0,0.0,0.0,0.0,0.0,0.0,0.0,0.0,0.0,0.0,0.0,0.0,0.0,0.0,0.0,0.0,0.0,0.0,0.0,0.0,0.0,0.0,0.0,0.0,0.0,0.8859,0.9555,1.0696,1.1794,1.2733,1.3201,1.4129,1.5104,1.5706,1.5886,1.584,1.5553,1.424,1.2696,1.1337,0.9827,0.0,0.0,0.7343,0.7209,0.7806,0.0,0.0,0.0,0.0,0.0,0.0,0.0,0.0,0.0,0.0,0.0,0.0,0.0,0.0,0.0,0.0,0.0,0.5764,0.4321,0.3009,0.1968,0.2221,0.2376,0.2517,0.2545,0.2657,0.281,0.2636,0.2542,0.253,0.253,0.2523,0.2511,0.2511,0.0,0.0,0.2511,0.2511,0.2512,0.2525,0.253,0.2531,0.2545,0.2619,0.2662,0.0,0.0,0.0,0.0,0.0,0.0,0.0,0.9692,0.9622,0.9572,0.9015,0.8641,0.8589,0.8078,0.7732,0.0,0.0,0.0,0.0,0.0,0.0,0.0,0.0,0.0,0.0,0.0,0.0,0.0,0.0,0.0,0.0,0.0,0.0,0.0,0.0,0.0,0.0,0.0,0.0,0.0,0.0,0.0,0.0,0.0,0.0,0.0,0.0,0.0,0.0,0.0,0.0,0.8709,0.9382,1.0603,1.2032,1.3241,0.0,0.0,1.6396,1.6352,1.5876,1.5698,1.4424,1.2843,1.1483,0.0,0.0,0.7795,0.7513,0.7485,0.7622,0.0,0.0,0.0,0.0,0.0,0.0,0.0,0.0,0.0,0.0,0.0,0.0,0.0,0.0,0.0,0.0,0.0,0.5764,0.4913,0.3942,0.2812,0.237,0.2147,0.2231,0.2359,0.2547,0.2801,0.2702,0.2647,0.2593,0.2593,0.2563,0.2511,0.2511,0.0,0.0,0.2511,0.2511,0.2516,0.2571,0.2593,0.26,0.2655,0.2805,0.2937,0.0,0.0,0.0,0.0,0.0,0.0,0.0,1.0108,1.0231,1.0109,0.9792,0.9478,0.9221,0.8662,0.813,0.0,0.0,0.0,0.0,0.0,0.0,0.0,0.0,0.0,0.0,0.0,0.0,0.0,0.0,0.0,0.0,0.0,0.0,0.0,0.0,0.0,0.0,0.0,0.0,0.0,0.0,0.0,0.0,0.0,0.0,0.0,0.0,0.0,0.0,0.0,0.0,0.0,0.8386,0.9136,0.0,0.0,1.3259,1.4231,1.56,1.5957,1.5832,1.5487,1.4126,1.2609,1.1551,0.0,0.8834,0.8208,0.7899,0.7775,0.7872,0.0,0.0,0.0,0.0,0.0,0.0,0.0,0.0,0.0,0.0,0.0,0.0,0.0,0.0,0.0,0.0,0.0,0.6564,0.5183,0.3944,0.2911,0.209,0.1813,0.2069,0.2007,0.2158,0.2514,0.2415,0.2337,0.2193,0.2323,0.2353,0.2364,0.2364,0.0,0.0,0.262,0.262,0.2623,0.2647,0.2655,0.2658,0.2683,0.2758,0.2875,0.0,0.0,0.0,0.0,0.0,0.9811,1.0059,1.0404,1.064,1.0629,1.0315,0.9995,0.9743,0.8989,0.8326,0.7894,0.0,0.0,0.0,0.0,0.0,0.0,0.0,0.0,0.0,0.0,0.0,0.0,0.0,0.0,0.0,0.0,0.0,0.0,0.0,0.0,0.0,0.0,0.0,0.0,0.0,0.0,0.0,0.0,0.0,0.0,0.0,0.0,0.0,0.0,0.0,0.0,0.0,0.0,0.0,0.0,1.2292,1.347,1.4677,1.5347,1.5543,1.4874,1.3607,1.229,0.0,0.0,0.8791,0.8575,0.8277,0.8074,0.8167,0.0,0.0,0.0,0.0,0.0,0.0,0.0,0.0,0.0,0.0,0.0,0.0,0.0,0.0,0.0,0.0,0.0,0.7095,0.5312,0.3978,0.3357,0.2151,0.1648,0.193,0.1798,0.1915,0.2272,0.2237,0.2129,0.1948,0.2119,0.2196,0.2216,0.2216,0.0,0.0,0.2481,0.2481,0.2483,0.25,0.2496,0.2483,0.25,0.2531,0.2608,0.0,0.0,0.0,0.0,0.0,0.0,0.0,1.0338,1.0595,1.0867,1.0254,0.986,0.9979,0.8816,0.8061,0.8187,0.0,0.0,0.0,0.0,0.0,0.0,0.0,0.0,0.0,0.0,0.7691,0.7691,0.8041,0.0,0.0,0.0,0.0,0.0,0.0,0.0,0.0,0.0,0.0,0.0,0.0,0.0,0.0,0.0,0.0,0.0,0.0,0.0,0.0,0.0,0.0,0.0,0.0,0.0,0.0,0.0,1.1237,1.2745,1.3733,1.4606,1.4931,1.3815,1.2822,1.1827,0.0,0.0,0.8568,0.8767,0.8589,0.8395,0.8402,0.0,0.0,0.0,0.0,0.0,0.0,0.0,0.0,0.0,0.0,0.0,0.0,0.0,0.0,0.0,0.0,0.0,0.7095,0.5312,0.4289,0.4287,0.2688,0.1794,0.1794,0.1794,0.1929,0.2198,0.2196,0.2172,0.2084,0.2084,0.2059,0.2017,0.0,0.0,0.0,0.2018,0.2018,0.2022,0.2068,0.2058,0.2023,0.2069,0.2085,0.2086,0.0,0.0,0.0,0.0,0.0,0.0,0.0,1.0233,1.0535,1.025,0.9976,0.9771,0.9735,0.8981,0.8496,0.8546,0.0,0.0,0.0,0.0,0.0,0.0,0.0,0.0,0.0,0.0,0.7687,0.7903,0.7788,0.7853,0.8114,0.8164,0.0,0.0,0.0,0.0,0.0,0.0,0.0,0.0,0.0,0.0,0.0,0.0,0.0,0.0,0.0,0.0,0.0,0.0,0.0,0.0,0.0,0.0,0.0,0.0,0.0,0.0,1.1728,1.2299,1.2492,1.2036,1.1366,1.0685,1.0179,0.0,0.8785,0.881,0.8723,0.8638,0.8553,0.0,0.0,0.0,0.0,0.0,0.0,0.0,0.0,0.0,0.0,0.0,0.0,0.0,0.0,0.0,0.0,0.0,0.7146,0.5388,0.44,0.4291,0.2508,0.1525,0.1525,0.1525,0.157,0.166,0.1813,0.1794,0.1606,0.1753,0.1835,0.0,0.0,0.0,0.0,0.2155,0.2155,0.2156,0.2171,0.2168,0.2157,0.2171,0.2177,0.2177,0.0,0.0,0.0,0.0,0.0,0.0,0.0,1.0385,1.061,1.0184,1.0043,0.9889,0.9628,0.9013,0.8644,0.8693,0.0,0.0,0.0,0.0,0.0,0.0,0.0,0.0,0.0,0.7621,0.7652,0.7817,0.7724,0.778,0.7967,0.8053,0.8062,0.7981,0.0,0.0,0.0,0.0,0.0,0.0,0.0,0.0,0.884,0.0,0.0,0.0,0.0,0.0,0.0,0.0,0.0,0.0,0.0,0.0,0.0,0.0,0.0,0.0,0.0,1.1011,1.122,1.0715,1.0365,0.0,0.0,0.0,0.8748,0.8726,0.8696,0.8645,0.8606,0.0,0.0,0.0,0.0,0.0,0.0,0.0,0.0,0.0,0.0,0.0,0.0,0.0,0.0,0.0,0.0,0.0,0.7146,0.538,0.4394,0.4291,0.2508,0.157,0.157,0.157,0.157,0.1569,0.1593,0.1539,0.1406,0.1518,0.1606,0.0,0.0,0.0,0.0,0.1885,0.1885,0.1883,0.1912,0.1907,0.1904,0.189,0.186,0.1882,0.0,0.0,0.0,0.0,0.0,0.0,0.0,0.0,0.0,0.0,1.039,1.014,0.9702,0.9005,0.861,0.0,0.0,0.0,0.0,0.0,0.0,0.0,0.0,0.0,0.7712,0.7734,0.7678,0.7538,0.7853,0.7816,0.7468,0.7757,0.7869,0.7802,0.7638,0.7731,0.8054,0.829,0.8453,0.8579,0.9028,0.9028,0.0,0.0,0.0,0.0,0.0,0.0,0.0,0.0,0.0,0.0,0.0,0.0,0.0,0.0,0.0,0.0,0.0,0.0,0.0,0.0,0.0,0.0,0.0,0.0,0.0,0.0,0.0,0.0,0.0,0.0,0.0,0.0,0.0,0.0,0.0,0.0,0.0,0.0,0.0,0.0,0.0,0.0,0.0,0.0,0.0,0.0,0.7228,0.5489,0.4463,0.4412,0.281,0.1922,0.1794,0.1794,0.1794,0.1794,0.1525,0.1436,0.1391,0.1391,0.1391,0.0,0.0,0.0,0.0,0.1391,0.1391,0.1387,0.1404,0.1393,0.1391,0.1323,0.1348,0.139,0.0,0.0,0.0,0.0,0.0,0.0,0.0,0.0,0.0,0.0,1.0438,1.0342,1.0229,0.9549,0.912,0.0,0.0,0.0,0.0,0.0,0.0,0.0,0.0,0.0,0.7857,0.8003,0.8041,0.7961,0.7989,0.7977,0.7939,0.797,0.8003,0.8019,0.8082,0.8204,0.8384,0.8345,0.8598,0.9039,0.9281,0.9338,0.0,0.0,0.0,0.0,0.851,0.8435,0.0,0.0,0.0,0.0,0.0,0.0,0.0,0.0,0.8848,0.0,0.0,0.0,0.0,0.0,0.0,0.0,0.0,0.0,0.0,0.0,0.0,0.0,0.0,0.0,0.0,0.0,0.0,0.0,0.0,0.0,0.0,0.0,0.0,0.0,0.0,0.0,0.0,0.0,0.0,0.8868,0.8288,0.7034,0.6016,0.5321,0.4205,0.303,0.1794,0.1794,0.1794,0.1794,0.1749,0.1615,0.1391,0.1391,0.1391,0.0,0.0,0.0,0.1391,0.1391,0.1391,0.139,0.1383,0.138,0.1382,0.1443,0.1458,0.1469,0.0,0.0,0.0,0.0,0.0,0.0,0.0,0.0,0.0,0.0,0.0,0.0,0.0,0.0,0.0,0.0,0.0,0.0,0.0,0.0,0.0,0.0,0.0,0.7971,0.7816,0.8077,0.8077,0.7831,0.7909,0.7869,0.7673,0.7583,0.7697,0.8024,0.8304,0.8427,0.8405,0.8405,0.8654,0.9089,0.9308,0.0,0.0,0.0,0.0,0.0,0.8738,0.8632,0.0,0.8211,0.8066,0.8031,0.0,0.0,0.0,0.0,0.8997,0.0,0.0,0.0,0.0,0.0,0.0,0.0,0.0,0.0,0.0,0.0,0.0,0.0,0.0,0.0,0.0,0.0,0.0,0.0,0.0,0.0,0.0,0.0,0.0,0.0,0.0,0.0,0.0,0.0,0.0,0.9235,0.8438,0.7584,0.6602,0.5498,0.4508,0.3479,0.2353,0.244,0.2482,0.2482,0.2438,0.235,0.2221,0.2155,0.2033,0.0,0.0,0.0,0.1391,0.1391,0.1391,0.1434,0.1553,0.1601,0.1615,0.1708,0.1776,0.1805,0.0,0.0,0.0,0.0,0.0,0.0,0.0,0.0,0.0,0.0,0.0,0.0,0.0,0.0,0.0,0.0,0.0,0.0,0.0,0.0,0.0,0.0,0.0,0.8041,0.7813,0.8107,0.8063,0.7666,0.7887,0.7748,0.7278,0.7132,0.737,0.7919,0.8384,0.8518,0.8364,0.8476,0.8645,0.8869,0.9237,0.0,0.0,0.0,0.0,0.0,0.0,0.0,0.0,0.8327,0.8172,0.8085,0.7688,0.0,0.0,0.0,0.0,0.0,0.0,0.0,0.0,0.0,0.0,0.0,0.0,0.0,0.0,0.0,0.0,0.0,0.0,0.0,0.0,0.0,0.0,0.0,0.0,0.0,0.0,0.0,0.0,0.0,0.0,0.0,0.0,0.0,0.0,0.9266,0.8467,0.7816,0.6934,0.57,0.4773,0.3942,0.3205,0.3183,0.3151,0.3193,0.3065,0.3023,0.3025,0.2879,0.2605,0.2219,0.0,0.0,0.1391,0.1436,0.148,0.1478,0.1759,0.1854,0.1881,0.203,0.2156,0.2178,0.0,0.0,0.0,0.0,0.0,0.0,0.0,0.0,0.0,0.0,0.0,0.0,0.0,0.0,0.0,0.0,0.0,0.0,0.0,0.0,0.0,0.9134,0.8364,0.8057,0.8289,0.8459,0.8505,0.8432,0.8405,0.8171,0.7711,0.7447,0.7531,0.7919,0.8384,0.8604,0.863,0.8648,0.8626,0.8592,0.906,0.0,0.0,0.0,0.0,0.0,0.0,0.0,0.0,0.8319,0.8209,0.8342,0.8329,0.0,0.0,0.0,0.0,0.0,0.9314,0.9175,0.0,0.0,0.0,0.0,0.0,0.0,0.0,0.0,0.0,0.0,0.0,0.0,0.0,0.0,0.0,0.0,0.0,0.0,0.0,0.0,0.0,0.0,0.0,0.0,0.0,0.0,0.0,0.9545,0.9389,0.8967,0.8333,0.7457,0.677,0.5719,0.4187,0.3047,0.2522,0.2691,0.2354,0.2185,0.2187,0.1978,0.1867,0.1783,0.0,0.148,0.1436,0.166,0.1749,0.1749,0.2012,0.2148,0.2158,0.219,0.221,0.2186,0.0,0.0,0.0,0.0,0.0,0.0,0.0,0.0,0.0,0.0,0.0,0.0,0.0,0.0,0.0,0.0,0.0,0.0,0.0,0.0,0.0,0.9279,0.8602,0.8342,0.8549,0.8694,0.8609,0.827,0.828,0.8003,0.7486,0.7606,0.78,0.8031,0.8451,0.8675,0.8686,0.8616,0.8608,0.8619,0.0,0.0,0.0,0.0,0.0,0.0,0.0,0.0,0.0,0.0,0.8455,0.8542,0.8348,0.0,0.0,0.0,0.0,0.0,0.9333,0.9118,0.9041,0.0,0.0,0.0,0.0,0.0,0.0,0.0,0.0,0.0,0.0,0.0,0.0,0.0,0.0,0.0,0.0,0.0,0.0,0.0,0.0,0.0,0.0,0.0,0.0,0.0,0.0,0.0,0.9452,0.9315,0.8732,0.7684,0.7173,0.6083,0.4411,0.3278,0.2793,0.2874,0.2793,0.2834,0.2958,0.282,0.2615,0.2391,0.0,0.2029,0.1808,0.1897,0.1941,0.1985,0.2206,0.2311,0.2381,0.2541,0.2402,0.2214,0.0,0.0,0.0,0.0,0.0,0.0,0.0,0.0,0.0,0.0,0.0,0.0,0.0,0.0,0.0,0.0,0.0,0.0,0.0,0.0,1.0163,0.9692,0.9073,0.8717,0.8661,0.8712,0.8561,0.8134,0.8071,0.7759,0.7202,0.7666,0.7916,0.8,0.8459,0.8658,0.8606,0.8558,0.8544,0.8546,0.0,0.0,0.0,0.0,0.0,0.0,0.0,0.0,0.0,0.0,0.0,0.0,0.0,0.0,0.0,0.0,0.8977,0.9109,0.9159,0.9011,0.8931,0.0,0.0,0.8536,0.8452,0.0,0.0,0.0,0.0,0.0,0.0,0.0,0.0,0.0,0.0,0.0,0.0,0.0,0.0,0.0,0.0,0.0,0.0,0.0,0.0,0.0,0.0,0.0,0.9301,0.9247,0.8796,0.7829,0.7403,0.6468,0.4988,0.4215,0.3519,0.2976,0.3018,0.3214,0.3491,0.3334,0.3125,0.2817,0.2712,0.2442,0.2145,0.2189,0.2189,0.2233,0.2453,0.2566,0.2604,0.2829,0.2665,0.2412,0.0,0.0,0.0,0.0,0.0,0.0,0.0,0.0,0.0,0.0,0.0,0.0,0.0,0.0,0.0,0.0,0.0,0.0,0.0,0.0,1.045,1.078,0.9898,0.9128,0.8522,0.841,0.8424,0.8552,0.8064,0.7605,0.7202,0.7619,0.7748,0.767,0.8328,0.8504,0.8343,0.8578,0.843,0.8078,0.8525,0.0,0.0,0.0,0.0,0.0,0.0,0.0,0.0,0.0,0.0,0.0,0.0,0.0,0.0,0.0,0.0,0.8698,0.8587,0.8854,0.908,0.8681,0.0,0.0,0.9694,0.9624,0.0,0.0,0.0,0.0,0.0,0.0,0.0,0.0,0.0,0.0,0.0,0.0,0.0,0.0,0.0,0.0,0.0,0.0,0.0,0.0,0.0,0.0,0.9286,0.8947,0.8718,0.8627,0.8212,0.7553,0.6647,0.6185,0.4833,0.2549,0.2161,0.2199,0.2591,0.2372,0.2304,0.2357,0.2195,0.2154,0.2194,0.2373,0.2464,0.2509,0.2777,0.2869,0.2873,0.2875,0.2913,0.288,0.0,0.0,0.0,0.0,0.0,0.0,0.0,0.0,0.0,0.0,0.0,0.0,0.0,0.0,0.0,0.0,0.0,0.0,0.0,1.1111,1.0723,1.0843,1.0108,0.9556,0.9308,0.8962,0.8823,0.8846,0.8407,0.7997,0.7712,0.8276,0.8571,0.8609,0.882,0.8933,0.896,0.8707,0.8469,0.8328,0.8648,0.8827,0.0,0.0,0.0,0.0,0.0,0.0,0.0,0.0,0.0,0.0,0.0,0.0,0.0,0.0,0.0,0.8399,0.8472,0.8694,0.896,0.9292,0.0,0.0,0.0,0.0,0.0,0.0,0.0,0.0,0.0,0.0,0.0,0.0,0.0,0.0,0.0,0.0,0.0,0.0,0.0,0.0,0.0,0.0,0.0,0.0,0.0,0.0,0.9101,0.8854,0.8684,0.8699,0.828,0.7626,0.68,0.6416,0.5529,0.4251,0.3713,0.3327,0.3136,0.3166,0.3083,0.2901,0.2882,0.2759,0.2594,0.2603,0.2631,0.2635,0.2803,0.2885,0.292,0.292,0.2821,0.2733,0.0,0.0,0.0,0.0,0.0,0.0,0.0,0.0,0.0,0.0,0.0,0.0,0.0,0.0,0.0,0.0,0.0,0.0,1.2101,1.1468,1.1078,1.1021,1.0299,0.9927,1.001,0.9432,0.9079,0.8989,0.8556,0.8276,0.8196,0.8662,0.8875,0.8906,0.8879,0.8919,0.8973,0.8622,0.8482,0.8509,0.871,0.8849,0.0,0.0,0.0,0.0,0.0,0.0,0.0,0.0,0.0,0.0,0.0,0.0,0.0,0.0,0.0,0.0,0.8299,0.8504,0.8844,0.0,0.0,0.0,0.0,0.0,0.0,0.0,0.0,0.0,0.0,0.0,0.0,0.0,0.0,0.0,0.0,0.0,0.0,0.0,0.0,0.0,0.0,0.0,0.0,0.0,0.0,0.0,0.0,0.8786,0.8656,0.8649,0.8365,0.7939,0.7412,0.7122,0.665,0.5992,0.5648,0.5032,0.4263,0.3956,0.3844,0.3857,0.3447,0.3243,0.3137,0.2962,0.2944,0.3078,0.3103,0.3071,0.3068,0.2999,0.2854,0.2708,0.0,0.0,0.0,0.0,0.0,0.0,0.0,0.0,0.0,0.0,0.0,0.0,0.0,0.0,0.0,0.0,0.0,0.0,1.2101,1.1733,1.1489,1.1489,1.06,1.0225,1.0499,0.9661,0.914,0.9005,0.8465,0.8353,0.8613,0.8613,0.8496,0.8327,0.8394,0.8311,0.814,0.8324,0.8445,0.8509,0.871,0.8753,0.8709,0.0,0.0,0.0,0.0,0.0,0.0,0.0,0.0,0.0,0.0,0.0,0.0,0.0,0.7691,0.7743,0.7938,0.8352,0.0,0.0,0.0,0.0,0.0,0.0,0.0,0.0,0.0,0.0,0.0,0.0,0.0,0.0,0.0,0.0,0.0,0.0,0.0,0.0,0.0,0.0,0.0,0.0,0.0,0.0,0.0,0.0,0.0,0.8747,0.8614,0.8579,0.8645,0.8685,0.869,0.8708,0.828,0.7518,0.7706,0.7122,0.5848,0.446,0.4319,0.505,0.3768,0.3496,0.3867,0.3486,0.3528,0.3876,0.3832,0.3648,0.3396,0.3246,0.3094,0.2926,0.0,0.0,0.0,0.0,0.0,0.0,0.0,0.0,0.0,0.0,0.0,0.0,0.0,0.0,0.0,0.0,0.0,0.0,1.2101,1.1733,1.1418,1.1229,1.0856,1.067,1.0643,1.038,0.9979,0.9432,0.9399,0.9363,0.9305,0.9545,0.963,0.9579,0.9581,0.959,0.9552,0.9336,0.9097,0.8852,0.902,0.9006,0.8937,0.0,0.0,0.0,0.0,0.0,0.0,0.0,0.0,0.0,0.0,0.0,0.0,0.0,0.7642,0.7644,0.8026,0.0,0.0,0.0,0.0,0.0,0.0,0.0,0.0,0.0,0.0,0.0,0.0,0.0,0.0,0.0,0.0,0.0,0.0,0.0,0.0,0.0,0.0,0.0,0.0,0.0,0.0,0.0,0.0,0.0,0.0,0.8444,0.8354,0.8252,0.8209,0.8273,0.8429,0.8308,0.8371,0.8556,0.7891,0.7241,0.6588,0.6314,0.6237,0.6328,0.5968,0.5441,0.4768,0.4043,0.3727,0.3785,0.389,0.3843,0.3774,0.3931,0.3942,0.3857,0.0,0.0,0.0,0.0,0.0,0.0,0.0,0.0,0.0,0.0,0.0,0.0,0.0,0.0,0.0,0.0,0.0,0.0,0.0,1.1701,1.1429,1.111,1.1006,1.0841,1.0544,1.0488,1.032,1.0052,0.9998,0.9914,0.9799,0.9867,0.9834,0.9701,0.9542,0.9549,0.972,0.9465,0.9387,0.9413,0.9491,0.9413,0.9237,0.0,0.0,0.0,0.0,0.0,0.0,0.0,0.0,0.0,0.0,0.0,0.0,0.767,0.7823,0.8041,0.8311,0.0,0.0,0.0,0.0,0.0,0.0,0.0,0.0,0.0,0.0,0.0,0.0,0.0,0.0,0.0,0.0,0.0,0.0,0.0,0.0,0.0,0.0,0.0,0.0,0.0,0.0,0.0,0.0,0.8424,0.8319,0.8277,0.8216,0.8069,0.8083,0.8127,0.817,0.8356,0.8573,0.8763,0.83,0.8021,0.7821,0.7395,0.737,0.7583,0.7266,0.6651,0.5764,0.5098,0.4753,0.4699,0.4867,0.4643,0.4287,0.48,0.4652,0.4119,0.0,0.0,0.0,0.0,0.0,0.0,0.0,0.0,0.0,0.0,0.0,0.0,0.0,0.0,0.0,0.0,0.0,0.0,0.0,0.0,1.1525,1.1095,1.1078,1.0857,1.0409,1.0263,1.0397,1.0747,1.0328,1.0092,1.0083,0.9781,0.9459,0.9128,0.8797,0.8826,0.9128,0.9135,0.9471,0.9987,0.9969,0.9814,0.9588,0.9588,0.0,0.0,0.0,0.0,0.0,0.0,0.0,0.0,0.0,0.0,0.0,0.767,0.8173,0.8692,0.0,0.0,0.0,0.0,0.0,0.0,0.0,0.0,0.0,0.0,0.0,0.0,0.0,0.0,0.0,0.0,0.0,0.0,0.0,0.0,0.0,0.0,0.0,0.0,0.0,0.0,0.0,0.8887,0.8492,0.8223,0.8287,0.8243,0.8136,0.801,0.8201,0.8195,0.801,0.8619,0.8791,0.8451,0.8815,0.9117,0.9284,0.7974,0.7893,0.8775,0.7965,0.7383,0.6957,0.6507,0.6335,0.6347,0.6461,0.5835,0.5046,0.59,0.527,0.4117,0.0,0.0,0.0,0.0,0.0,0.0,0.0,0.0,0.0,0.0,0.0,0.0,0.0,0.0,0.0,0.0,0.0,0.0,0.0,0.0,1.1476,1.0985,1.0839,1.0895,1.1068,1.1052,1.1071,1.1181,1.0448,1.0092,1.0092,1.0038,0.9806,0.9507,0.9672,0.985,1.0019,1.0138,1.0058,0.984,0.9744,0.9588,0.9465,0.9562,0.9562,0.0,0.0,0.0,0.0,0.0,0.0,0.0,0.0,0.8084,0.7523,0.767,0.8099,0.8634,0.0,0.9655,0.0,0.0,0.0,0.0,0.0,0.0,0.0,0.0,0.0,0.0,0.0,0.0,0.0,0.0,0.0,0.0,0.0,0.0,0.0,0.0,0.0,0.0,0.0,0.0,0.8564,0.8249,0.824,0.8211,0.8088,0.8201,0.823,0.8087,0.8103,0.8085,0.801,0.8357,0.8638,0.8867,0.8802,0.9038,0.9511,0.9051,0.9122,0.9614,0.8775,0.8389,0.8232,0.7502,0.7238,0.7282,0.7155,0.7,0.6917,0.6892,0.6207,0.5408,0.0,0.0,0.0,0.0,0.0,0.0,0.0,0.0,0.0,0.0,0.0,0.0,0.0,0.0,0.0,0.0,0.0,0.0,0.0,0.0,1.139,1.1092,1.101,1.1043,1.1149,1.1125,1.1125,1.1149,1.0703,1.0349,1.0092,1.0303,1.0106,0.9624,0.9952,1.0259,1.0503,1.0582,1.0555,1.0515,1.0438,1.0216,0.994,0.9991,0.9855,0.9588,0.9588,0.0,0.0,0.0,0.0,0.0,0.0,0.0,0.7621,0.767,0.8238,0.8929,0.0,0.0,0.0,0.0,0.0,0.0,0.0,0.0,0.0,0.0,0.0,0.0,0.0,0.0,0.0,0.0,0.0,0.0,0.0,0.0,0.0,0.0,0.0,0.0,0.0,0.8575,0.8454,0.8156,0.8344,0.8393,0.8171,0.8238,0.8266,0.8231,0.8155,0.8168,0.8339,0.8558,0.876,0.8871,0.8951,0.9093,0.9322,0.9397,0.9625,0.9884,0.9463,0.9273,0.9193,0.8194,0.7861,0.7967,0.7771,0.7502,0.7299,0.7639,0.7132,0.6293,0.0,0.0,0.0,0.0,0.0,0.0,0.0,0.0,0.0,0.0,0.0,0.0,0.0,0.0,0.0,0.0,0.0,0.0,0.0,0.0,0.0,1.1377,1.1308,1.1235,1.1118,1.0985,1.0961,1.1094,1.1007,0.0,0.0,0.0,1.0337,0.9687,1.0055,1.0397,1.0704,1.0716,1.092,1.1226,1.1175,1.0896,1.0496,1.0496,1.0198,0.9736,0.9677,0.9647,0.9658,0.96,0.0,0.0,0.0,0.0,0.7764,0.7713,0.837,0.9192,0.0,0.0,0.0,0.0,0.0,0.0,0.0,0.0,0.0,0.0,0.0,0.0,0.0,0.0,0.0,0.0,0.0,0.0,0.0,0.0,0.0,0.0,0.0,0.0,0.0,0.8286,0.8345,0.8271,0.8518,0.8537,0.8324,0.8324,0.836,0.84,0.821,0.8261,0.8659,0.8872,0.8923,0.8826,0.9129,0.9213,0.9022,0.9359,0.962,0.9841,0.9761,0.9771,0.9728,0.8656,0.8337,0.8529,0.8286,0.7849,0.7486,0.8229,0.7797,0.6868,0.0,0.0,0.0,0.0,0.0,0.0,0.0,0.0,0.0,0.0,0.0,0.0,0.0,0.0,0.0,0.0,0.0,0.0,0.0,0.0,0.0,1.1653,1.1374,1.1354,1.1589,1.1189,1.1132,1.1424,0.0,0.0,0.0,0.0,0.0,1.0063,0.0,1.0653,1.0721,1.0822,1.0897,1.0922,1.0693,1.0573,1.0496,1.0496,1.0445,1.032,0.9981,0.9892,0.9902,0.9607,0.9341,0.0,0.0,0.0,0.0,0.7778,0.8209,0.8875,0.0,0.0,0.0,0.0,0.0,0.0,0.0,0.0,0.0,0.0,0.0,0.0,0.0,0.0,0.0,0.0,0.0,0.0,0.0,0.0,0.0,0.0,0.0,0.0,0.8369,0.8377,0.8319,0.8129,0.8327,0.8436,0.84,0.84,0.84,0.84,0.8215,0.8191,0.8453,0.8799,0.9072,0.9228,0.927,0.9213,0.8984,0.9061,0.9289,0.9609,0.9257,0.9214,0.9359,0.8818,0.8852,0.9122,0.8705,0.8729,0.896,0.8684,0.794,0.7183,0.0,0.0,0.0,0.0,0.0,0.0,0.0,0.0,0.0,0.0,0.0,0.0,0.0,0.0,0.0,0.0,0.0,0.0,0.0,0.0,0.0,1.1703,1.1559,1.1467,1.1423,1.1321,1.1272,1.1228,0.0,0.0,0.0,1.1208,1.0942,0.0,0.0,0.0,0.0,0.0,1.1124,1.1124,1.0998,1.0871,0.0,1.0465,1.0218,0.9955,0.9675,0.95,0.9439,0.9406,0.9213,0.8944,0.8678,0.0,0.0,0.0,0.0,0.0,0.0,0.0,0.0,0.0,0.0,0.0,0.0,0.0,0.0,0.0,0.0,0.0,0.0,0.0,0.0,0.0,0.0,0.0,0.0,0.0,0.0,0.0,0.0,0.0,0.8055,0.8367,0.8468,0.8264,0.8569,0.8688,0.8571,0.8571,0.8556,0.8548,0.826,0.8314,0.8728,0.8644,0.8837,0.9317,0.9195,0.9158,0.917,0.882,0.89,0.9268,0.9093,0.8995,0.8937,0.878,0.8793,0.8878,0.8677,0.8708,0.8872,0.8656,0.83,0.7984,0.0,0.0,0.0,0.0,0.0,0.0,0.0,0.0,0.0,0.0,0.0,0.0,0.0,0.0,0.0,0.0,0.0,0.0,0.0,0.0,0.0,0.0,0.0,1.1552,1.1388,1.1396,1.1332,0.0,0.0,0.0,1.2058,1.1618,1.1506,0.0,1.1412,0.0,0.0,0.0,0.0,0.0,0.0,0.0,0.0,0.0,1.0336,1.0009,0.9747,0.9534,0.9367,0.933,0.9143,0.8859,0.8519,0.0,0.0,0.0,0.0,0.0,0.0,0.0,0.0,0.0,0.0,0.0,0.0,0.0,0.0,0.0,0.0,0.0,0.0,0.0,0.0,0.0,0.0,0.0,0.0,0.0,0.0,0.0,0.0,0.0,0.7891,0.8394,0.8625,0.8477,0.8656,0.8713,0.8552,0.8412,0.8383,0.8466,0.8113,0.8245,0.8861,0.8619,0.8715,0.9227,0.9081,0.9062,0.9203,0.8702,0.8643,0.8998,0.8906,0.8803,0.8703,0.8703,0.8686,0.8688,0.8619,0.8636,0.8674,0.864,0.8656,0.874,0.0,0.0,0.0,0.0,0.0,0.0,0.0,0.0,0.0,0.0,0.0,0.0,0.0,0.0,0.0,0.0,0.0,0.0,0.0,0.0,0.0,0.0,0.0,0.0,1.1866,1.1441,0.0,0.0,0.0,0.0,1.2831,1.2032,1.2103,1.276,1.1748,1.1301,1.1301,0.0,0.0,0.0,0.0,0.0,0.0,0.0,0.0,0.0,0.0,1.0549,1.0311,0.9628,0.9289,0.9063,0.0,0.0,0.0,0.0,0.0,0.0,0.0,0.0,0.0,0.0,0.0,0.0,0.0,0.0,0.0,0.0,0.0,0.0,0.0,0.0,0.0,0.0,0.0,0.0,0.0,0.0,0.0,0.0,0.0,0.8316,0.8099,0.8448,0.8685,0.8685,0.8337,0.813,0.813,0.7654,0.7528,0.7846,0.7633,0.7831,0.8432,0.8779,0.8995,0.9008,0.901,0.8988,0.9008,0.8727,0.8757,0.8988,0.8612,0.8524,0.8703,0.8703,0.8797,0.8939,0.8688,0.8713,0.8866,0.8674,0.8872,0.9218,0.0,0.0,0.0,0.0,0.0,0.0,0.0,0.0,0.0,0.0,0.0,0.0,0.0,1.4458,1.4144,1.3382,1.3045,0.0,0.0,0.0,0.0,0.0,0.0,0.0,0.0,0.0,0.0,0.0,0.0,1.2088,1.2706,1.1943,1.1833,1.2289,1.1789,1.1452,1.1301,1.1301,0.0,0.0,0.0,0.0,0.0,0.0,0.0,0.0,0.0,0.0,0.0,0.0,0.0,0.0,0.0,0.0,0.0,0.0,0.0,0.0,0.0,0.0,0.0,0.0,0.0,0.0,0.0,0.0,0.0,0.0,0.0,0.0,0.0,0.0,0.0,0.0,0.0,0.0,0.0,0.0,0.0,0.0,0.0,0.8139,0.7926,0.7974,0.7984,0.7984,0.7852,0.7812,0.7915,0.7637,0.7569,0.7787,0.7739,0.7913,0.8342,0.8761,0.9058,0.9188,0.9212,0.9244,0.9374,0.901,0.8894,0.8988,0.8983,0.8864,0.8703,0.8975,0.9145,0.9223,0.9385,0.9498,0.9588,0.9536,0.9432,0.9262,0.0,0.0,0.0,0.0,0.0,0.0,0.0,0.0,0.0,0.0,0.0,0.0,0.0,0.0,1.4682,1.417,1.3815,1.3766,1.4172,0.0,0.0,0.0,0.0,0.0,0.0,0.0,0.0,0.0,0.0,0.0,0.0,1.1846,1.1703,1.1974,1.1713,1.1446,0.0,0.0,0.0,1.1251,0.0,0.0,1.1276,0.0,0.0,0.0,0.0,0.0,0.0,0.0,0.0,0.0,0.0,0.0,0.0,0.0,0.0,0.0,0.0,0.0,0.0,0.0,0.0,0.0,0.0,0.0,0.0,0.0,0.0,0.0,0.0,0.0,0.0,0.0,0.0,0.0,0.0,0.0,0.0,0.0,0.0,0.7834,0.7628,0.7588,0.7602,0.7602,0.7469,0.0,0.7631,0.7433,0.7467,0.7778,0.7808,0.8014,0.8437,0.8619,0.884,0.9104,0.91,0.9207,0.94,0.9015,0.9055,0.9355,0.9323,0.9138,0.8937,0.9316,0.9539,0.9636,0.9837,0.9962,1.0072,1.0009,0.9907,0.9689,0.0,0.0,0.0,0.0,0.0,0.0,0.0,0.0,0.0,1.5649,0.0,0.0,0.0,0.0,0.0,1.4716,1.439,1.4247,1.4257,1.4007,0.0,0.0,0.0,0.0,0.0,0.0,0.0,0.0,0.0,0.0,0.0,0.0,1.1788,1.1887,1.1543,1.1297,1.1108,0.0,1.1099,1.1124,0.0,1.1276,1.1293,0.0,0.0,0.0,1.141,1.1335,0.0,1.074,0.0,0.0,0.0,0.0,0.0,0.0,0.0,0.0,0.0,0.0,0.0,0.0,0.0,0.0,0.0,0.0,0.0,0.0,0.0,0.0,0.0,0.0,0.0,0.0,0.0,0.0,0.0,0.0,0.0,0.0,0.0,0.7494,0.7208,0.7418,0.7575,0.7548,0.7194,0.7091,0.7291,0.6939,0.7046,0.7778,0.7778,0.8075,0.8685,0.8292,0.8297,0.8699,0.8723,0.8812,0.8998,0.8722,0.9128,0.9951,0.9484,0.9315,0.9322,0.9738,1.0078,1.0286,1.0034,1.0089,1.0311,1.0096,1.0294,1.0549,0.0,0.0,0.0,0.0,0.0,0.0,0.0,0.0,0.0,0.0,0.0,0.0,1.593,1.5766,1.5708,1.5897,1.5516,1.5437,1.5774,1.5729,1.5469,1.4996,1.4949,1.4763,0.0,0.0,0.0,0.0,0.0,0.0,0.0,0.0,0.0,0.0,1.1667,1.136,1.1009,1.0778,0.0,0.0,1.1192,1.1079,0.0,0.0,0.0,0.0,0.0,1.1349,1.1378,0.0,1.0929,1.0474,0.0,0.0,0.0,0.0,0.0,0.0,0.8685,0.0,0.0,0.0,0.0,0.0,0.0,0.0,0.0,0.0,0.0,0.0,0.0,0.0,0.0,0.0,0.0,0.0,0.0,0.0,0.0,0.0,0.0,0.0,0.6975,0.6817,0.6729,0.0,0.6751,0.6855,0.6992,0.7166,0.7384,0.7587,0.7708,0.8009,0.8481,0.8368,0.8522,0.8903,0.8921,0.8951,0.9,0.9082,0.9182,0.9277,0.9435,0.9524,0.9559,1.0,1.0331,1.0522,1.063,1.0826,1.1,1.0977,1.0819,1.0593,0.0,0.0,0.0,0.0,0.0,0.0,0.0,0.0,0.0,0.0,0.0,0.0,1.6009,1.5871,1.5915,1.6257,1.603,1.6028,1.6392,1.6413,1.6205,1.5711,1.5598,1.5355,1.4955,0.0,0.0,0.0,0.0,0.0,0.0,0.0,0.0,0.0,0.0,0.0,0.0,0.0,0.0,0.0,1.1498,0.0,0.0,1.1581,1.1654,0.0,0.0,0.0,1.189,1.182,1.1641,0.0,0.0,0.0,0.0,0.0,0.0,0.0,0.0,0.0,0.0,0.0,0.0,0.0,0.8569,0.8936,0.9423,0.0,0.0,0.0,0.0,0.0,0.0,0.0,0.0,0.0,0.0,0.0,0.0,0.0,0.0,0.0,0.6637,0.6493,0.6403,0.6412,0.6581,0.6806,0.7007,0.733,0.7527,0.7607,0.7659,0.7925,0.8396,0.8311,0.8483,0.8886,0.886,0.8863,0.8878,0.8985,0.9145,0.9299,0.9415,0.9644,0.9902,1.0297,1.0474,1.0619,1.0896,1.1133,1.1305,1.1305,1.1127,1.0906,0.0,0.0,0.0,0.0,0.0,0.0,0.0,0.0,0.0,0.0,1.5885,1.5885,1.5943,1.5972,1.6048,1.62,1.6228,1.6296,1.6402,1.6431,1.6226,1.5746,1.5532,1.5191,1.4797,0.0,0.0,0.0,0.0,0.0,0.0,0.0,0.0,0.0,0.0,0.0,0.0,0.0,0.0,1.1472,1.1957,1.1979,0.0,0.0,1.2028,1.2181,1.1959,1.2156,1.2476,1.2254,1.2274,0.0,0.0,0.0,0.0,0.0,1.0748,0.0,0.0,0.0,0.0,0.0,0.0,0.0,0.9021,0.9321,0.9697,1.0309,1.0567,0.0,0.0,0.0,0.0,0.0,0.0,0.0,0.0,0.0,0.0,0.0,0.0,0.0,0.6354,0.636,0.64,0.6416,0.6581,0.6839,0.7167,0.7363,0.7546,0.7773,0.7584,0.7777,0.8322,0.8162,0.8293,0.8655,0.8689,0.8717,0.8692,0.8694,0.9038,0.9605,0.9433,0.9694,1.0233,1.0517,1.0619,1.0619,1.0923,1.1112,1.1219,1.1219,1.1176,1.1138,0.0,0.0,0.0,0.0,0.0,0.0,0.0,0.0,0.0,1.5711,1.574,1.5846,1.6181,1.6381,1.6599,1.6965,1.6994,1.6853,1.6581,1.6552,1.6397,1.6048,1.5981,1.5979,1.6048,1.5622,0.0,0.0,0.0,0.0,0.0,0.0,0.0,0.0,0.0,0.0,0.0,0.0,0.0,1.2157,1.1906,0.0,1.1854,1.1897,1.1826,1.1732,1.1755,1.1873,1.2032,1.1974,1.2065,1.2209,0.0,0.0,0.0,1.2097,0.0,0.0,0.0,0.0,0.0,0.0,0.0,0.0,0.8457,0.8759,0.9177,0.0,0.9661,0.0,0.0,0.0,0.0,0.0,0.0,0.0,0.0,0.0,0.0,0.0,0.0,0.0,0.655,0.6444,0.6394,0.6408,0.6581,0.6839,0.7167,0.7237,0.7349,0.755,0.7516,0.7617,0.7932,0.8024,0.8222,0.8458,0.8609,0.8718,0.8718,0.8685,0.8846,0.9168,0.949,0.9663,0.9778,1.0375,1.0599,1.0635,1.1069,1.1042,1.0727,1.0727,1.0381,0.9975,0.0,0.0,0.0,0.0,0.0,0.0,0.0,0.0,0.0,1.6218,1.5902,1.5713,1.5825,1.602,1.6239,1.6428,1.6467,1.6381,1.6278,1.6249,1.6192,1.6019,1.5825,1.5833,1.6144,1.5498,1.5141,0.0,0.0,0.0,0.0,0.0,0.0,0.0,0.0,0.0,0.0,0.0,1.2894,1.2881,1.263,0.0,1.2422,1.2606,1.2518,1.2263,1.2276,1.227,1.2255,1.2373,1.2476,0.0,0.0,1.2462,1.2654,0.0,1.2068,1.1762,0.0,0.0,0.0,1.0128,0.0,0.0,0.0,0.9004,0.9278,0.9503,0.97,0.0,0.0,0.0,0.0,0.0,0.0,0.0,0.0,0.0,0.0,0.0,0.0,0.0,0.6769,0.6612,0.6545,0.6539,0.6642,0.6806,0.704,0.7129,0.725,0.7345,0.7448,0.761,0.7803,0.7906,0.8046,0.822,0.832,0.8462,0.8557,0.8543,0.8708,0.9027,0.925,0.9445,0.963,1.0131,1.0357,1.0517,1.0958,1.1003,1.0824,1.0906,1.0733,1.0492,0.0,0.0,0.0,0.0,0.0,0.0,0.0,0.0,0.0,1.6736,1.6172,1.5752,1.5827,1.5928,1.6065,0.0,1.6162,1.6122,1.6064,1.6022,1.5943,1.5856,1.5562,1.5491,1.5783,1.5086,1.4871,0.0,0.0,0.0,0.0,0.0,0.0,0.0,0.0,0.0,0.0,0.0,0.0,1.3536,0.0,1.3442,1.2955,1.3148,1.3007,1.2713,1.2724,1.2627,1.2585,1.2763,1.281,1.2794,1.2549,1.2703,0.0,0.0,0.0,0.0,0.0,0.0,0.0,0.0,0.0,0.968,0.0,0.0,0.0,0.0,0.0,0.0,0.0,0.0,0.0,0.0,0.0,0.0,0.0,0.0,0.0,0.0,0.0,0.0,0.7215,0.6914,0.6741,0.6741,0.6742,0.6783,0.6885,0.7089,0.7194,0.7193,0.7385,0.7581,0.7729,0.7768,0.7864,0.7948,0.8065,0.8212,0.8393,0.8406,0.8637,0.8989,0.911,0.933,0.9626,0.9948,1.0113,1.0253,1.0742,1.0916,1.0873,1.1046,1.1072,1.0983,1.781,1.7551,0.0,0.0,0.0,0.0,0.0,0.0,0.0,1.6779,1.6454,1.654,0.0,0.0,0.0,0.0,0.0,0.0,1.6746,0.0,0.0,1.574,1.569,1.5548,1.5366,1.5255,1.5033,0.0,0.0,0.0,0.0,0.0,0.0,0.0,1.2954,0.0,0.0,0.0,1.4145,0.0,1.4758,1.4293,0.0,1.2406,1.2138,1.2082,1.2039,1.2203,1.2444,0.0,1.2596,1.2717,0.0,1.2825,1.302,1.3083,0.0,0.0,0.0,0.0,0.0,0.0,1.0647,0.0,0.0,0.0,0.9159,0.8897,0.0,0.0,0.0,0.0,0.0,0.0,0.0,0.0,0.0,0.0,0.0,0.0,0.0,0.0,0.8066,0.7349,0.6881,0.6881,0.6869,0.689,0.6889,0.7078,0.7189,0.7193,0.7404,0.7495,0.7553,0.7719,0.7808,0.7808,0.8016,0.8203,0.8409,0.8389,0.8637,0.9009,0.9458,0.9602,0.9651,1.0102,1.0128,1.0001,1.0517,1.0603,1.0381,1.0424,1.0152,0.9845,0.0,0.0,0.0,0.0,0.0,0.0,0.0,0.0,0.0,1.6758,1.6672,0.0,0.0,0.0,0.0,0.0,0.0,1.7429,0.0,0.0,0.0,0.0,1.5419,1.5077,1.5119,1.4406,1.4072,1.4194,1.3825,0.0,0.0,0.0,0.0,0.0,1.3259,0.0,1.3458,0.0,1.4489,0.0,0.0,0.0,0.0,1.3307,1.296,1.2565,1.2556,1.2494,1.2422,0.0,1.2607,0.0,0.0,0.0,0.0,0.0,0.0,0.0,0.0,0.0,0.0,0.0,0.0,0.0,0.9951,0.0,0.9574,0.0,0.0,0.0,0.0,0.0,0.0,0.0,0.0,0.0,0.0,0.0,0.0,0.0,0.0,0.0,0.8198,0.7671,0.7335,0.7302,0.7055,0.6971,0.7138,0.7183,0.7215,0.7212,0.7389,0.7484,0.7484,0.7604,0.7642,0.7642,0.7714,0.7872,0.8068,0.8177,0.8323,0.8512,0.9068,0.9275,0.9268,0.9695,0.9919,0.9957,1.0221,1.0294,1.0337,1.0467,1.0488,1.0426,0.0,0.0,0.0,0.0,0.0,0.0,0.0,0.0,0.0,0.0,0.0,0.0,1.7163,1.7492,0.0,0.0,1.7841,1.7897,0.0,0.0,1.684,0.0,0.0,0.0,0.0,0.0,1.3826,0.0,0.0,0.0,0.0,0.0,0.0,0.0,0.0,1.359,1.3503,0.0,0.0,1.4367,1.527,1.5193,1.4509,1.4027,1.3502,1.2995,1.2998,1.2882,1.275,1.2978,1.2906,0.0,1.2572,0.0,0.0,0.0,0.0,0.0,1.3128,0.0,0.0,0.0,0.0,0.0,0.0,0.0,0.0,0.0,0.0,0.0,0.0,0.0,0.0,0.0,0.0,0.0,0.0,0.0,0.0,0.0,0.0,0.0,0.0,0.8042,0.785,0.7842,0.7453,0.7254,0.7289,0.7326,0.7314,0.7191,0.7395,0.7484,0.7484,0.7484,0.7484,0.7484,0.7484,0.7628,0.788,0.805,0.8146,0.8277,0.8855,0.9087,0.9105,0.9517,0.9819,0.9994,0.9994,1.0081,1.025,1.0511,1.077,1.0947,1.7444,1.7794,0.0,0.0,0.0,0.0,0.0,0.0,0.0,0.0,0.0,0.0,0.0,0.0,0.0,0.0,0.0,1.9397,1.862,0.0,1.7684,0.0,0.0,1.5923,0.0,0.0,0.0,0.0,0.0,0.0,0.0,0.0,0.0,0.0,0.0,1.3973,1.451,1.5342,1.5831,1.6064,1.6691,1.666,1.5993,0.0,1.3148,1.2994,1.3001,0.0,0.0,1.3472,1.3472,0.0,0.0,0.0,0.0,0.0,0.0,0.0,0.0,0.0,0.0,1.2267,0.0,0.0,0.0,0.0,1.1299,0.0,0.0,0.0,0.0,0.0,0.0,0.0,0.0,0.0,0.0,0.0,0.0,0.0,0.0,0.0,0.0,0.8567,0.8328,0.8452,0.8217,0.7811,0.7232,0.7565,0.7597,0.7232,0.7395,0.7484,0.7484,0.7484,0.7484,0.7484,0.7484,0.769,0.8101,0.811,0.8288,0.8628,0.9085,0.9306,0.932,0.9818,0.999,0.9994,0.9994,0.9994,1.0038,1.025,1.0558,1.092,0.0,0.0,0.0,0.0,0.0,0.0,0.0,1.8644,0.0,0.0,0.0,0.0,0.0,2.0303,2.0302,0.0,0.0,2.0283,1.9821,1.9449,0.0,0.0,0.0,1.7012,0.0,0.0,0.0,0.0,0.0,0.0,0.0,0.0,0.0,0.0,0.0,1.4284,0.0,0.0,0.0,0.0,0.0,1.5743,1.5167,0.0,1.4785,1.4162,1.439,1.4086,0.0,1.3815,1.3709,1.3467,1.3372,1.3426,1.3484,1.3247,1.3153,0.0,0.0,0.0,1.263,1.2282,0.0,0.0,0.0,0.0,0.0,0.0,0.0,0.0,0.0,0.0,0.0,0.0,0.0,0.0,0.0,0.0,0.0,0.0,0.0,0.0,0.0,0.0,0.0,0.8836,0.8458,0.8155,0.7946,0.7914,0.7751,0.7395,0.7452,0.758,0.7702,0.7706,0.7763,0.7833,0.7833,0.7906,0.8053,0.8176,0.8238,0.8238,0.8807,0.8961,0.8853,0.9352,0.9607,0.9747,0.9886,0.9946,1.0013,1.0244,1.0477,1.0728,1.7123,0.0,0.0,0.0,0.0,0.0,0.0,0.0,0.0,0.0,2.0513,0.0,2.1095,0.0,2.1403,0.0,2.1293,2.112,2.0436,2.0307,0.0,1.937,1.8606,0.0,0.0,0.0,0.0,0.0,0.0,1.4568,0.0,0.0,0.0,0.0,0.0,0.0,1.4126,0.0,1.5864,0.0,0.0,1.626,0.0,0.0,1.6197,1.4698,0.0,1.4555,1.3995,1.4198,1.4098,1.3853,1.3751,1.3805,1.3835,1.3567,1.3424,1.3362,1.3362,1.3104,0.0,1.254,1.2396,0.0,1.2043,0.0,0.0,0.0,0.0,0.0,0.0,0.0,0.0,0.0,0.0,0.0,0.0,0.9921,0.0,0.0,0.0,0.0,0.0,0.0,0.9111,0.892,0.8595,0.8397,0.0,0.8178,0.8041,0.7914,0.7772,0.7745,0.789,0.789,0.7906,0.8012,0.8012,0.8048,0.8113,0.8235,0.826,0.8223,0.8719,0.8839,0.8738,0.9196,0.9495,0.9734,0.994,1.007,1.0236,1.0374,1.0519,1.0772,0.0,0.0,0.0,0.0,1.8686,0.0,0.0,0.0,2.013,0.0,2.0751,2.1317,2.1183,2.1903,2.2178,2.1739,2.2217,2.1914,2.055,2.0907,0.0,0.0,1.9212,1.8764,1.7854,0.0,0.0,0.0,0.0,0.0,0.0,0.0,0.0,0.0,1.4692,0.0,1.4557,1.4887,1.5439,1.6179,1.7426,1.8009,1.8133,1.8736,1.7139,1.4648,1.4727,1.474,1.4705,1.4669,1.4677,1.4605,1.4238,1.4129,1.4057,1.3674,1.3528,1.3535,1.3535,1.3293,1.3044,1.3044,1.2718,0.0,0.0,0.0,1.2903,0.0,0.0,0.0,0.0,0.0,0.0,0.0,0.0,0.0,0.0,0.0,0.0,0.0,0.0,0.0,0.0,0.9701,0.9436,0.8755,0.8663,0.0,0.0,0.8354,0.8405,0.8672,0.8343,0.8083,0.8024,0.8024,0.8032,0.804,0.804,0.8134,0.8304,0.8304,0.8441,0.8612,0.8828,0.8915,0.8981,0.9343,0.9651,0.9949,1.0145,1.0362,1.0649,1.064,1.0726,1.0938,1.7784,1.8041,1.8561,0.0,1.9147,1.9209,0.0,0.0,0.0,0.0,2.1918,2.2741,2.338,2.3416,2.3304,2.2953,2.2813,0.0,0.0,0.0,0.0,2.1124,2.0772,2.0256,1.9561,1.8975,0.0,1.6509,0.0,0.0,1.4997,0.0,0.0,0.0,0.0,0.0,1.5054,1.5495,1.5585,1.5557,1.6753,1.6941,1.6506,0.0,1.6089,1.5589,1.6716,1.6749,1.6237,1.5692,1.548,1.5374,1.4669,1.4461,1.4461,1.4353,1.4137,1.3956,1.3956,1.3777,1.3553,1.3394,1.3214,1.3114,0.0,0.0,0.0,0.0,0.0,0.0,0.0,0.0,0.0,0.0,0.0,0.0,0.0,0.0,0.0,0.0,0.0,0.0,0.9908,0.968,0.9383,0.8959,0.9,0.0,0.0,0.0,0.9135,0.8712,0.8616,0.8424,0.8215,0.8219,0.8288,0.8426,0.8426,0.8494,0.8539,0.8539,0.8651,0.8823,0.8867,0.912,0.9423,0.9521,0.9813,1.0149,1.0355,1.0667,1.1019,1.0868,1.0943,1.1079,1.8246,0.0,0.0,2.0188,0.0,0.0,2.0811,2.1059,0.0,2.1807,2.2538,0.0,2.3545,2.3556,2.338,2.3042,2.2706,0.0,2.1419,0.0,0.0,2.1507,2.1248,2.0834,2.0309,1.9599,0.0,1.6887,0.0,0.0,1.5297,0.0,0.0,0.0,0.0,1.5543,0.0,1.5595,1.5866,1.616,1.6785,1.6992,0.0,1.712,1.6996,1.6831,1.7678,1.7095,1.5824,1.5409,1.5275,1.5204,1.4748,1.4605,1.4605,1.4605,1.4607,1.4579,1.4579,1.4475,1.4327,1.4225,1.4008,1.3901,1.4147,1.3964,1.3716,0.0,1.3808,1.3615,0.0,0.0,0.0,0.0,0.0,0.0,0.0,0.0,0.0,0.0,1.118,0.0,1.0494,1.0251,0.9916,0.9382,0.9464,0.0,0.0,0.0,0.942,0.9026,0.9072,0.8866,0.8453,0.8613,0.8667,0.8612,0.8612,0.8649,0.8678,0.8678,0.8808,0.8976,0.8976,0.9121,0.94,0.9481,0.9762,1.0209,1.0656,1.0949,1.1184,1.1066,1.1099,1.1198,0.0,0.0,0.0,0.0,0.0,0.0,0.0,2.2227,0.0,2.2209,0.0,2.3176,2.2878,2.315,2.3148,2.2612,0.0,2.179,2.0897,2.1429,2.1594,2.1191,2.117,2.0959,2.0395,1.9873,1.8765,0.0,0.0,0.0,0.0,0.0,0.0,0.0,0.0,0.0,0.0,1.5584,1.6239,1.7202,1.7223,1.7625,1.8271,1.8767,1.8553,1.8003,1.7901,1.6576,1.4883,1.4776,1.474,1.4748,1.4641,1.4605,1.4613,1.466,1.4935,1.5197,1.5237,1.5239,1.5188,1.5188,1.4871,1.4665,1.4993,1.4615,1.4213,1.443,1.4343,1.3997,0.0,0.0,0.0,0.0,0.0,0.0,0.0,0.0,0.0,0.0,0.0,0.0,0.0,1.1081,1.0625,1.0034,0.0,0.0,0.0,0.0,0.9647,0.9424,0.9494,0.9288,0.8689,0.8991,0.9003,0.8726,0.8657,0.869,0.8857,0.8857,0.8946,0.9143,0.9143,0.9159,0.9239,0.9438,0.9748,1.0215,1.083,1.11,1.11,1.11,1.11,1.1096,0.0,0.0,0.0,0.0,0.0,2.2713,2.3912,2.3464,2.2862,2.2482,2.3569,2.4142,2.3668,2.3891,2.3762,2.2854,2.2251,0.0,0.0,0.0,0.0,2.1428,2.158,2.129,2.0405,2.0312,1.9173,0.0,0.0,0.0,0.0,0.0,0.0,0.0,0.0,0.0,1.5993,1.6287,0.0,1.6799,1.7649,1.808,1.8196,1.8181,1.8104,1.7935,1.731,1.6828,1.6411,1.5789,1.5586,1.548,1.482,1.4605,1.466,1.5006,1.5133,1.5245,1.5553,1.5596,1.5597,1.5597,1.5296,1.5087,1.5482,1.5219,1.4919,1.4987,1.4896,1.4645,1.3998,0.0,0.0,0.0,0.0,0.0,0.0,0.0,0.0,0.0,0.0,0.0,0.0,0.0,0.0,0.0,0.0,0.0,0.0,0.0,1.0578,0.0,0.9344,0.0,0.0,0.0,0.8922,0.9322,0.8939,0.8873,0.9047,0.9047,0.9157,0.9325,0.9325,0.9554,0.994,0.9975,1.0123,1.0364,1.0493,1.0556,1.0556,1.0556,1.0556,1.056,0.0,0.0,0.0,0.0,0.0,0.0,0.0,2.4559,2.4111,2.3545,2.3453,2.3368,2.3116,2.2852,2.2486,2.203,2.163,2.1291,2.1071,2.132,2.1502,2.1502,2.1467,2.1124,2.0405,2.0203,1.9199,1.7368,0.0,0.0,0.0,0.0,0.0,0.0,0.0,1.6506,0.0,0.0,0.0,1.7912,1.8127,1.8385,1.8644,1.8606,1.849,1.8266,1.7465,1.7072,1.6829,1.6068,1.5798,1.5691,1.511,1.4919,1.499,1.534,1.557,1.5745,1.5912,1.6087,1.6222,1.6222,1.607,1.5991,1.619,1.5929,1.5685,1.5685,1.5638,1.5442,1.4865,1.3853,0.0,0.0,0.0,0.0,0.0,0.0,0.0,0.0,0.0,0.0,0.0,0.0,0.0,0.0,0.0,0.0,1.1366,0.0,1.0781,0.0,0.0,0.0,0.9001,0.0,0.9246,0.9283,0.9053,0.9056,0.9277,0.9277,0.9331,0.9512,0.9512,0.9614,0.9843,0.9989,1.0085,1.0216,1.0364,1.0413,1.0413,1.0413,1.0413,1.0413,0.0,2.2256,0.0,0.0,2.4631,0.0,2.5243,2.5402,2.5245,2.4636,2.3728,2.3017,2.274,2.2211,2.1749,2.136,2.1115,2.0945,2.0829,2.1167,2.1397,2.1425,2.1268,2.0927,2.0395,2.0079,1.923,0.0,0.0,0.0,0.0,0.0,0.0,0.0,0.0,0.0,0.0,0.0,1.8035,1.9199,1.8808,1.8921,1.9331,1.9354,1.9229,1.8901,1.8216,1.7843,1.7509,1.656,1.6038,1.573,1.542,1.533,1.5356,1.5728,1.5983,1.6222,1.6301,1.6483,1.6689,1.6689,1.6689,1.6689,1.6689,1.6516,1.6317,1.6317,1.6317,1.6115,1.5516,1.4552,0.0,0.0,0.0,0.0,0.0,0.0,0.0,0.0,0.0,0.0,1.2651,0.0,0.0,0.0,0.0,1.216,1.1783,1.1426,1.0619,0.0,0.0,0.946,0.9071,0.0,0.9508,0.9304,0.9216,0.9242,0.9461,0.9461,0.949,0.9579,0.9579,0.9579,0.9628,0.9821,0.992,0.992,1.0167,1.0216,1.0216,1.0216,1.0216,1.0216,0.0,0.0,0.0,0.0,0.0,0.0,2.5156,2.5599,2.5754,2.5199,2.5391,2.5104,2.3815,2.4052,2.3595,2.1889,2.1379,2.1012,2.0644,2.0819,2.1022,2.1205,2.1395,2.1145,2.0405,2.0343,1.9696,0.0,0.0,1.7485,0.0,0.0,0.0,0.0,0.0,0.0,0.0,1.9344,1.9572,1.9761,2.0054,2.0124,2.0022,2.019,2.015,1.9976,1.9894,1.9817,1.9584,1.811,1.6752,1.5701,1.5656,1.5634,1.5736,1.6047,1.6182,1.6277,1.6554,1.6665,1.6689,1.6689,1.6689,1.6689,1.6689,1.6665,1.6642,1.6642,1.6642,1.6404,1.5553,1.5606,1.5677,0.0,0.0,0.0,0.0,0.0,0.0,0.0,0.0,0.0,0.0,1.3223,0.0,0.0,1.2384,1.1954,1.2212,1.1219,1.0318,0.9584,0.9349,0.9497,0.9957,0.9417,0.9418,0.9919,0.9554,0.9425,0.9604,0.9604,0.9612,0.9579,0.9579,0.9579,0.9579,0.9628,0.9628,0.9628,0.9677,0.9677,0.9677,0.9677,0.9677,0.9677,0.0,0.0,0.0,0.0,0.0,0.0,0.0,2.5813,2.5873,2.5653,2.5037,2.4446,2.3872,2.3265,2.2637,2.1875,2.1642,2.1502,2.1339,2.1272,2.1282,2.1397,2.1057,2.066,2.0103,1.9925,1.9383,0.0,0.0,0.0,0.0,0.0,0.0,0.0,0.0,1.8833,1.9523,1.9582,1.9809,2.0172,2.0348,2.0288,2.0109,2.0181,2.0344,2.0443,1.9964,2.0048,2.0143,1.8913,1.8067,1.7409,1.6803,1.6608,1.6682,1.7005,1.6839,1.6515,1.665,1.6689,1.6689,1.6689,1.6689,1.6689,1.6689,1.6765,1.6831,1.6831,1.6657,1.6392,1.5935,1.5836,1.5626,1.5066,0.0,0.0,0.0,0.0,0.0,0.0,0.0,0.0,0.0,0.0,0.0,0.0,0.0,1.2227,1.2187,1.153,1.1028,1.0764,0.0,0.9786,1.0582,0.9774,0.9535,0.9776,0.96,0.9555,0.9579,0.9579,0.9579,0.9579,0.9579,0.9579,0.9579,0.9579,0.9579,0.9579,0.9579,0.9579,0.9579,0.9579,0.9579,0.9579,2.4198,0.0,2.4819,0.0,2.5684,2.5872,2.5943,2.5793,2.5688,2.5688,2.4584,2.3835,2.3985,2.3016,2.2258,2.2008,2.1997,2.1921,2.1807,2.154,2.1436,2.1502,2.0941,0.0,2.0088,1.9874,1.949,1.8873,1.8375,0.0,0.0,0.0,0.0,0.0,1.9276,1.9716,2.0369,2.0226,2.0401,2.0798,2.0798,2.0652,2.0433,2.047,2.0636,2.077,2.0203,2.0303,2.0547,1.952,1.914,1.8901,1.7956,1.7494,1.7395,1.7616,1.7221,1.6689,1.6689,1.6689,1.6689,1.6689,1.6689,1.6721,1.6873,1.6962,1.7032,1.7126,1.6868,1.6565,1.6551,1.6254,1.5856,1.5445,0.0,0.0,0.0,1.4729,0.0,0.0,1.3961,1.3487,1.2447,1.2516,0.0,0.0,0.0,0.0,1.2236,1.1707,1.1423,0.0,0.0,0.0,1.1106,1.0724,1.0355,1.006,1.006,1.006,1.0064,0.9723,0.9579,0.9579,0.9579,0.9579,0.9579,0.9579,0.9579,0.9579,0.9579,0.9579,0.9579,0.9579,0.9579,0.9579,2.4889,2.5009,2.5336,2.5786,2.5884,2.5895,2.5895,2.5532,2.5215,2.5215,2.4334,2.3891,2.4432,2.3989,2.3335,2.2483,2.2402,2.2214,2.1845,2.1436,2.1282,0.0,0.0,2.0765,2.0504,2.0484,2.0263,1.9775,0.0,0.0,1.8566,0.0,1.915,2.0871,2.0517,2.0881,2.1787,2.1776,2.1787,2.1787,2.1787,2.152,2.1195,2.1415,2.1233,2.0896,2.0906,2.1012,2.1051,1.9962,1.9708,1.9728,1.8926,1.8215,1.7691,1.77,1.7221,1.6689,1.6689,1.6689,1.6689,1.6689,1.6689,1.6784,1.7191,1.727,1.7374,1.7743,1.7342,1.7087,1.7342,1.7167,1.6991,1.6984,0.0,0.0,0.0,0.0,0.0,1.4888,1.5309,1.5031,1.334,1.3253,0.0,0.0,0.0,0.0,0.0,0.0,0.0,1.1472,1.2325,0.0,1.158,1.2301,1.2145,1.1175,1.1175,1.1175,1.1126,1.0064,0.9579,0.9579,0.9579,0.9579,0.9579,0.9579,0.9579,0.9579,0.9579,0.9579,0.9579,0.9579,0.9579,0.9579,2.5592,2.5624,2.571,2.5874,2.5895,2.5895,2.5895,2.5764,2.5546,2.5259,2.4628,2.4181,2.3995,2.3525,2.309,0.0,2.2815,2.274,0.0,2.1997,2.1655,2.1693,2.1079,2.0525,2.012,2.0242,2.0163,1.9856,0.0,0.0,0.0,1.9153,1.9768,2.0624,2.0866,2.1123,2.1397,2.1397,2.1474,2.1578,2.1436,2.132,2.1167,2.1128,2.1022,2.0906,2.0906,2.1022,2.1217,2.1194,2.1214,2.1253,2.1317,1.9661,1.77,1.77,1.7221,1.6689,1.6689,1.6689,1.6689,1.6689,1.6788,1.6909,1.7247,1.7514,1.777,1.797,1.7857,1.7743,1.7737,1.7654,1.7609,1.7609,1.7691,0.0,1.769,0.0,0.0,1.549,1.5224,1.4653,1.334,1.3316,0.0,0.0,0.0,0.0,0.0,0.0,0.0,0.0,1.3025,0.0,1.342,1.2931,1.2193,1.1219,1.1219,1.0837,1.0109,0.9772,0.9579,0.9579,0.9579,0.9579,0.9579,0.9579,0.9579,0.9579,0.9579,0.9579,0.9579,0.9579,0.9579,0.9579,2.5822,2.5853,2.5864,2.5822,2.578,2.577,2.5633,2.5492,2.5276,2.4973,2.461,2.4172,2.3633,2.3384,0.0,2.3012,2.3001,2.3001,2.3001,2.2402,2.2035,2.2035,2.1262,2.0681,2.0404,2.0366,0.0,2.0156,1.9814,1.9657,1.9657,2.0119,2.0484,2.0765,2.1084,2.1205,2.1205,2.1205,2.1282,2.1397,2.132,2.1282,2.1167,2.1061,2.0984,2.0926,2.0977,2.1232,2.1527,2.189,2.1748,2.1413,2.1644,1.9864,1.7821,1.8351,1.802,1.7396,1.6959,1.6791,1.6833,1.6959,1.704,1.7184,1.7585,1.7927,1.8163,1.8326,1.8226,1.8118,1.8139,1.8055,1.7956,1.7956,1.8138,1.8208,1.8102,0.0,0.0,0.0,0.0,0.0,0.0,1.4269,1.4221,0.0,0.0,0.0,0.0,0.0,0.0,1.4115,1.4064,1.4109,1.4292,1.3992,1.336,1.2344,1.2344,1.1809,1.0743,1.0743,1.0743,1.0743,1.0355,1.0207,1.0158,0.9772,0.9579,0.9579,0.9579,0.9579,0.9579,0.9579,0.9579,0.9579,2.5644,2.578,2.5853,0.0,2.5612,0.0,2.5285,2.4891,2.4573,2.4541,2.4309,2.3957,2.344,2.3601,2.3531,2.3045,0.0,0.0,0.0,2.2628,2.2402,2.2402,2.1655,2.1244,2.1205,2.0848,2.0644,2.0605,2.078,2.0867,2.0867,2.1051,2.1167,2.1167,2.1167,2.1167,2.1167,2.1167,2.1167,2.1205,2.1349,2.132,2.1177,2.1207,2.1062,2.0927,2.1213,2.156,2.195,2.2228,2.1595,2.0689,2.0525,1.947,1.8428,1.9367,1.9204,1.8467,1.7298,1.6999,1.7043,1.7342,1.7445,1.7598,1.8166,1.8422,1.8566,1.8743,1.8458,1.8226,1.8481,1.8326,1.8133,1.8133,1.8133,1.8087,1.8087,1.7861,0.0,0.0,0.0,0.0,1.6676,1.5901,1.5221,0.0,0.0,0.0,0.0,0.0,1.3946,1.4536,1.5384,1.535,1.4394,1.535,1.5302,1.4298,1.4202,1.3661,1.2678,1.2678,1.2678,1.263,1.1707,1.1317,1.1224,1.0207,0.9772,0.9727,0.9727,0.9677,0.9579,0.9579,0.9579,0.9579,0.0,0.0,2.5895,2.5853,2.5822,2.5812,2.5728,2.5515,2.5174,2.4787,2.4547,2.4172,2.3472,2.3748,2.3746,2.3078,2.3001,2.3001,2.3001,2.2628,2.2402,2.2402,2.1921,2.1502,2.1215,2.1128,2.0925,2.0605,2.0644,2.0654,2.0654,2.0722,2.0722,2.0722,2.0722,2.0722,2.0722,2.0722,2.0809,2.0984,2.0848,2.0886,2.0985,2.1155,2.1164,2.1222,2.1776,2.2015,2.2238,2.2968,2.3026,2.2856,2.3323,2.3209,2.2279,1.8953,1.785,1.7632,1.7131,1.6999,1.7043,1.7342,1.7757,1.8137,1.8408,1.8596,1.8743,1.8781,1.8689,1.8643,1.8743,1.8689,1.8596,1.8427,1.8427,1.8241,1.7861,1.7721,1.7628,0.0,1.7333,1.7286,1.7145,1.6936,1.6759,0.0,0.0,0.0,1.5885,1.5113,1.4716,1.4901,1.5491,1.5689,1.5445,1.5683,1.5302,1.4298,1.3463,1.2926,1.2678,1.2678,1.2678,1.2678,1.2436,1.2339,1.2339,1.2052,1.1517,1.0837,1.0837,1.0301,0.9579,0.9579,0.9579,0.9579,2.5895,2.5895,2.5853,2.577,2.577,2.5728,2.5591,2.5422,2.5157,2.4891,2.4828,2.4603,2.3959,2.4309,2.427,2.3389,2.3329,2.3241,2.3012,2.2703,2.259,2.2665,2.2214,2.1883,2.1769,2.1578,2.1272,2.0886,2.0683,2.0605,2.0605,2.0605,2.0713,2.0869,2.0869,2.0869,2.0869,2.0869,2.084,2.08,2.0948,2.1076,2.1204,2.1519,2.1645,2.1745,2.2302,2.2585,2.278,2.3559,2.3606,2.337,2.375,2.356,2.2581,1.9451,1.8766,1.8758,1.7627,1.7229,1.7221,1.7627,1.8045,1.8422,1.8611,1.8743,1.8781,1.8781,1.8781,1.8781,1.8781,1.8781,1.8735,1.8527,1.8388,1.8195,1.7776,1.7675,1.7675,1.766,1.7761,1.7807,1.766,1.766,1.7567,1.7326,1.6774,0.0,1.6889,1.6181,1.5633,1.5357,1.5665,1.5784,1.5784,1.5784,1.554,1.4968,1.4376,1.413,1.413,1.413,1.413,1.4082,1.3655,1.3414,1.3366,1.2877,1.2096,1.1219,1.1219,1.0542,0.9579,0.9579,0.9579,0.9579,2.6104,2.5979,2.5864,2.5696,2.5654,2.5559,2.5327,2.5115,2.4999,2.4999,2.5115,2.5019,2.4573,2.4954,2.485,2.3891,2.3908,2.3678,2.3045,2.2852,2.2815,2.3001,2.2515,2.2289,2.2402,2.1987,2.1617,2.1282,2.0886,2.0683,2.0683,2.0674,2.0869,2.119,2.1268,2.1298,2.1298,2.1298,2.1113,2.084,2.1332,2.1569,2.1619,2.2053,2.2263,2.2322,2.2852,2.317,2.339,2.4031,2.3831,2.328,2.3139,2.257,2.1641,2.0339,2.0322,2.0314,1.8303,1.7621,1.7567,1.804,1.8334,1.8566,1.8743,1.8781,1.8781,1.8781,1.8781,1.8781,1.8781,1.8781,1.8735,1.8527,1.8288,1.7964,1.7753,0.0,1.7795,1.8071,1.8334,1.8427,1.8226,1.8226,1.804,1.7567,1.7473,1.7419,1.7419,1.6911,1.64,1.5927,1.5825,1.5784,1.5784,1.5784,1.5784,1.5784,1.5784,1.5784,1.5784,1.5784,1.5784,1.5737,1.4921,1.4538,1.4436,1.3553,1.2603,1.1707,1.1707,1.1098,1.0198,1.0,0.9954,0.9904,2.6981,2.6426,2.5906,2.5864,2.5853,2.5853,2.5812,2.5601,2.5475,2.5475,2.5338,2.5103,2.4798,2.5204,2.5198,2.4454,2.4727,2.4399,2.3088,2.2964,2.2964,2.3001,2.2927,2.2703,2.2402,2.1987,2.1769,2.1693,2.131,2.1128,2.1099,2.1115,2.1132,2.121,2.1621,2.1787,2.1787,2.1787,2.1748,2.173,2.1799,2.1828,2.1867,2.2298,2.2454,2.2556,2.3375,2.3697,2.3793,2.4262,2.4368,2.4133,2.3367,2.3008,2.2517,2.0737,2.0158,1.9749,1.8404,1.8187,1.8334,1.8435,1.8612,1.8743,1.8781,1.8781,1.8781,1.8781,1.8781,1.8781,1.8781,1.8781,1.8735,1.8527,1.8245,1.7922,1.774,0.0,1.7759,1.8064,1.8334,1.8566,1.8689,1.8689,1.8643,1.8589,1.8218,1.7994,1.7994,1.7099,1.6581,1.6494,1.6015,1.5784,1.5784,1.5784,1.5784,1.5784,1.5784,1.5784,1.5784,1.5784,1.5784,1.5778,1.5635,1.5588,1.554,1.5391,1.4854,1.4176,1.4176,1.3651,1.2867,1.1909,1.155,1.1401,2.6498,2.6188,2.5895,2.5895,2.5895,2.5895,2.5895,2.5728,2.5559,2.538,2.5285,2.5115,2.4892,2.5157,2.5154,2.4559,2.4689,2.446,2.366,2.3623,2.3591,2.3367,2.3281,2.3048,2.274,2.2582,2.2478,2.2478,2.234,2.2295,2.2266,2.2271,2.2261,2.2305,2.2514,2.2478,2.2217,2.2217,2.209,2.1904,2.2129,2.2217,2.2266,2.2685,2.2808,2.2871,2.3424,2.3711,2.3841,2.4239,2.4411,2.4411,2.3993,2.3864,2.3464,2.1445,2.0022,1.9004,1.8265,1.8187,1.8334,1.8481,1.8566,1.8658,1.8789,1.8781,1.8781,1.8781,1.8781,1.8781,1.8781,1.8781,1.8735,1.8527,1.8391,0.0,1.7956,1.801,1.8153,1.8295,1.852,1.8697,1.8781,1.8781,1.8781,1.8781,1.8596,1.8458,1.8458,1.7807,1.7434,1.7434,1.6346,1.5784,1.5784,1.5784,1.5912,1.6066,1.5905,1.5992,1.6299,1.6139,1.6152,1.6293,1.6132,1.6072,1.6072,1.6072,1.5509,1.4702,1.4897,1.4414,1.3534,1.3023,1.2823,1.2669,2.6177,2.6021,2.5895,2.5895,2.5895,2.5895,2.5895,2.578,2.5601,2.5338,2.5285,2.52,2.4988,2.5115,2.5062,2.468,2.4648,2.4571,2.4371,2.4419,2.4227,2.3716,2.3541,2.3421,2.3351,2.3403,2.3442,2.3442,2.3377,2.3344,2.3344,2.3378,2.3382,2.3355,2.3456,2.3253,2.2784,2.2784,2.2556,2.2207,2.2529,2.2656,2.2652,2.2974,2.3091,2.3144,2.3406,2.358,2.3797,2.4067,2.4282,2.4411,2.4229,2.4176,2.382,2.1933,2.0385,1.9104,1.8365,1.8226,1.8319,1.852,1.8566,1.8612,1.8781,1.8781,1.8781,1.8781,1.8781,1.8781,1.8781,1.8781,1.8735,1.8566,0.0,1.8432,1.821,1.8379,1.8485,1.8512,1.8697,1.8781,1.8781,1.8781,1.8781,1.8781,1.8781,1.8781,1.8781,1.8443,1.8145,1.7985,1.6706,1.592,1.5784,1.5899,1.6046,1.6321,1.6106,1.6266,1.67,1.6473,1.65,1.6693,1.6473,1.6373,1.6373,1.6373,1.5963,1.5295,1.5556,1.5203,1.4476,1.4218,1.4115,1.3961,2.7103,2.6456,2.5895,2.5895,2.5895,2.5895,2.5895,2.5906,2.5812,2.5601,2.5559,2.5475,2.52,2.52,2.5189,2.5147,2.5147,2.5136,2.5136,2.5136,2.4703,2.3749,2.3694,2.3891,2.4366,2.4371,2.4392,2.4392,2.3985,2.3775,2.3745,2.3824,2.3846,2.3857,2.4228,2.4157,2.3704,2.3704,2.3424,2.3003,2.3033,2.3052,2.3052,2.3081,2.3091,2.3144,2.3406,2.3503,2.359,2.4034,2.4206,2.411,2.342,2.3183,2.3008,2.1952,2.1561,2.1033,1.902,1.8612,1.8735,1.8781,1.8781,1.8781,1.8781,1.8781,1.8781,1.8781,1.8781,1.8781,1.8781,1.8781,1.8781,1.8781,0.0,0.0,1.848,1.8422,1.8431,1.8495,1.8697,1.8781,1.8781,1.8781,1.8781,1.8781,1.8781,1.8781,1.8781,1.8667,1.8256,1.7577,1.6882,1.6298,1.5784,1.6106,1.6301,1.6279,1.6526,1.6667,1.6707,1.6687,1.6687,1.6707,1.6687,1.6673,1.6673,1.6673,1.679,1.7036,1.7056,1.7178,1.7193,1.6125,1.5748,1.5589,2.7296,2.694,2.6539,2.5979,2.5895,2.5895,2.5895,2.577,2.5644,2.538,2.5253,2.5084,2.4786,2.4786,2.4786,2.4786,2.4786,2.4828,2.4988,2.4871,2.4598,2.4231,2.391,2.3874,2.4068,2.4368,2.4519,2.4519,2.4787,2.4834,2.4668,2.4985,2.4903,2.4524,2.4819,2.468,2.4251,2.4251,2.4122,2.394,2.3657,2.3527,2.3493,2.3232,2.3091,2.3091,2.3232,2.3363,2.3547,2.3721,2.3947,2.4153,2.3884,2.3874,2.3777,2.2833,2.1498,2.0212,1.9766,1.9675,1.972,1.972,1.9271,1.8781,1.8781,1.8781,1.8781,1.8781,1.8855,1.8856,1.8856,1.8856,1.8856,1.8856,0.0,1.867,1.8665,1.8896,1.9014,1.9051,1.9304,1.9471,1.9471,1.928,1.9161,1.9161,1.8955,1.8931,1.9153,1.9343,1.9143,1.8523,1.8286,1.7724,1.6863,1.6635,1.6833,1.7367,1.6891,1.6894,1.7241,1.7112,1.7081,1.7241,1.7061,1.7032,1.7032,1.7032,1.7099,1.7219,1.74,1.7482,1.7529,1.7094,1.6935,1.6776,2.694,2.6775,2.658,2.6021,2.5895,2.5895,2.5895,2.5728,2.5517,2.5242,2.5031,2.4786,2.454,2.4497,2.4497,2.4497,2.4497,2.4583,2.4786,2.4615,2.4522,2.4628,2.4255,2.4075,2.4253,2.4583,2.4743,2.4743,2.523,2.538,2.52,2.5549,2.5464,2.5126,2.5253,2.5115,2.4712,2.4712,2.4627,2.4456,2.4166,2.3917,2.3754,2.344,2.3232,2.3091,2.3091,2.3232,2.3373,2.346,2.3721,2.4034,2.4163,2.4335,2.4358,2.3734,2.2385,2.1141,2.1498,2.1409,2.0962,2.0076,1.9317,1.8781,1.8781,1.8781,1.8813,1.8823,1.8942,1.9043,1.9096,1.916,1.9208,1.9112,1.9115,1.9106,1.9012,1.932,1.9574,1.9574,1.9773,1.9917,1.9917,1.971,1.9574,1.9574,1.9296,1.9312,1.9669,1.9908,1.9878,1.9434,1.9434,1.9035,1.834,1.7694,1.7656,1.8222,1.7544,1.7452,1.7838,1.7479,1.7447,1.7569,1.7427,1.734,1.734,1.734,1.734,1.7353,1.7554,1.7582,1.7582,1.7582,1.7582,1.7477,2.6063,2.5895,2.5895,2.5895,2.5895,2.5895,2.5895,2.5738,2.5517,2.5242,2.5031,2.4786,2.454,2.4497,2.4497,2.4497,2.4497,2.4497,2.4497,2.4497,2.4615,2.4903,2.465,2.4701,2.5189,2.52,2.52,2.52,2.52,2.52,2.52,2.52,2.5338,2.5601,2.5601,2.5464,2.52,2.52,2.4935,2.4498,2.4498,2.4209,2.3797,2.3797,2.3537,2.3091,2.3101,2.3101,2.3144,2.3406,2.3503,2.359,2.4067,2.4335,2.4497,2.4497,2.4497,2.4497,2.4497,2.382,2.2394,1.9538,1.8827,1.8827,1.8827,1.8827,1.883,1.8878,1.917,1.9439,1.9472,1.9722,1.9819,1.9535,1.9722,1.9819,1.9535,1.9722,1.9917,1.9917,1.9917,1.9925,1.9925,1.9917,1.9917,1.9917,1.9917,2.0068,2.0377,2.04,2.0299,2.0122,2.0138,2.0138,2.0138,1.9256,1.8789,1.8796,1.8535,1.837,1.837,1.7845,1.7582,1.7582,1.7582,1.7582,1.7582,1.7582,1.7582,1.7582,1.7582,1.7582,1.7582,1.7582,1.7582,1.7582,2.6981,2.6828,2.6622,2.6021,2.5895,2.5853,2.5696,2.5464,2.5242,2.5031,2.4786,2.4583,2.4497,2.4497,2.4497,2.4497,2.4497,2.4583,2.4786,2.4786,2.4861,2.5115,2.4904,2.4893,2.52,2.5073,2.4988,2.4988,2.4988,2.4988,2.4988,2.5338,2.5517,2.5612,2.5728,2.577,2.5686,2.5686,2.5591,2.5464,2.5105,2.4893,2.4733,2.4423,2.4198,2.4036,2.3701,2.358,2.358,2.3503,2.359,2.3797,2.4282,2.4454,2.4497,2.4497,2.3907,2.328,2.3464,2.2957,2.2241,2.1919,2.0836,1.9849,1.9849,1.9521,1.9241,1.9249,1.9417,1.9586,1.9828,1.9752,1.9694,1.9844,1.9888,1.986,1.9771,2.0025,2.0234,2.0234,2.0456,2.0607,2.0607,2.0377,2.0234,2.0234,2.0234,2.0281,2.0384,2.0631,2.0711,2.0652,2.066,2.066,2.066,1.9214,1.8704,1.9133,1.8276,1.7845,1.7845,1.7687,1.7582,1.7582,1.7582,1.7582,1.7582,1.7582,1.7582,1.7582,1.7582,1.7582,1.7582,1.7582,1.7582,1.7582,2.7377,2.694,2.6498,2.5979,2.5895,2.5822,2.5644,2.538,2.5115,2.4946,2.4668,2.4497,2.4497,2.4497,2.454,2.4658,2.4743,2.4871,2.5168,2.5073,2.5158,2.5464,2.5295,2.5168,2.52,2.5073,2.5031,2.5031,2.5031,2.5031,2.5031,2.5295,2.5517,2.5612,2.5738,2.5822,2.5895,2.5895,2.5895,2.5895,2.5591,2.538,2.5158,2.4669,2.437,2.4166,2.3701,2.358,2.3667,2.3547,2.3624,2.3884,2.4239,2.4368,2.4411,2.4454,2.4003,2.3454,2.3594,2.3462,2.3358,2.3825,2.2629,2.1386,2.1386,2.1069,2.0735,2.036,2.0443,2.0482,2.0229,2.0159,2.0109,2.021,2.0274,2.0281,2.0132,2.0414,2.0599,2.0599,2.079,2.0925,2.0925,2.0726,2.0599,2.0599,2.0599,2.0599,2.0599,2.0805,2.0925,2.0925,2.0925,2.0925,2.0925,1.9672,1.9361,1.9946,1.8997,1.8475,1.8272,1.8003,1.7793,1.7582,1.7582,1.7582,1.7582,1.7582,1.7582,1.7582,1.7582,1.7582,1.7582,1.7582,1.7582,1.7582,2.7214,2.6456,2.5895,2.5895,2.5895,2.5812,2.5601,2.538,2.5115,2.4903,2.4658,2.4497,2.4497,2.454,2.4615,2.4861,2.5073,2.5327,2.5559,2.538,2.5422,2.5895,2.5728,2.5517,2.5285,2.52,2.52,2.52,2.5158,2.5158,2.52,2.52,2.5338,2.5644,2.5601,2.5686,2.5853,2.5853,2.5853,2.5812,2.5812,2.5549,2.5062,2.4627,2.4209,2.3754,2.3276,2.3276,2.3547,2.3547,2.3667,2.3884,2.411,2.4206,2.4249,2.4368,2.4485,2.4516,2.4516,2.4921,2.5313,2.5313,2.4336,2.3355,2.3196,2.3111,2.2767,2.1835,2.1839,2.1719,2.0716,2.0719,2.0771,2.0565,2.0719,2.0822,2.0565,2.0771,2.0925,2.0925,2.0925,2.0925,2.0925,2.0925,2.0925,2.0925,2.0925,2.0925,2.0925,2.0925,2.0925,2.0925,2.0925,2.0925,2.0925,2.0395,2.0395,2.0814,2.0292,1.9776,1.9279,1.8743,1.8213,1.774,1.7687,1.7687,1.7687,1.7635,1.7582,1.7582,1.7582,1.7582,1.7582,1.7582,1.7582,1.7582,2.6218,2.6021,2.5895,2.5895,2.5895,2.577,2.5338,2.5242,2.5031,2.4625,2.454,2.4497,2.4497,2.47,2.4828,2.4903,2.5073,2.5327,2.5559,2.5559,2.5644,2.5906,2.5864,2.5812,2.577,2.5369,2.52,2.52,2.4828,2.4828,2.52,2.5031,2.5295,2.5822,2.5686,2.5601,2.5654,2.5654,2.5433,2.5126,2.5126,2.4861,2.4423,2.4284,2.4198,2.4036,2.3353,2.3363,2.3711,2.3711,2.3884,2.411,2.4163,2.4206,2.4153,2.4013,2.4364,2.4825,2.4825,2.5533,2.6279,2.6279,2.633,2.6003,2.4504,2.3796,2.319,2.2132,2.1977,2.1803,2.0952,2.0668,2.0617,2.0771,2.0873,2.0873,2.0822,2.0873,2.0925,2.0925,2.0925,2.0925,2.0925,2.0925,2.0925,2.0925,2.0925,2.0925,2.0925,2.0925,2.0925,2.0925,2.0925,2.0925,2.0925,2.0763,2.055,2.0292,1.9732,1.9428,1.9279,1.9168,1.9063,1.8907,1.8429,1.8213,1.8213,1.7793,1.7582,1.7582,1.7582,1.7582,1.7582,1.7582,1.7582,1.7582,2.658,2.6188,2.5895,2.5895,2.5895,2.577,2.5422,2.538,2.5253,2.4871,2.4828,2.4828,2.4828,2.4946,2.5073,2.5211,2.5422,2.5591,2.5728,2.5728,2.577,2.5895,2.5895,2.5895,2.5895,2.5559,2.538,2.538,2.5137,2.5137,2.538,2.538,2.5549,2.5895,2.577,2.5728,2.5738,2.5644,2.538,2.5031,2.5168,2.4946,2.4509,2.4294,2.4122,2.3917,2.3047,2.3057,2.3493,2.3624,2.3764,2.3894,2.398,2.3937,2.3891,2.4102,2.4422,2.4787,2.51,2.5686,2.6243,2.6393,2.6742,2.69,2.6034,2.5613,2.5044,2.3989,2.3408,2.2743,2.1818,2.1121,2.0719,2.0873,2.0925,2.0925,2.0925,2.0925,2.0925,2.0925,2.0925,2.0925,2.0925,2.0921,2.0971,2.0971,2.0956,2.0997,2.0997,2.0953,2.0971,2.0971,2.0909,2.0925,2.0925,2.0925,2.0763,2.0498,2.0209,1.9949,1.9687,1.9418,1.9148,1.8848,1.8265,1.8003,1.8003,1.774,1.7582,1.7582,1.7582,1.7582,1.7582,1.7582,1.7582,1.7582,2.7528,2.6816,2.6343,2.6343,2.6218,2.6085,2.591,2.5805,2.5593,2.5317,2.5317,2.5285,2.52,2.5242,2.538,2.5644,2.5812,2.5895,2.5895,2.5895,2.5895,2.5895,2.5895,2.5895,2.5895,2.5686,2.5601,2.5601,2.5559,2.5559,2.5601,2.5728,2.5812,2.5895,2.5853,2.5853,2.5853,2.5686,2.5433,2.5158,2.538,2.5168,2.4605,2.4209,2.3864,2.345,2.2662,2.2618,2.2969,2.3319,2.3406,2.346,2.3667,2.3624,2.3616,2.4117,2.4415,2.4661,2.5204,2.5643,2.599,2.6188,2.652,2.689,2.7119,2.7214,2.7013,2.5936,2.4992,2.4048,2.297,2.192,2.1189,2.1245,2.1059,2.0964,2.1084,2.0996,2.0941,2.1004,2.0961,2.0909,2.0909,2.0971,2.1015,2.1015,2.1056,2.1093,2.1093,2.1056,2.1015,2.1015,2.0935,2.0909,2.0909,2.0905,2.0925,2.0925,2.0977,2.0744,2.0197,1.9791,1.9288,1.8788,1.816,1.7898,1.7898,1.7687,1.7582,1.7582,1.7582,1.7582,1.7582,1.7582,1.7582,1.7582,2.8267,2.8148,2.8068,2.8068,2.7487,2.6994,2.6992,2.6539,2.6055,2.56,2.5687,2.5658,2.5243,2.5422,2.5644,2.5853,2.5895,2.5895,2.5895,2.5895,2.5895,2.5895,2.5895,2.5895,2.5895,2.5686,2.5601,2.5601,2.538,2.538,2.5601,2.538,2.5506,2.5906,2.5728,2.5644,2.5644,2.5601,2.5338,2.4946,2.4988,2.4476,2.3667,2.3624,2.3188,2.2574,2.223,2.2185,2.2318,2.2969,2.3135,2.3188,2.346,2.3503,2.347,2.3344,2.3984,2.4768,2.4874,2.5631,2.6406,2.6454,2.6504,2.6544,2.6592,2.6976,2.7013,2.5936,2.5596,2.5138,2.4097,2.3011,2.2376,2.2681,2.171,2.1131,2.1788,2.1298,2.0984,2.1285,2.1123,2.0965,2.0965,2.1056,2.1086,2.1086,2.107,2.1093,2.1093,2.1109,2.1086,2.1086,2.1031,2.0965,2.0965,2.0921,2.0925,2.0925,2.0977,2.0953,2.0771,2.0707,2.0656,2.0506,1.9524,1.9063,1.9011,1.801,1.7582,1.7582,1.7582,1.7582,1.7582,1.7582,1.7582,1.7582,2.9016,2.8633,2.8367,2.8216,2.7243,2.6457,2.6317,2.6174,2.5914,2.5422,2.5786,2.5905,2.5476,2.5644,2.5812,2.5906,2.5895,2.5895,2.5895,2.5895,2.5895,2.5895,2.5895,2.5895,2.5895,2.5812,2.578,2.578,2.5559,2.5475,2.5601,2.5591,2.5675,2.5895,2.5506,2.538,2.5338,2.4967,2.4615,2.4305,2.4444,2.41,2.3503,2.3319,2.3013,2.2583,2.223,2.2185,2.2391,2.3063,2.3198,2.3184,2.356,2.3472,2.3325,2.3437,2.399,2.4667,2.5099,2.5635,2.6062,2.6255,2.6294,2.6294,2.6294,2.6726,2.7102,2.6848,2.6398,2.6024,2.5748,2.4877,2.4217,2.4387,2.3298,2.2584,2.29,2.2103,2.1499,2.1445,2.1201,2.1048,2.1048,2.1076,2.1101,2.1101,2.1115,2.1164,2.1164,2.1095,2.1127,2.1101,2.1064,2.1063,2.0983,2.1014,2.1029,2.1029,2.1025,2.0975,2.0873,2.0604,2.0533,2.0473,1.9665,1.9322,1.9249,1.8762,1.837,1.8055,1.8055,1.7845,1.7582,1.7582,1.7582,1.7582]}]]